<?xml version="1.0" encoding="UTF-8" standalone="no" ?><gpx xmlns="http://www.topografix.com/GPX/1/1" xmlns:gpxx="http://www.garmin.com/xmlschemas/GpxExtensions/v3" xmlns:wptx1="http://www.garmin.com/xmlschemas/WaypointExtension/v1" xmlns:gpxtpx="http://www.garmin.com/xmlschemas/TrackPointExtension/v1" creator="GuideVTT.com" version="1.1" xmlns:xsi="http://www.w3.org/2001/XMLSchema-instance" xsi:schemaLocation="http://www.topografix.com/GPX/1/1 http://www.topografix.com/GPX/1/1/gpx.xsd http://www.garmin.com/xmlschemas/GpxExtensions/v3 http://www8.garmin.com/xmlschemas/GpxExtensionsv3.xsd http://www.garmin.com/xmlschemas/WaypointExtension/v1 http://www8.garmin.com/xmlschemas/WaypointExtensionv1.xsd http://www.garmin.com/xmlschemas/TrackPointExtension/v1 http://www.garmin.com/xmlschemas/TrackPointExtensionv1.xsd">
<metadata><link href="http://www.garmin.com"><text>Garmin International</text></link><time>2013-06-22T15:13:50Z</time></metadata>
<trk><name>martigny_-_salvan.gpx</name><extensions><gpxx:TrackExtension><gpxx:DisplayColor>Cyan</gpxx:DisplayColor></gpxx:TrackExtension></extensions><trkseg>
<trkpt lat="46.108100000" lon="7.067240000"><ele></ele><time>2013-7-31T9:51:38Z</time></trkpt>
<trkpt lat="46.108060000" lon="7.067190000"><ele></ele><time>2013-7-31T9:51:41Z</time></trkpt>
<trkpt lat="46.108030000" lon="7.067080000"><ele></ele><time>2013-7-31T9:51:44Z</time></trkpt>
<trkpt lat="46.108050000" lon="7.067020000"><ele></ele><time>2013-7-31T9:51:47Z</time></trkpt>
<trkpt lat="46.108090000" lon="7.066850000"><ele></ele><time>2013-7-31T9:51:50Z</time></trkpt>
<trkpt lat="46.108120000" lon="7.066770000"><ele></ele><time>2013-7-31T9:51:53Z</time></trkpt>
<trkpt lat="46.108270000" lon="7.066180000"><ele></ele><time>2013-7-31T9:51:56Z</time></trkpt>
<trkpt lat="46.108300000" lon="7.066100000"><ele></ele><time>2013-7-31T9:51:59Z</time></trkpt>
<trkpt lat="46.108330000" lon="7.066020000"><ele></ele><time>2013-7-31T9:52:2Z</time></trkpt>
<trkpt lat="46.108410000" lon="7.065760000"><ele></ele><time>2013-7-31T9:52:5Z</time></trkpt>
<trkpt lat="46.108650000" lon="7.065120000"><ele></ele><time>2013-7-31T9:52:8Z</time></trkpt>
<trkpt lat="46.108840000" lon="7.064650000"><ele></ele><time>2013-7-31T9:52:11Z</time></trkpt>
<trkpt lat="46.108870000" lon="7.064570000"><ele></ele><time>2013-7-31T9:52:14Z</time></trkpt>
<trkpt lat="46.108920000" lon="7.064410000"><ele></ele><time>2013-7-31T9:52:17Z</time></trkpt>
<trkpt lat="46.109130000" lon="7.063850000"><ele></ele><time>2013-7-31T9:52:20Z</time></trkpt>
<trkpt lat="46.109300000" lon="7.063380000"><ele></ele><time>2013-7-31T9:52:23Z</time></trkpt>
<trkpt lat="46.109330000" lon="7.063300000"><ele></ele><time>2013-7-31T9:52:26Z</time></trkpt>
<trkpt lat="46.109350000" lon="7.063230000"><ele></ele><time>2013-7-31T9:52:29Z</time></trkpt>
<trkpt lat="46.109420000" lon="7.062910000"><ele></ele><time>2013-7-31T9:52:32Z</time></trkpt>
<trkpt lat="46.109440000" lon="7.062690000"><ele></ele><time>2013-7-31T9:52:35Z</time></trkpt>
<trkpt lat="46.109440000" lon="7.062610000"><ele></ele><time>2013-7-31T9:52:38Z</time></trkpt>
<trkpt lat="46.109450000" lon="7.062390000"><ele></ele><time>2013-7-31T9:52:41Z</time></trkpt>
<trkpt lat="46.109470000" lon="7.062010000"><ele></ele><time>2013-7-31T9:52:44Z</time></trkpt>
<trkpt lat="46.109460000" lon="7.061950000"><ele></ele><time>2013-7-31T9:52:47Z</time></trkpt>
<trkpt lat="46.109460000" lon="7.061890000"><ele></ele><time>2013-7-31T9:52:50Z</time></trkpt>
<trkpt lat="46.109470000" lon="7.061840000"><ele></ele><time>2013-7-31T9:52:53Z</time></trkpt>
<trkpt lat="46.109470000" lon="7.061790000"><ele></ele><time>2013-7-31T9:52:56Z</time></trkpt>
<trkpt lat="46.109490000" lon="7.061630000"><ele></ele><time>2013-7-31T9:52:59Z</time></trkpt>
<trkpt lat="46.109490000" lon="7.061590000"><ele></ele><time>2013-7-31T9:53:2Z</time></trkpt>
<trkpt lat="46.109500000" lon="7.061540000"><ele></ele><time>2013-7-31T9:53:5Z</time></trkpt>
<trkpt lat="46.109500000" lon="7.061490000"><ele></ele><time>2013-7-31T9:53:8Z</time></trkpt>
<trkpt lat="46.109510000" lon="7.061450000"><ele></ele><time>2013-7-31T9:53:11Z</time></trkpt>
<trkpt lat="46.109520000" lon="7.061410000"><ele></ele><time>2013-7-31T9:53:14Z</time></trkpt>
<trkpt lat="46.109570000" lon="7.061280000"><ele></ele><time>2013-7-31T9:53:17Z</time></trkpt>
<trkpt lat="46.109580000" lon="7.061230000"><ele></ele><time>2013-7-31T9:53:20Z</time></trkpt>
<trkpt lat="46.109590000" lon="7.061200000"><ele></ele><time>2013-7-31T9:53:23Z</time></trkpt>
<trkpt lat="46.109610000" lon="7.061170000"><ele></ele><time>2013-7-31T9:53:26Z</time></trkpt>
<trkpt lat="46.109630000" lon="7.061150000"><ele></ele><time>2013-7-31T9:53:29Z</time></trkpt>
<trkpt lat="46.109690000" lon="7.061070000"><ele></ele><time>2013-7-31T9:53:32Z</time></trkpt>
<trkpt lat="46.109710000" lon="7.061040000"><ele></ele><time>2013-7-31T9:53:35Z</time></trkpt>
<trkpt lat="46.109730000" lon="7.061010000"><ele></ele><time>2013-7-31T9:53:38Z</time></trkpt>
<trkpt lat="46.109740000" lon="7.060990000"><ele></ele><time>2013-7-31T9:53:41Z</time></trkpt>
<trkpt lat="46.109760000" lon="7.060950000"><ele></ele><time>2013-7-31T9:53:44Z</time></trkpt>
<trkpt lat="46.109780000" lon="7.060920000"><ele></ele><time>2013-7-31T9:53:47Z</time></trkpt>
<trkpt lat="46.109810000" lon="7.060880000"><ele></ele><time>2013-7-31T9:53:50Z</time></trkpt>
<trkpt lat="46.109850000" lon="7.060820000"><ele></ele><time>2013-7-31T9:53:53Z</time></trkpt>
<trkpt lat="46.109870000" lon="7.060790000"><ele></ele><time>2013-7-31T9:53:56Z</time></trkpt>
<trkpt lat="46.109890000" lon="7.060780000"><ele></ele><time>2013-7-31T9:53:59Z</time></trkpt>
<trkpt lat="46.109910000" lon="7.060750000"><ele></ele><time>2013-7-31T9:54:2Z</time></trkpt>
<trkpt lat="46.110050000" lon="7.060540000"><ele></ele><time>2013-7-31T9:54:5Z</time></trkpt>
<trkpt lat="46.110090000" lon="7.060480000"><ele></ele><time>2013-7-31T9:54:8Z</time></trkpt>
<trkpt lat="46.110110000" lon="7.060460000"><ele></ele><time>2013-7-31T9:54:11Z</time></trkpt>
<trkpt lat="46.110120000" lon="7.060430000"><ele></ele><time>2013-7-31T9:54:14Z</time></trkpt>
<trkpt lat="46.110140000" lon="7.060400000"><ele></ele><time>2013-7-31T9:54:17Z</time></trkpt>
<trkpt lat="46.110150000" lon="7.060370000"><ele></ele><time>2013-7-31T9:54:20Z</time></trkpt>
<trkpt lat="46.110180000" lon="7.060320000"><ele></ele><time>2013-7-31T9:54:23Z</time></trkpt>
<trkpt lat="46.110220000" lon="7.060180000"><ele></ele><time>2013-7-31T9:54:26Z</time></trkpt>
<trkpt lat="46.110240000" lon="7.060140000"><ele></ele><time>2013-7-31T9:54:29Z</time></trkpt>
<trkpt lat="46.110250000" lon="7.060120000"><ele></ele><time>2013-7-31T9:54:32Z</time></trkpt>
<trkpt lat="46.110260000" lon="7.060080000"><ele></ele><time>2013-7-31T9:54:35Z</time></trkpt>
<trkpt lat="46.110290000" lon="7.059940000"><ele></ele><time>2013-7-31T9:54:38Z</time></trkpt>
<trkpt lat="46.110310000" lon="7.059840000"><ele></ele><time>2013-7-31T9:54:41Z</time></trkpt>
<trkpt lat="46.110310000" lon="7.059810000"><ele></ele><time>2013-7-31T9:54:44Z</time></trkpt>
<trkpt lat="46.110320000" lon="7.059770000"><ele></ele><time>2013-7-31T9:54:47Z</time></trkpt>
<trkpt lat="46.110320000" lon="7.059740000"><ele></ele><time>2013-7-31T9:54:50Z</time></trkpt>
<trkpt lat="46.110330000" lon="7.059710000"><ele></ele><time>2013-7-31T9:54:53Z</time></trkpt>
<trkpt lat="46.110360000" lon="7.059450000"><ele></ele><time>2013-7-31T9:54:56Z</time></trkpt>
<trkpt lat="46.110370000" lon="7.059410000"><ele></ele><time>2013-7-31T9:54:59Z</time></trkpt>
<trkpt lat="46.110370000" lon="7.059370000"><ele></ele><time>2013-7-31T9:55:2Z</time></trkpt>
<trkpt lat="46.110380000" lon="7.059340000"><ele></ele><time>2013-7-31T9:55:5Z</time></trkpt>
<trkpt lat="46.110390000" lon="7.059310000"><ele></ele><time>2013-7-31T9:55:8Z</time></trkpt>
<trkpt lat="46.110390000" lon="7.059280000"><ele></ele><time>2013-7-31T9:55:11Z</time></trkpt>
<trkpt lat="46.110400000" lon="7.059180000"><ele></ele><time>2013-7-31T9:55:14Z</time></trkpt>
<trkpt lat="46.110410000" lon="7.059040000"><ele></ele><time>2013-7-31T9:55:17Z</time></trkpt>
<trkpt lat="46.110420000" lon="7.059000000"><ele></ele><time>2013-7-31T9:55:20Z</time></trkpt>
<trkpt lat="46.110420000" lon="7.058960000"><ele></ele><time>2013-7-31T9:55:23Z</time></trkpt>
<trkpt lat="46.110420000" lon="7.058930000"><ele></ele><time>2013-7-31T9:55:26Z</time></trkpt>
<trkpt lat="46.110420000" lon="7.058890000"><ele></ele><time>2013-7-31T9:55:29Z</time></trkpt>
<trkpt lat="46.110470000" lon="7.058600000"><ele></ele><time>2013-7-31T9:55:32Z</time></trkpt>
<trkpt lat="46.110470000" lon="7.058570000"><ele></ele><time>2013-7-31T9:55:35Z</time></trkpt>
<trkpt lat="46.110470000" lon="7.058530000"><ele></ele><time>2013-7-31T9:55:38Z</time></trkpt>
<trkpt lat="46.110480000" lon="7.058500000"><ele></ele><time>2013-7-31T9:55:41Z</time></trkpt>
<trkpt lat="46.110470000" lon="7.058470000"><ele></ele><time>2013-7-31T9:55:44Z</time></trkpt>
<trkpt lat="46.110480000" lon="7.058430000"><ele></ele><time>2013-7-31T9:55:47Z</time></trkpt>
<trkpt lat="46.110490000" lon="7.058170000"><ele></ele><time>2013-7-31T9:55:50Z</time></trkpt>
<trkpt lat="46.110490000" lon="7.058140000"><ele></ele><time>2013-7-31T9:55:53Z</time></trkpt>
<trkpt lat="46.110500000" lon="7.058100000"><ele></ele><time>2013-7-31T9:55:56Z</time></trkpt>
<trkpt lat="46.110500000" lon="7.058060000"><ele></ele><time>2013-7-31T9:55:59Z</time></trkpt>
<trkpt lat="46.110500000" lon="7.058030000"><ele></ele><time>2013-7-31T9:56:2Z</time></trkpt>
<trkpt lat="46.110520000" lon="7.057850000"><ele></ele><time>2013-7-31T9:56:5Z</time></trkpt>
<trkpt lat="46.110530000" lon="7.057820000"><ele></ele><time>2013-7-31T9:56:8Z</time></trkpt>
<trkpt lat="46.110540000" lon="7.057790000"><ele></ele><time>2013-7-31T9:56:11Z</time></trkpt>
<trkpt lat="46.110550000" lon="7.057750000"><ele></ele><time>2013-7-31T9:56:14Z</time></trkpt>
<trkpt lat="46.110560000" lon="7.057720000"><ele></ele><time>2013-7-31T9:56:17Z</time></trkpt>
<trkpt lat="46.110570000" lon="7.057690000"><ele></ele><time>2013-7-31T9:56:20Z</time></trkpt>
<trkpt lat="46.110580000" lon="7.057660000"><ele></ele><time>2013-7-31T9:56:23Z</time></trkpt>
<trkpt lat="46.110580000" lon="7.057630000"><ele></ele><time>2013-7-31T9:56:26Z</time></trkpt>
<trkpt lat="46.110630000" lon="7.057520000"><ele></ele><time>2013-7-31T9:56:29Z</time></trkpt>
<trkpt lat="46.110650000" lon="7.057490000"><ele></ele><time>2013-7-31T9:56:32Z</time></trkpt>
<trkpt lat="46.110670000" lon="7.057460000"><ele></ele><time>2013-7-31T9:56:35Z</time></trkpt>
<trkpt lat="46.110690000" lon="7.057430000"><ele></ele><time>2013-7-31T9:56:38Z</time></trkpt>
<trkpt lat="46.110710000" lon="7.057400000"><ele></ele><time>2013-7-31T9:56:41Z</time></trkpt>
<trkpt lat="46.110800000" lon="7.057250000"><ele></ele><time>2013-7-31T9:56:44Z</time></trkpt>
<trkpt lat="46.110820000" lon="7.057230000"><ele></ele><time>2013-7-31T9:56:47Z</time></trkpt>
<trkpt lat="46.110830000" lon="7.057200000"><ele></ele><time>2013-7-31T9:56:50Z</time></trkpt>
<trkpt lat="46.110840000" lon="7.057190000"><ele></ele><time>2013-7-31T9:56:53Z</time></trkpt>
<trkpt lat="46.110860000" lon="7.057170000"><ele></ele><time>2013-7-31T9:56:56Z</time></trkpt>
<trkpt lat="46.110900000" lon="7.057120000"><ele></ele><time>2013-7-31T9:56:59Z</time></trkpt>
<trkpt lat="46.110910000" lon="7.057090000"><ele></ele><time>2013-7-31T9:57:2Z</time></trkpt>
<trkpt lat="46.110980000" lon="7.057010000"><ele></ele><time>2013-7-31T9:57:5Z</time></trkpt>
<trkpt lat="46.111000000" lon="7.056990000"><ele></ele><time>2013-7-31T9:57:8Z</time></trkpt>
<trkpt lat="46.111020000" lon="7.056970000"><ele></ele><time>2013-7-31T9:57:11Z</time></trkpt>
<trkpt lat="46.111030000" lon="7.056950000"><ele></ele><time>2013-7-31T9:57:14Z</time></trkpt>
<trkpt lat="46.111050000" lon="7.056930000"><ele></ele><time>2013-7-31T9:57:17Z</time></trkpt>
<trkpt lat="46.111100000" lon="7.056860000"><ele></ele><time>2013-7-31T9:57:20Z</time></trkpt>
<trkpt lat="46.111170000" lon="7.056750000"><ele></ele><time>2013-7-31T9:57:23Z</time></trkpt>
<trkpt lat="46.111190000" lon="7.056720000"><ele></ele><time>2013-7-31T9:57:26Z</time></trkpt>
<trkpt lat="46.111210000" lon="7.056700000"><ele></ele><time>2013-7-31T9:57:29Z</time></trkpt>
<trkpt lat="46.111230000" lon="7.056670000"><ele></ele><time>2013-7-31T9:57:32Z</time></trkpt>
<trkpt lat="46.111240000" lon="7.056650000"><ele></ele><time>2013-7-31T9:57:35Z</time></trkpt>
<trkpt lat="46.111290000" lon="7.056570000"><ele></ele><time>2013-7-31T9:57:38Z</time></trkpt>
<trkpt lat="46.111300000" lon="7.056540000"><ele></ele><time>2013-7-31T9:57:41Z</time></trkpt>
<trkpt lat="46.111320000" lon="7.056510000"><ele></ele><time>2013-7-31T9:57:44Z</time></trkpt>
<trkpt lat="46.111360000" lon="7.056450000"><ele></ele><time>2013-7-31T9:57:47Z</time></trkpt>
<trkpt lat="46.111380000" lon="7.056420000"><ele></ele><time>2013-7-31T9:57:50Z</time></trkpt>
<trkpt lat="46.111400000" lon="7.056390000"><ele></ele><time>2013-7-31T9:57:53Z</time></trkpt>
<trkpt lat="46.111420000" lon="7.056370000"><ele></ele><time>2013-7-31T9:57:56Z</time></trkpt>
<trkpt lat="46.111470000" lon="7.056290000"><ele></ele><time>2013-7-31T9:57:59Z</time></trkpt>
<trkpt lat="46.111520000" lon="7.056240000"><ele></ele><time>2013-7-31T9:58:2Z</time></trkpt>
<trkpt lat="46.111540000" lon="7.056220000"><ele></ele><time>2013-7-31T9:58:5Z</time></trkpt>
<trkpt lat="46.111560000" lon="7.056190000"><ele></ele><time>2013-7-31T9:58:8Z</time></trkpt>
<trkpt lat="46.111580000" lon="7.056140000"><ele></ele><time>2013-7-31T9:58:11Z</time></trkpt>
<trkpt lat="46.111600000" lon="7.056110000"><ele></ele><time>2013-7-31T9:58:14Z</time></trkpt>
<trkpt lat="46.111610000" lon="7.056090000"><ele></ele><time>2013-7-31T9:58:17Z</time></trkpt>
<trkpt lat="46.111630000" lon="7.056060000"><ele></ele><time>2013-7-31T9:58:20Z</time></trkpt>
<trkpt lat="46.111650000" lon="7.056030000"><ele></ele><time>2013-7-31T9:58:23Z</time></trkpt>
<trkpt lat="46.111680000" lon="7.056010000"><ele></ele><time>2013-7-31T9:58:26Z</time></trkpt>
<trkpt lat="46.111690000" lon="7.055980000"><ele></ele><time>2013-7-31T9:58:29Z</time></trkpt>
<trkpt lat="46.111750000" lon="7.055880000"><ele></ele><time>2013-7-31T9:58:32Z</time></trkpt>
<trkpt lat="46.111770000" lon="7.055830000"><ele></ele><time>2013-7-31T9:58:35Z</time></trkpt>
<trkpt lat="46.111790000" lon="7.055800000"><ele></ele><time>2013-7-31T9:58:38Z</time></trkpt>
<trkpt lat="46.111810000" lon="7.055780000"><ele></ele><time>2013-7-31T9:58:41Z</time></trkpt>
<trkpt lat="46.111830000" lon="7.055750000"><ele></ele><time>2013-7-31T9:58:44Z</time></trkpt>
<trkpt lat="46.111900000" lon="7.055650000"><ele></ele><time>2013-7-31T9:58:47Z</time></trkpt>
<trkpt lat="46.111960000" lon="7.055540000"><ele></ele><time>2013-7-31T9:58:50Z</time></trkpt>
<trkpt lat="46.111980000" lon="7.055510000"><ele></ele><time>2013-7-31T9:58:53Z</time></trkpt>
<trkpt lat="46.111990000" lon="7.055480000"><ele></ele><time>2013-7-31T9:58:56Z</time></trkpt>
<trkpt lat="46.112010000" lon="7.055460000"><ele></ele><time>2013-7-31T9:58:59Z</time></trkpt>
<trkpt lat="46.112030000" lon="7.055440000"><ele></ele><time>2013-7-31T9:59:2Z</time></trkpt>
<trkpt lat="46.112080000" lon="7.055350000"><ele></ele><time>2013-7-31T9:59:5Z</time></trkpt>
<trkpt lat="46.112090000" lon="7.055330000"><ele></ele><time>2013-7-31T9:59:8Z</time></trkpt>
<trkpt lat="46.112120000" lon="7.055270000"><ele></ele><time>2013-7-31T9:59:11Z</time></trkpt>
<trkpt lat="46.112130000" lon="7.055240000"><ele></ele><time>2013-7-31T9:59:14Z</time></trkpt>
<trkpt lat="46.112140000" lon="7.055220000"><ele></ele><time>2013-7-31T9:59:17Z</time></trkpt>
<trkpt lat="46.112160000" lon="7.055180000"><ele></ele><time>2013-7-31T9:59:20Z</time></trkpt>
<trkpt lat="46.112170000" lon="7.055150000"><ele></ele><time>2013-7-31T9:59:23Z</time></trkpt>
<trkpt lat="46.112190000" lon="7.055120000"><ele></ele><time>2013-7-31T9:59:26Z</time></trkpt>
<trkpt lat="46.112200000" lon="7.055090000"><ele></ele><time>2013-7-31T9:59:29Z</time></trkpt>
<trkpt lat="46.112210000" lon="7.055070000"><ele></ele><time>2013-7-31T9:59:32Z</time></trkpt>
<trkpt lat="46.112280000" lon="7.054930000"><ele></ele><time>2013-7-31T9:59:35Z</time></trkpt>
<trkpt lat="46.112290000" lon="7.054900000"><ele></ele><time>2013-7-31T9:59:38Z</time></trkpt>
<trkpt lat="46.112310000" lon="7.054880000"><ele></ele><time>2013-7-31T9:59:41Z</time></trkpt>
<trkpt lat="46.112330000" lon="7.054840000"><ele></ele><time>2013-7-31T9:59:44Z</time></trkpt>
<trkpt lat="46.112350000" lon="7.054820000"><ele></ele><time>2013-7-31T9:59:47Z</time></trkpt>
<trkpt lat="46.112410000" lon="7.054710000"><ele></ele><time>2013-7-31T9:59:50Z</time></trkpt>
<trkpt lat="46.112450000" lon="7.054670000"><ele></ele><time>2013-7-31T9:59:53Z</time></trkpt>
<trkpt lat="46.112460000" lon="7.054630000"><ele></ele><time>2013-7-31T9:59:56Z</time></trkpt>
<trkpt lat="46.112480000" lon="7.054600000"><ele></ele><time>2013-7-31T9:59:59Z</time></trkpt>
<trkpt lat="46.112490000" lon="7.054570000"><ele></ele><time>2013-7-31T10:0:2Z</time></trkpt>
<trkpt lat="46.112510000" lon="7.054540000"><ele></ele><time>2013-7-31T10:0:5Z</time></trkpt>
<trkpt lat="46.112520000" lon="7.054520000"><ele></ele><time>2013-7-31T10:0:8Z</time></trkpt>
<trkpt lat="46.112530000" lon="7.054490000"><ele></ele><time>2013-7-31T10:0:11Z</time></trkpt>
<trkpt lat="46.112550000" lon="7.054470000"><ele></ele><time>2013-7-31T10:0:14Z</time></trkpt>
<trkpt lat="46.112560000" lon="7.054430000"><ele></ele><time>2013-7-31T10:0:17Z</time></trkpt>
<trkpt lat="46.112560000" lon="7.054400000"><ele></ele><time>2013-7-31T10:0:20Z</time></trkpt>
<trkpt lat="46.112580000" lon="7.054350000"><ele></ele><time>2013-7-31T10:0:23Z</time></trkpt>
<trkpt lat="46.112590000" lon="7.054310000"><ele></ele><time>2013-7-31T10:0:26Z</time></trkpt>
<trkpt lat="46.112600000" lon="7.054250000"><ele></ele><time>2013-7-31T10:0:29Z</time></trkpt>
<trkpt lat="46.112610000" lon="7.054220000"><ele></ele><time>2013-7-31T10:0:32Z</time></trkpt>
<trkpt lat="46.112620000" lon="7.054190000"><ele></ele><time>2013-7-31T10:0:35Z</time></trkpt>
<trkpt lat="46.112630000" lon="7.054160000"><ele></ele><time>2013-7-31T10:0:38Z</time></trkpt>
<trkpt lat="46.112640000" lon="7.054120000"><ele></ele><time>2013-7-31T10:0:41Z</time></trkpt>
<trkpt lat="46.112640000" lon="7.054090000"><ele></ele><time>2013-7-31T10:0:44Z</time></trkpt>
<trkpt lat="46.112660000" lon="7.054020000"><ele></ele><time>2013-7-31T10:0:47Z</time></trkpt>
<trkpt lat="46.112660000" lon="7.053990000"><ele></ele><time>2013-7-31T10:0:50Z</time></trkpt>
<trkpt lat="46.112680000" lon="7.053890000"><ele></ele><time>2013-7-31T10:0:53Z</time></trkpt>
<trkpt lat="46.112690000" lon="7.053860000"><ele></ele><time>2013-7-31T10:0:56Z</time></trkpt>
<trkpt lat="46.112700000" lon="7.053820000"><ele></ele><time>2013-7-31T10:0:59Z</time></trkpt>
<trkpt lat="46.112710000" lon="7.053790000"><ele></ele><time>2013-7-31T10:1:2Z</time></trkpt>
<trkpt lat="46.112710000" lon="7.053760000"><ele></ele><time>2013-7-31T10:1:5Z</time></trkpt>
<trkpt lat="46.112720000" lon="7.053720000"><ele></ele><time>2013-7-31T10:1:8Z</time></trkpt>
<trkpt lat="46.112720000" lon="7.053690000"><ele></ele><time>2013-7-31T10:1:11Z</time></trkpt>
<trkpt lat="46.112740000" lon="7.053590000"><ele></ele><time>2013-7-31T10:1:14Z</time></trkpt>
<trkpt lat="46.112750000" lon="7.053530000"><ele></ele><time>2013-7-31T10:1:17Z</time></trkpt>
<trkpt lat="46.112750000" lon="7.053500000"><ele></ele><time>2013-7-31T10:1:20Z</time></trkpt>
<trkpt lat="46.112760000" lon="7.053470000"><ele></ele><time>2013-7-31T10:1:23Z</time></trkpt>
<trkpt lat="46.112770000" lon="7.053440000"><ele></ele><time>2013-7-31T10:1:26Z</time></trkpt>
<trkpt lat="46.112770000" lon="7.053400000"><ele></ele><time>2013-7-31T10:1:29Z</time></trkpt>
<trkpt lat="46.112780000" lon="7.053370000"><ele></ele><time>2013-7-31T10:1:32Z</time></trkpt>
<trkpt lat="46.112820000" lon="7.053180000"><ele></ele><time>2013-7-31T10:1:35Z</time></trkpt>
<trkpt lat="46.112820000" lon="7.053150000"><ele></ele><time>2013-7-31T10:1:38Z</time></trkpt>
<trkpt lat="46.112830000" lon="7.053110000"><ele></ele><time>2013-7-31T10:1:41Z</time></trkpt>
<trkpt lat="46.112830000" lon="7.053080000"><ele></ele><time>2013-7-31T10:1:44Z</time></trkpt>
<trkpt lat="46.112840000" lon="7.053040000"><ele></ele><time>2013-7-31T10:1:47Z</time></trkpt>
<trkpt lat="46.112850000" lon="7.053010000"><ele></ele><time>2013-7-31T10:1:50Z</time></trkpt>
<trkpt lat="46.112880000" lon="7.052920000"><ele></ele><time>2013-7-31T10:1:53Z</time></trkpt>
<trkpt lat="46.112920000" lon="7.052800000"><ele></ele><time>2013-7-31T10:1:56Z</time></trkpt>
<trkpt lat="46.112940000" lon="7.052770000"><ele></ele><time>2013-7-31T10:1:59Z</time></trkpt>
<trkpt lat="46.112950000" lon="7.052740000"><ele></ele><time>2013-7-31T10:2:2Z</time></trkpt>
<trkpt lat="46.112960000" lon="7.052710000"><ele></ele><time>2013-7-31T10:2:5Z</time></trkpt>
<trkpt lat="46.112970000" lon="7.052680000"><ele></ele><time>2013-7-31T10:2:8Z</time></trkpt>
<trkpt lat="46.113030000" lon="7.052530000"><ele></ele><time>2013-7-31T10:2:11Z</time></trkpt>
<trkpt lat="46.113060000" lon="7.052460000"><ele></ele><time>2013-7-31T10:2:14Z</time></trkpt>
<trkpt lat="46.113080000" lon="7.052430000"><ele></ele><time>2013-7-31T10:2:17Z</time></trkpt>
<trkpt lat="46.113100000" lon="7.052410000"><ele></ele><time>2013-7-31T10:2:20Z</time></trkpt>
<trkpt lat="46.113120000" lon="7.052390000"><ele></ele><time>2013-7-31T10:2:23Z</time></trkpt>
<trkpt lat="46.113130000" lon="7.052370000"><ele></ele><time>2013-7-31T10:2:26Z</time></trkpt>
<trkpt lat="46.113220000" lon="7.052210000"><ele></ele><time>2013-7-31T10:2:29Z</time></trkpt>
<trkpt lat="46.113240000" lon="7.052150000"><ele></ele><time>2013-7-31T10:2:32Z</time></trkpt>
<trkpt lat="46.113250000" lon="7.052120000"><ele></ele><time>2013-7-31T10:2:35Z</time></trkpt>
<trkpt lat="46.113260000" lon="7.052100000"><ele></ele><time>2013-7-31T10:2:38Z</time></trkpt>
<trkpt lat="46.113270000" lon="7.052080000"><ele></ele><time>2013-7-31T10:2:41Z</time></trkpt>
<trkpt lat="46.113290000" lon="7.052060000"><ele></ele><time>2013-7-31T10:2:44Z</time></trkpt>
<trkpt lat="46.113370000" lon="7.051950000"><ele></ele><time>2013-7-31T10:2:47Z</time></trkpt>
<trkpt lat="46.113390000" lon="7.051910000"><ele></ele><time>2013-7-31T10:2:50Z</time></trkpt>
<trkpt lat="46.113400000" lon="7.051890000"><ele></ele><time>2013-7-31T10:2:53Z</time></trkpt>
<trkpt lat="46.113410000" lon="7.051880000"><ele></ele><time>2013-7-31T10:2:56Z</time></trkpt>
<trkpt lat="46.113430000" lon="7.051860000"><ele></ele><time>2013-7-31T10:2:59Z</time></trkpt>
<trkpt lat="46.113440000" lon="7.051840000"><ele></ele><time>2013-7-31T10:3:2Z</time></trkpt>
<trkpt lat="46.113540000" lon="7.051640000"><ele></ele><time>2013-7-31T10:3:5Z</time></trkpt>
<trkpt lat="46.113560000" lon="7.051620000"><ele></ele><time>2013-7-31T10:3:8Z</time></trkpt>
<trkpt lat="46.113560000" lon="7.051590000"><ele></ele><time>2013-7-31T10:3:11Z</time></trkpt>
<trkpt lat="46.113580000" lon="7.051570000"><ele></ele><time>2013-7-31T10:3:14Z</time></trkpt>
<trkpt lat="46.113590000" lon="7.051530000"><ele></ele><time>2013-7-31T10:3:17Z</time></trkpt>
<trkpt lat="46.113620000" lon="7.051480000"><ele></ele><time>2013-7-31T10:3:20Z</time></trkpt>
<trkpt lat="46.113700000" lon="7.051230000"><ele></ele><time>2013-7-31T10:3:23Z</time></trkpt>
<trkpt lat="46.113710000" lon="7.051190000"><ele></ele><time>2013-7-31T10:3:26Z</time></trkpt>
<trkpt lat="46.113720000" lon="7.051160000"><ele></ele><time>2013-7-31T10:3:29Z</time></trkpt>
<trkpt lat="46.113730000" lon="7.051130000"><ele></ele><time>2013-7-31T10:3:32Z</time></trkpt>
<trkpt lat="46.113740000" lon="7.051100000"><ele></ele><time>2013-7-31T10:3:35Z</time></trkpt>
<trkpt lat="46.113810000" lon="7.050950000"><ele></ele><time>2013-7-31T10:3:38Z</time></trkpt>
<trkpt lat="46.113880000" lon="7.050830000"><ele></ele><time>2013-7-31T10:3:41Z</time></trkpt>
<trkpt lat="46.113900000" lon="7.050820000"><ele></ele><time>2013-7-31T10:3:44Z</time></trkpt>
<trkpt lat="46.113930000" lon="7.050800000"><ele></ele><time>2013-7-31T10:3:47Z</time></trkpt>
<trkpt lat="46.113940000" lon="7.050780000"><ele></ele><time>2013-7-31T10:3:50Z</time></trkpt>
<trkpt lat="46.113960000" lon="7.050770000"><ele></ele><time>2013-7-31T10:3:53Z</time></trkpt>
<trkpt lat="46.114030000" lon="7.050740000"><ele></ele><time>2013-7-31T10:3:56Z</time></trkpt>
<trkpt lat="46.114060000" lon="7.050720000"><ele></ele><time>2013-7-31T10:3:59Z</time></trkpt>
<trkpt lat="46.114070000" lon="7.050710000"><ele></ele><time>2013-7-31T10:4:2Z</time></trkpt>
<trkpt lat="46.114080000" lon="7.050700000"><ele></ele><time>2013-7-31T10:4:5Z</time></trkpt>
<trkpt lat="46.114090000" lon="7.050690000"><ele></ele><time>2013-7-31T10:4:8Z</time></trkpt>
<trkpt lat="46.114110000" lon="7.050680000"><ele></ele><time>2013-7-31T10:4:11Z</time></trkpt>
<trkpt lat="46.114160000" lon="7.050640000"><ele></ele><time>2013-7-31T10:4:14Z</time></trkpt>
<trkpt lat="46.114220000" lon="7.050620000"><ele></ele><time>2013-7-31T10:4:17Z</time></trkpt>
<trkpt lat="46.114250000" lon="7.050610000"><ele></ele><time>2013-7-31T10:4:20Z</time></trkpt>
<trkpt lat="46.114280000" lon="7.050600000"><ele></ele><time>2013-7-31T10:4:23Z</time></trkpt>
<trkpt lat="46.114300000" lon="7.050590000"><ele></ele><time>2013-7-31T10:4:26Z</time></trkpt>
<trkpt lat="46.114330000" lon="7.050590000"><ele></ele><time>2013-7-31T10:4:29Z</time></trkpt>
<trkpt lat="46.114380000" lon="7.050560000"><ele></ele><time>2013-7-31T10:4:32Z</time></trkpt>
<trkpt lat="46.114510000" lon="7.050510000"><ele></ele><time>2013-7-31T10:4:35Z</time></trkpt>
<trkpt lat="46.114530000" lon="7.050490000"><ele></ele><time>2013-7-31T10:4:38Z</time></trkpt>
<trkpt lat="46.114550000" lon="7.050480000"><ele></ele><time>2013-7-31T10:4:41Z</time></trkpt>
<trkpt lat="46.114570000" lon="7.050470000"><ele></ele><time>2013-7-31T10:4:44Z</time></trkpt>
<trkpt lat="46.114590000" lon="7.050460000"><ele></ele><time>2013-7-31T10:4:47Z</time></trkpt>
<trkpt lat="46.114600000" lon="7.050450000"><ele></ele><time>2013-7-31T10:4:50Z</time></trkpt>
<trkpt lat="46.114620000" lon="7.050430000"><ele></ele><time>2013-7-31T10:4:53Z</time></trkpt>
<trkpt lat="46.114770000" lon="7.050340000"><ele></ele><time>2013-7-31T10:4:56Z</time></trkpt>
<trkpt lat="46.114780000" lon="7.050330000"><ele></ele><time>2013-7-31T10:4:59Z</time></trkpt>
<trkpt lat="46.114810000" lon="7.050310000"><ele></ele><time>2013-7-31T10:5:2Z</time></trkpt>
<trkpt lat="46.114830000" lon="7.050300000"><ele></ele><time>2013-7-31T10:5:5Z</time></trkpt>
<trkpt lat="46.114850000" lon="7.050290000"><ele></ele><time>2013-7-31T10:5:8Z</time></trkpt>
<trkpt lat="46.114930000" lon="7.050220000"><ele></ele><time>2013-7-31T10:5:11Z</time></trkpt>
<trkpt lat="46.115030000" lon="7.050130000"><ele></ele><time>2013-7-31T10:5:14Z</time></trkpt>
<trkpt lat="46.115050000" lon="7.050110000"><ele></ele><time>2013-7-31T10:5:17Z</time></trkpt>
<trkpt lat="46.115070000" lon="7.050090000"><ele></ele><time>2013-7-31T10:5:20Z</time></trkpt>
<trkpt lat="46.115080000" lon="7.050070000"><ele></ele><time>2013-7-31T10:5:23Z</time></trkpt>
<trkpt lat="46.115100000" lon="7.050050000"><ele></ele><time>2013-7-31T10:5:26Z</time></trkpt>
<trkpt lat="46.115190000" lon="7.049940000"><ele></ele><time>2013-7-31T10:5:29Z</time></trkpt>
<trkpt lat="46.115250000" lon="7.049880000"><ele></ele><time>2013-7-31T10:5:32Z</time></trkpt>
<trkpt lat="46.115260000" lon="7.049850000"><ele></ele><time>2013-7-31T10:5:35Z</time></trkpt>
<trkpt lat="46.115280000" lon="7.049820000"><ele></ele><time>2013-7-31T10:5:38Z</time></trkpt>
<trkpt lat="46.115300000" lon="7.049800000"><ele></ele><time>2013-7-31T10:5:41Z</time></trkpt>
<trkpt lat="46.115310000" lon="7.049770000"><ele></ele><time>2013-7-31T10:5:44Z</time></trkpt>
<trkpt lat="46.115400000" lon="7.049600000"><ele></ele><time>2013-7-31T10:5:47Z</time></trkpt>
<trkpt lat="46.115470000" lon="7.049500000"><ele></ele><time>2013-7-31T10:5:50Z</time></trkpt>
<trkpt lat="46.115480000" lon="7.049470000"><ele></ele><time>2013-7-31T10:5:53Z</time></trkpt>
<trkpt lat="46.115500000" lon="7.049440000"><ele></ele><time>2013-7-31T10:5:56Z</time></trkpt>
<trkpt lat="46.115510000" lon="7.049410000"><ele></ele><time>2013-7-31T10:5:59Z</time></trkpt>
<trkpt lat="46.115520000" lon="7.049390000"><ele></ele><time>2013-7-31T10:6:2Z</time></trkpt>
<trkpt lat="46.115540000" lon="7.049370000"><ele></ele><time>2013-7-31T10:6:5Z</time></trkpt>
<trkpt lat="46.115650000" lon="7.049210000"><ele></ele><time>2013-7-31T10:6:8Z</time></trkpt>
<trkpt lat="46.115660000" lon="7.049190000"><ele></ele><time>2013-7-31T10:6:11Z</time></trkpt>
<trkpt lat="46.115680000" lon="7.049160000"><ele></ele><time>2013-7-31T10:6:14Z</time></trkpt>
<trkpt lat="46.115700000" lon="7.049140000"><ele></ele><time>2013-7-31T10:6:17Z</time></trkpt>
<trkpt lat="46.115760000" lon="7.049040000"><ele></ele><time>2013-7-31T10:6:20Z</time></trkpt>
<trkpt lat="46.115840000" lon="7.048920000"><ele></ele><time>2013-7-31T10:6:23Z</time></trkpt>
<trkpt lat="46.115860000" lon="7.048900000"><ele></ele><time>2013-7-31T10:6:26Z</time></trkpt>
<trkpt lat="46.115880000" lon="7.048880000"><ele></ele><time>2013-7-31T10:6:29Z</time></trkpt>
<trkpt lat="46.115900000" lon="7.048860000"><ele></ele><time>2013-7-31T10:6:32Z</time></trkpt>
<trkpt lat="46.115920000" lon="7.048830000"><ele></ele><time>2013-7-31T10:6:35Z</time></trkpt>
<trkpt lat="46.116010000" lon="7.048720000"><ele></ele><time>2013-7-31T10:6:38Z</time></trkpt>
<trkpt lat="46.116020000" lon="7.048700000"><ele></ele><time>2013-7-31T10:6:41Z</time></trkpt>
<trkpt lat="46.116040000" lon="7.048680000"><ele></ele><time>2013-7-31T10:6:44Z</time></trkpt>
<trkpt lat="46.116050000" lon="7.048660000"><ele></ele><time>2013-7-31T10:6:47Z</time></trkpt>
<trkpt lat="46.116070000" lon="7.048630000"><ele></ele><time>2013-7-31T10:6:50Z</time></trkpt>
<trkpt lat="46.116090000" lon="7.048610000"><ele></ele><time>2013-7-31T10:6:53Z</time></trkpt>
<trkpt lat="46.116110000" lon="7.048590000"><ele></ele><time>2013-7-31T10:6:56Z</time></trkpt>
<trkpt lat="46.116210000" lon="7.048420000"><ele></ele><time>2013-7-31T10:6:59Z</time></trkpt>
<trkpt lat="46.116220000" lon="7.048390000"><ele></ele><time>2013-7-31T10:7:2Z</time></trkpt>
<trkpt lat="46.116230000" lon="7.048360000"><ele></ele><time>2013-7-31T10:7:5Z</time></trkpt>
<trkpt lat="46.116250000" lon="7.048330000"><ele></ele><time>2013-7-31T10:7:8Z</time></trkpt>
<trkpt lat="46.116260000" lon="7.048300000"><ele></ele><time>2013-7-31T10:7:11Z</time></trkpt>
<trkpt lat="46.116320000" lon="7.048180000"><ele></ele><time>2013-7-31T10:7:14Z</time></trkpt>
<trkpt lat="46.116350000" lon="7.048110000"><ele></ele><time>2013-7-31T10:7:17Z</time></trkpt>
<trkpt lat="46.116370000" lon="7.048090000"><ele></ele><time>2013-7-31T10:7:20Z</time></trkpt>
<trkpt lat="46.116390000" lon="7.048060000"><ele></ele><time>2013-7-31T10:7:23Z</time></trkpt>
<trkpt lat="46.116410000" lon="7.048030000"><ele></ele><time>2013-7-31T10:7:26Z</time></trkpt>
<trkpt lat="46.116430000" lon="7.048010000"><ele></ele><time>2013-7-31T10:7:29Z</time></trkpt>
<trkpt lat="46.116450000" lon="7.047990000"><ele></ele><time>2013-7-31T10:7:32Z</time></trkpt>
<trkpt lat="46.116540000" lon="7.047930000"><ele></ele><time>2013-7-31T10:7:35Z</time></trkpt>
<trkpt lat="46.116580000" lon="7.047910000"><ele></ele><time>2013-7-31T10:7:38Z</time></trkpt>
<trkpt lat="46.116600000" lon="7.047910000"><ele></ele><time>2013-7-31T10:7:41Z</time></trkpt>
<trkpt lat="46.116630000" lon="7.047910000"><ele></ele><time>2013-7-31T10:7:44Z</time></trkpt>
<trkpt lat="46.116650000" lon="7.047900000"><ele></ele><time>2013-7-31T10:7:47Z</time></trkpt>
<trkpt lat="46.116670000" lon="7.047900000"><ele></ele><time>2013-7-31T10:7:50Z</time></trkpt>
<trkpt lat="46.116700000" lon="7.047900000"><ele></ele><time>2013-7-31T10:7:53Z</time></trkpt>
<trkpt lat="46.116800000" lon="7.047860000"><ele></ele><time>2013-7-31T10:7:56Z</time></trkpt>
<trkpt lat="46.116830000" lon="7.047850000"><ele></ele><time>2013-7-31T10:7:59Z</time></trkpt>
<trkpt lat="46.116870000" lon="7.047830000"><ele></ele><time>2013-7-31T10:8:2Z</time></trkpt>
<trkpt lat="46.116890000" lon="7.047820000"><ele></ele><time>2013-7-31T10:8:5Z</time></trkpt>
<trkpt lat="46.116910000" lon="7.047810000"><ele></ele><time>2013-7-31T10:8:8Z</time></trkpt>
<trkpt lat="46.116920000" lon="7.047790000"><ele></ele><time>2013-7-31T10:8:11Z</time></trkpt>
<trkpt lat="46.116940000" lon="7.047780000"><ele></ele><time>2013-7-31T10:8:14Z</time></trkpt>
<trkpt lat="46.116980000" lon="7.047750000"><ele></ele><time>2013-7-31T10:8:17Z</time></trkpt>
<trkpt lat="46.117050000" lon="7.047690000"><ele></ele><time>2013-7-31T10:8:20Z</time></trkpt>
<trkpt lat="46.117050000" lon="7.047670000"><ele></ele><time>2013-7-31T10:8:23Z</time></trkpt>
<trkpt lat="46.117060000" lon="7.047650000"><ele></ele><time>2013-7-31T10:8:26Z</time></trkpt>
<trkpt lat="46.117070000" lon="7.047630000"><ele></ele><time>2013-7-31T10:8:29Z</time></trkpt>
<trkpt lat="46.117070000" lon="7.047610000"><ele></ele><time>2013-7-31T10:8:32Z</time></trkpt>
<trkpt lat="46.117070000" lon="7.047580000"><ele></ele><time>2013-7-31T10:8:35Z</time></trkpt>
<trkpt lat="46.117080000" lon="7.047540000"><ele></ele><time>2013-7-31T10:8:38Z</time></trkpt>
<trkpt lat="46.117090000" lon="7.047510000"><ele></ele><time>2013-7-31T10:8:41Z</time></trkpt>
<trkpt lat="46.117100000" lon="7.047500000"><ele></ele><time>2013-7-31T10:8:44Z</time></trkpt>
<trkpt lat="46.117100000" lon="7.047500000"><ele></ele><time>2013-7-31T10:8:47Z</time></trkpt>
<trkpt lat="46.117100000" lon="7.047500000"><ele></ele><time>2013-7-31T10:8:50Z</time></trkpt>
<trkpt lat="46.117100000" lon="7.047500000"><ele></ele><time>2013-7-31T10:8:53Z</time></trkpt>
<trkpt lat="46.117120000" lon="7.047460000"><ele></ele><time>2013-7-31T10:8:56Z</time></trkpt>
<trkpt lat="46.117160000" lon="7.047310000"><ele></ele><time>2013-7-31T10:8:59Z</time></trkpt>
<trkpt lat="46.117240000" lon="7.047080000"><ele></ele><time>2013-7-31T10:9:2Z</time></trkpt>
<trkpt lat="46.117310000" lon="7.046900000"><ele></ele><time>2013-7-31T10:9:5Z</time></trkpt>
<trkpt lat="46.117320000" lon="7.046860000"><ele></ele><time>2013-7-31T10:9:8Z</time></trkpt>
<trkpt lat="46.117340000" lon="7.046820000"><ele></ele><time>2013-7-31T10:9:11Z</time></trkpt>
<trkpt lat="46.117360000" lon="7.046790000"><ele></ele><time>2013-7-31T10:9:14Z</time></trkpt>
<trkpt lat="46.117370000" lon="7.046750000"><ele></ele><time>2013-7-31T10:9:17Z</time></trkpt>
<trkpt lat="46.117380000" lon="7.046710000"><ele></ele><time>2013-7-31T10:9:20Z</time></trkpt>
<trkpt lat="46.117430000" lon="7.046530000"><ele></ele><time>2013-7-31T10:9:23Z</time></trkpt>
<trkpt lat="46.117440000" lon="7.046490000"><ele></ele><time>2013-7-31T10:9:26Z</time></trkpt>
<trkpt lat="46.117450000" lon="7.046440000"><ele></ele><time>2013-7-31T10:9:29Z</time></trkpt>
<trkpt lat="46.117460000" lon="7.046400000"><ele></ele><time>2013-7-31T10:9:32Z</time></trkpt>
<trkpt lat="46.117470000" lon="7.046360000"><ele></ele><time>2013-7-31T10:9:35Z</time></trkpt>
<trkpt lat="46.117530000" lon="7.046190000"><ele></ele><time>2013-7-31T10:9:38Z</time></trkpt>
<trkpt lat="46.117550000" lon="7.046160000"><ele></ele><time>2013-7-31T10:9:41Z</time></trkpt>
<trkpt lat="46.117570000" lon="7.046120000"><ele></ele><time>2013-7-31T10:9:44Z</time></trkpt>
<trkpt lat="46.117580000" lon="7.046080000"><ele></ele><time>2013-7-31T10:9:47Z</time></trkpt>
<trkpt lat="46.117600000" lon="7.046040000"><ele></ele><time>2013-7-31T10:9:50Z</time></trkpt>
<trkpt lat="46.117650000" lon="7.045980000"><ele></ele><time>2013-7-31T10:9:53Z</time></trkpt>
<trkpt lat="46.117700000" lon="7.045930000"><ele></ele><time>2013-7-31T10:9:56Z</time></trkpt>
<trkpt lat="46.117730000" lon="7.045900000"><ele></ele><time>2013-7-31T10:9:59Z</time></trkpt>
<trkpt lat="46.117760000" lon="7.045870000"><ele></ele><time>2013-7-31T10:10:2Z</time></trkpt>
<trkpt lat="46.117780000" lon="7.045840000"><ele></ele><time>2013-7-31T10:10:5Z</time></trkpt>
<trkpt lat="46.117890000" lon="7.045740000"><ele></ele><time>2013-7-31T10:10:8Z</time></trkpt>
<trkpt lat="46.117910000" lon="7.045710000"><ele></ele><time>2013-7-31T10:10:11Z</time></trkpt>
<trkpt lat="46.117940000" lon="7.045680000"><ele></ele><time>2013-7-31T10:10:14Z</time></trkpt>
<trkpt lat="46.117960000" lon="7.045660000"><ele></ele><time>2013-7-31T10:10:17Z</time></trkpt>
<trkpt lat="46.117980000" lon="7.045630000"><ele></ele><time>2013-7-31T10:10:20Z</time></trkpt>
<trkpt lat="46.118010000" lon="7.045600000"><ele></ele><time>2013-7-31T10:10:23Z</time></trkpt>
<trkpt lat="46.118050000" lon="7.045540000"><ele></ele><time>2013-7-31T10:10:26Z</time></trkpt>
<trkpt lat="46.118150000" lon="7.045420000"><ele></ele><time>2013-7-31T10:10:29Z</time></trkpt>
<trkpt lat="46.118180000" lon="7.045390000"><ele></ele><time>2013-7-31T10:10:32Z</time></trkpt>
<trkpt lat="46.118200000" lon="7.045360000"><ele></ele><time>2013-7-31T10:10:35Z</time></trkpt>
<trkpt lat="46.118220000" lon="7.045330000"><ele></ele><time>2013-7-31T10:10:38Z</time></trkpt>
<trkpt lat="46.118240000" lon="7.045300000"><ele></ele><time>2013-7-31T10:10:41Z</time></trkpt>
<trkpt lat="46.118320000" lon="7.045180000"><ele></ele><time>2013-7-31T10:10:44Z</time></trkpt>
<trkpt lat="46.118350000" lon="7.045160000"><ele></ele><time>2013-7-31T10:10:47Z</time></trkpt>
<trkpt lat="46.118370000" lon="7.045130000"><ele></ele><time>2013-7-31T10:10:50Z</time></trkpt>
<trkpt lat="46.118390000" lon="7.045110000"><ele></ele><time>2013-7-31T10:10:53Z</time></trkpt>
<trkpt lat="46.118410000" lon="7.045080000"><ele></ele><time>2013-7-31T10:10:56Z</time></trkpt>
<trkpt lat="46.118520000" lon="7.044940000"><ele></ele><time>2013-7-31T10:10:59Z</time></trkpt>
<trkpt lat="46.118560000" lon="7.044890000"><ele></ele><time>2013-7-31T10:11:2Z</time></trkpt>
<trkpt lat="46.118580000" lon="7.044870000"><ele></ele><time>2013-7-31T10:11:5Z</time></trkpt>
<trkpt lat="46.118600000" lon="7.044840000"><ele></ele><time>2013-7-31T10:11:8Z</time></trkpt>
<trkpt lat="46.118610000" lon="7.044820000"><ele></ele><time>2013-7-31T10:11:11Z</time></trkpt>
<trkpt lat="46.118630000" lon="7.044790000"><ele></ele><time>2013-7-31T10:11:14Z</time></trkpt>
<trkpt lat="46.118740000" lon="7.044660000"><ele></ele><time>2013-7-31T10:11:17Z</time></trkpt>
<trkpt lat="46.118760000" lon="7.044630000"><ele></ele><time>2013-7-31T10:11:20Z</time></trkpt>
<trkpt lat="46.118770000" lon="7.044600000"><ele></ele><time>2013-7-31T10:11:23Z</time></trkpt>
<trkpt lat="46.118790000" lon="7.044580000"><ele></ele><time>2013-7-31T10:11:26Z</time></trkpt>
<trkpt lat="46.118880000" lon="7.044470000"><ele></ele><time>2013-7-31T10:11:29Z</time></trkpt>
<trkpt lat="46.118920000" lon="7.044420000"><ele></ele><time>2013-7-31T10:11:32Z</time></trkpt>
<trkpt lat="46.118940000" lon="7.044400000"><ele></ele><time>2013-7-31T10:11:35Z</time></trkpt>
<trkpt lat="46.118950000" lon="7.044370000"><ele></ele><time>2013-7-31T10:11:38Z</time></trkpt>
<trkpt lat="46.118970000" lon="7.044350000"><ele></ele><time>2013-7-31T10:11:41Z</time></trkpt>
<trkpt lat="46.118990000" lon="7.044320000"><ele></ele><time>2013-7-31T10:11:44Z</time></trkpt>
<trkpt lat="46.119110000" lon="7.044180000"><ele></ele><time>2013-7-31T10:11:47Z</time></trkpt>
<trkpt lat="46.119130000" lon="7.044160000"><ele></ele><time>2013-7-31T10:11:50Z</time></trkpt>
<trkpt lat="46.119150000" lon="7.044130000"><ele></ele><time>2013-7-31T10:11:53Z</time></trkpt>
<trkpt lat="46.119170000" lon="7.044110000"><ele></ele><time>2013-7-31T10:11:56Z</time></trkpt>
<trkpt lat="46.119190000" lon="7.044090000"><ele></ele><time>2013-7-31T10:11:59Z</time></trkpt>
<trkpt lat="46.119210000" lon="7.044070000"><ele></ele><time>2013-7-31T10:12:2Z</time></trkpt>
<trkpt lat="46.119230000" lon="7.044040000"><ele></ele><time>2013-7-31T10:12:5Z</time></trkpt>
<trkpt lat="46.119340000" lon="7.043950000"><ele></ele><time>2013-7-31T10:12:8Z</time></trkpt>
<trkpt lat="46.119360000" lon="7.043930000"><ele></ele><time>2013-7-31T10:12:11Z</time></trkpt>
<trkpt lat="46.119380000" lon="7.043910000"><ele></ele><time>2013-7-31T10:12:14Z</time></trkpt>
<trkpt lat="46.119400000" lon="7.043890000"><ele></ele><time>2013-7-31T10:12:17Z</time></trkpt>
<trkpt lat="46.119420000" lon="7.043870000"><ele></ele><time>2013-7-31T10:12:20Z</time></trkpt>
<trkpt lat="46.119490000" lon="7.043800000"><ele></ele><time>2013-7-31T10:12:23Z</time></trkpt>
<trkpt lat="46.119580000" lon="7.043720000"><ele></ele><time>2013-7-31T10:12:26Z</time></trkpt>
<trkpt lat="46.119590000" lon="7.043700000"><ele></ele><time>2013-7-31T10:12:29Z</time></trkpt>
<trkpt lat="46.119610000" lon="7.043680000"><ele></ele><time>2013-7-31T10:12:32Z</time></trkpt>
<trkpt lat="46.119630000" lon="7.043660000"><ele></ele><time>2013-7-31T10:12:35Z</time></trkpt>
<trkpt lat="46.119650000" lon="7.043640000"><ele></ele><time>2013-7-31T10:12:38Z</time></trkpt>
<trkpt lat="46.119740000" lon="7.043560000"><ele></ele><time>2013-7-31T10:12:41Z</time></trkpt>
<trkpt lat="46.119810000" lon="7.043510000"><ele></ele><time>2013-7-31T10:12:44Z</time></trkpt>
<trkpt lat="46.119830000" lon="7.043490000"><ele></ele><time>2013-7-31T10:12:47Z</time></trkpt>
<trkpt lat="46.119850000" lon="7.043480000"><ele></ele><time>2013-7-31T10:12:50Z</time></trkpt>
<trkpt lat="46.119880000" lon="7.043470000"><ele></ele><time>2013-7-31T10:12:53Z</time></trkpt>
<trkpt lat="46.119910000" lon="7.043460000"><ele></ele><time>2013-7-31T10:12:56Z</time></trkpt>
<trkpt lat="46.120080000" lon="7.043420000"><ele></ele><time>2013-7-31T10:12:59Z</time></trkpt>
<trkpt lat="46.120110000" lon="7.043420000"><ele></ele><time>2013-7-31T10:13:2Z</time></trkpt>
<trkpt lat="46.120140000" lon="7.043410000"><ele></ele><time>2013-7-31T10:13:5Z</time></trkpt>
<trkpt lat="46.120160000" lon="7.043400000"><ele></ele><time>2013-7-31T10:13:8Z</time></trkpt>
<trkpt lat="46.120190000" lon="7.043400000"><ele></ele><time>2013-7-31T10:13:11Z</time></trkpt>
<trkpt lat="46.120320000" lon="7.043360000"><ele></ele><time>2013-7-31T10:13:14Z</time></trkpt>
<trkpt lat="46.120400000" lon="7.043330000"><ele></ele><time>2013-7-31T10:13:17Z</time></trkpt>
<trkpt lat="46.120430000" lon="7.043320000"><ele></ele><time>2013-7-31T10:13:20Z</time></trkpt>
<trkpt lat="46.120450000" lon="7.043310000"><ele></ele><time>2013-7-31T10:13:23Z</time></trkpt>
<trkpt lat="46.120470000" lon="7.043300000"><ele></ele><time>2013-7-31T10:13:26Z</time></trkpt>
<trkpt lat="46.120500000" lon="7.043280000"><ele></ele><time>2013-7-31T10:13:29Z</time></trkpt>
<trkpt lat="46.120680000" lon="7.043180000"><ele></ele><time>2013-7-31T10:13:32Z</time></trkpt>
<trkpt lat="46.120720000" lon="7.043160000"><ele></ele><time>2013-7-31T10:13:35Z</time></trkpt>
<trkpt lat="46.120750000" lon="7.043140000"><ele></ele><time>2013-7-31T10:13:38Z</time></trkpt>
<trkpt lat="46.120780000" lon="7.043120000"><ele></ele><time>2013-7-31T10:13:41Z</time></trkpt>
<trkpt lat="46.120810000" lon="7.043110000"><ele></ele><time>2013-7-31T10:13:44Z</time></trkpt>
<trkpt lat="46.120830000" lon="7.043090000"><ele></ele><time>2013-7-31T10:13:47Z</time></trkpt>
<trkpt lat="46.120890000" lon="7.043070000"><ele></ele><time>2013-7-31T10:13:50Z</time></trkpt>
<trkpt lat="46.121020000" lon="7.043060000"><ele></ele><time>2013-7-31T10:13:53Z</time></trkpt>
<trkpt lat="46.121110000" lon="7.043070000"><ele></ele><time>2013-7-31T10:13:56Z</time></trkpt>
<trkpt lat="46.121140000" lon="7.043070000"><ele></ele><time>2013-7-31T10:13:59Z</time></trkpt>
<trkpt lat="46.121170000" lon="7.043070000"><ele></ele><time>2013-7-31T10:14:2Z</time></trkpt>
<trkpt lat="46.121200000" lon="7.043080000"><ele></ele><time>2013-7-31T10:14:5Z</time></trkpt>
<trkpt lat="46.121250000" lon="7.043080000"><ele></ele><time>2013-7-31T10:14:8Z</time></trkpt>
<trkpt lat="46.121420000" lon="7.043090000"><ele></ele><time>2013-7-31T10:14:11Z</time></trkpt>
<trkpt lat="46.121450000" lon="7.043090000"><ele></ele><time>2013-7-31T10:14:14Z</time></trkpt>
<trkpt lat="46.121480000" lon="7.043090000"><ele></ele><time>2013-7-31T10:14:17Z</time></trkpt>
<trkpt lat="46.121510000" lon="7.043080000"><ele></ele><time>2013-7-31T10:14:20Z</time></trkpt>
<trkpt lat="46.121540000" lon="7.043080000"><ele></ele><time>2013-7-31T10:14:23Z</time></trkpt>
<trkpt lat="46.121700000" lon="7.043050000"><ele></ele><time>2013-7-31T10:14:26Z</time></trkpt>
<trkpt lat="46.121820000" lon="7.043010000"><ele></ele><time>2013-7-31T10:14:29Z</time></trkpt>
<trkpt lat="46.121910000" lon="7.042970000"><ele></ele><time>2013-7-31T10:14:32Z</time></trkpt>
<trkpt lat="46.121970000" lon="7.042950000"><ele></ele><time>2013-7-31T10:14:35Z</time></trkpt>
<trkpt lat="46.122000000" lon="7.042940000"><ele></ele><time>2013-7-31T10:14:38Z</time></trkpt>
<trkpt lat="46.122030000" lon="7.042920000"><ele></ele><time>2013-7-31T10:14:41Z</time></trkpt>
<trkpt lat="46.122060000" lon="7.042910000"><ele></ele><time>2013-7-31T10:14:44Z</time></trkpt>
<trkpt lat="46.122090000" lon="7.042890000"><ele></ele><time>2013-7-31T10:14:47Z</time></trkpt>
<trkpt lat="46.122150000" lon="7.042860000"><ele></ele><time>2013-7-31T10:14:50Z</time></trkpt>
<trkpt lat="46.122380000" lon="7.042760000"><ele></ele><time>2013-7-31T10:14:53Z</time></trkpt>
<trkpt lat="46.122410000" lon="7.042750000"><ele></ele><time>2013-7-31T10:14:56Z</time></trkpt>
<trkpt lat="46.122440000" lon="7.042740000"><ele></ele><time>2013-7-31T10:14:59Z</time></trkpt>
<trkpt lat="46.122470000" lon="7.042730000"><ele></ele><time>2013-7-31T10:15:2Z</time></trkpt>
<trkpt lat="46.122490000" lon="7.042720000"><ele></ele><time>2013-7-31T10:15:5Z</time></trkpt>
<trkpt lat="46.122520000" lon="7.042710000"><ele></ele><time>2013-7-31T10:15:8Z</time></trkpt>
<trkpt lat="46.122670000" lon="7.042620000"><ele></ele><time>2013-7-31T10:15:11Z</time></trkpt>
<trkpt lat="46.122700000" lon="7.042590000"><ele></ele><time>2013-7-31T10:15:14Z</time></trkpt>
<trkpt lat="46.122720000" lon="7.042570000"><ele></ele><time>2013-7-31T10:15:17Z</time></trkpt>
<trkpt lat="46.122740000" lon="7.042550000"><ele></ele><time>2013-7-31T10:15:20Z</time></trkpt>
<trkpt lat="46.122760000" lon="7.042520000"><ele></ele><time>2013-7-31T10:15:23Z</time></trkpt>
<trkpt lat="46.122800000" lon="7.042500000"><ele></ele><time>2013-7-31T10:15:26Z</time></trkpt>
<trkpt lat="46.123020000" lon="7.042350000"><ele></ele><time>2013-7-31T10:15:29Z</time></trkpt>
<trkpt lat="46.123210000" lon="7.042200000"><ele></ele><time>2013-7-31T10:15:32Z</time></trkpt>
<trkpt lat="46.123240000" lon="7.042170000"><ele></ele><time>2013-7-31T10:15:35Z</time></trkpt>
<trkpt lat="46.123270000" lon="7.042140000"><ele></ele><time>2013-7-31T10:15:38Z</time></trkpt>
<trkpt lat="46.123300000" lon="7.042100000"><ele></ele><time>2013-7-31T10:15:41Z</time></trkpt>
<trkpt lat="46.123410000" lon="7.041940000"><ele></ele><time>2013-7-31T10:15:44Z</time></trkpt>
<trkpt lat="46.127660000" lon="7.041030000"><ele></ele><time>2013-7-31T10:15:47Z</time></trkpt>
<trkpt lat="46.127690000" lon="7.041030000"><ele></ele><time>2013-7-31T10:15:50Z</time></trkpt>
<trkpt lat="46.127720000" lon="7.041020000"><ele></ele><time>2013-7-31T10:15:53Z</time></trkpt>
<trkpt lat="46.127750000" lon="7.041010000"><ele></ele><time>2013-7-31T10:15:56Z</time></trkpt>
<trkpt lat="46.127990000" lon="7.040920000"><ele></ele><time>2013-7-31T10:15:59Z</time></trkpt>
<trkpt lat="46.128020000" lon="7.040900000"><ele></ele><time>2013-7-31T10:16:2Z</time></trkpt>
<trkpt lat="46.128060000" lon="7.040880000"><ele></ele><time>2013-7-31T10:16:5Z</time></trkpt>
<trkpt lat="46.128090000" lon="7.040850000"><ele></ele><time>2013-7-31T10:16:8Z</time></trkpt>
<trkpt lat="46.128120000" lon="7.040830000"><ele></ele><time>2013-7-31T10:16:11Z</time></trkpt>
<trkpt lat="46.128140000" lon="7.040810000"><ele></ele><time>2013-7-31T10:16:14Z</time></trkpt>
<trkpt lat="46.128200000" lon="7.040770000"><ele></ele><time>2013-7-31T10:16:17Z</time></trkpt>
<trkpt lat="46.128360000" lon="7.040650000"><ele></ele><time>2013-7-31T10:16:20Z</time></trkpt>
<trkpt lat="46.128390000" lon="7.040620000"><ele></ele><time>2013-7-31T10:16:23Z</time></trkpt>
<trkpt lat="46.128410000" lon="7.040600000"><ele></ele><time>2013-7-31T10:16:26Z</time></trkpt>
<trkpt lat="46.128440000" lon="7.040580000"><ele></ele><time>2013-7-31T10:16:29Z</time></trkpt>
<trkpt lat="46.128470000" lon="7.040560000"><ele></ele><time>2013-7-31T10:16:32Z</time></trkpt>
<trkpt lat="46.128490000" lon="7.040540000"><ele></ele><time>2013-7-31T10:16:35Z</time></trkpt>
<trkpt lat="46.128560000" lon="7.040480000"><ele></ele><time>2013-7-31T10:16:38Z</time></trkpt>
<trkpt lat="46.128640000" lon="7.040420000"><ele></ele><time>2013-7-31T10:16:41Z</time></trkpt>
<trkpt lat="46.128670000" lon="7.040400000"><ele></ele><time>2013-7-31T10:16:44Z</time></trkpt>
<trkpt lat="46.128700000" lon="7.040380000"><ele></ele><time>2013-7-31T10:16:47Z</time></trkpt>
<trkpt lat="46.128730000" lon="7.040360000"><ele></ele><time>2013-7-31T10:16:50Z</time></trkpt>
<trkpt lat="46.128750000" lon="7.040340000"><ele></ele><time>2013-7-31T10:16:53Z</time></trkpt>
<trkpt lat="46.128880000" lon="7.040230000"><ele></ele><time>2013-7-31T10:16:56Z</time></trkpt>
<trkpt lat="46.129040000" lon="7.040100000"><ele></ele><time>2013-7-31T10:16:59Z</time></trkpt>
<trkpt lat="46.129150000" lon="7.040030000"><ele></ele><time>2013-7-31T10:17:2Z</time></trkpt>
<trkpt lat="46.129180000" lon="7.040010000"><ele></ele><time>2013-7-31T10:17:5Z</time></trkpt>
<trkpt lat="46.129200000" lon="7.039990000"><ele></ele><time>2013-7-31T10:17:8Z</time></trkpt>
<trkpt lat="46.129230000" lon="7.039970000"><ele></ele><time>2013-7-31T10:17:11Z</time></trkpt>
<trkpt lat="46.129260000" lon="7.039950000"><ele></ele><time>2013-7-31T10:17:14Z</time></trkpt>
<trkpt lat="46.129280000" lon="7.039930000"><ele></ele><time>2013-7-31T10:17:17Z</time></trkpt>
<trkpt lat="46.129470000" lon="7.039760000"><ele></ele><time>2013-7-31T10:17:20Z</time></trkpt>
<trkpt lat="46.129510000" lon="7.039740000"><ele></ele><time>2013-7-31T10:17:23Z</time></trkpt>
<trkpt lat="46.129530000" lon="7.039720000"><ele></ele><time>2013-7-31T10:17:26Z</time></trkpt>
<trkpt lat="46.129560000" lon="7.039690000"><ele></ele><time>2013-7-31T10:17:29Z</time></trkpt>
<trkpt lat="46.129630000" lon="7.039640000"><ele></ele><time>2013-7-31T10:17:32Z</time></trkpt>
<trkpt lat="46.129650000" lon="7.039620000"><ele></ele><time>2013-7-31T10:17:35Z</time></trkpt>
<trkpt lat="46.129670000" lon="7.039600000"><ele></ele><time>2013-7-31T10:17:38Z</time></trkpt>
<trkpt lat="46.129700000" lon="7.039590000"><ele></ele><time>2013-7-31T10:17:41Z</time></trkpt>
<trkpt lat="46.129720000" lon="7.039570000"><ele></ele><time>2013-7-31T10:17:44Z</time></trkpt>
<trkpt lat="46.129740000" lon="7.039560000"><ele></ele><time>2013-7-31T10:17:47Z</time></trkpt>
<trkpt lat="46.129790000" lon="7.039490000"><ele></ele><time>2013-7-31T10:17:50Z</time></trkpt>
<trkpt lat="46.129810000" lon="7.039470000"><ele></ele><time>2013-7-31T10:17:53Z</time></trkpt>
<trkpt lat="46.129820000" lon="7.039450000"><ele></ele><time>2013-7-31T10:17:56Z</time></trkpt>
<trkpt lat="46.129830000" lon="7.039430000"><ele></ele><time>2013-7-31T10:17:59Z</time></trkpt>
<trkpt lat="46.129840000" lon="7.039410000"><ele></ele><time>2013-7-31T10:18:2Z</time></trkpt>
<trkpt lat="46.129910000" lon="7.039340000"><ele></ele><time>2013-7-31T10:18:5Z</time></trkpt>
<trkpt lat="46.129920000" lon="7.039320000"><ele></ele><time>2013-7-31T10:18:8Z</time></trkpt>
<trkpt lat="46.129930000" lon="7.039300000"><ele></ele><time>2013-7-31T10:18:11Z</time></trkpt>
<trkpt lat="46.129950000" lon="7.039280000"><ele></ele><time>2013-7-31T10:18:14Z</time></trkpt>
<trkpt lat="46.129970000" lon="7.039260000"><ele></ele><time>2013-7-31T10:18:17Z</time></trkpt>
<trkpt lat="46.129990000" lon="7.039240000"><ele></ele><time>2013-7-31T10:18:20Z</time></trkpt>
<trkpt lat="46.130020000" lon="7.039200000"><ele></ele><time>2013-7-31T10:18:23Z</time></trkpt>
<trkpt lat="46.130050000" lon="7.039180000"><ele></ele><time>2013-7-31T10:18:26Z</time></trkpt>
<trkpt lat="46.130070000" lon="7.039160000"><ele></ele><time>2013-7-31T10:18:29Z</time></trkpt>
<trkpt lat="46.130090000" lon="7.039140000"><ele></ele><time>2013-7-31T10:18:32Z</time></trkpt>
<trkpt lat="46.130110000" lon="7.039120000"><ele></ele><time>2013-7-31T10:18:35Z</time></trkpt>
<trkpt lat="46.130130000" lon="7.039100000"><ele></ele><time>2013-7-31T10:18:38Z</time></trkpt>
<trkpt lat="46.130220000" lon="7.038980000"><ele></ele><time>2013-7-31T10:18:41Z</time></trkpt>
<trkpt lat="46.130240000" lon="7.038960000"><ele></ele><time>2013-7-31T10:18:44Z</time></trkpt>
<trkpt lat="46.130260000" lon="7.038940000"><ele></ele><time>2013-7-31T10:18:47Z</time></trkpt>
<trkpt lat="46.130270000" lon="7.038920000"><ele></ele><time>2013-7-31T10:18:50Z</time></trkpt>
<trkpt lat="46.130290000" lon="7.038890000"><ele></ele><time>2013-7-31T10:18:53Z</time></trkpt>
<trkpt lat="46.130340000" lon="7.038810000"><ele></ele><time>2013-7-31T10:18:56Z</time></trkpt>
<trkpt lat="46.130370000" lon="7.038760000"><ele></ele><time>2013-7-31T10:18:59Z</time></trkpt>
<trkpt lat="46.130380000" lon="7.038740000"><ele></ele><time>2013-7-31T10:19:2Z</time></trkpt>
<trkpt lat="46.130400000" lon="7.038710000"><ele></ele><time>2013-7-31T10:19:5Z</time></trkpt>
<trkpt lat="46.130410000" lon="7.038690000"><ele></ele><time>2013-7-31T10:19:8Z</time></trkpt>
<trkpt lat="46.130450000" lon="7.038620000"><ele></ele><time>2013-7-31T10:19:11Z</time></trkpt>
<trkpt lat="46.130460000" lon="7.038590000"><ele></ele><time>2013-7-31T10:19:14Z</time></trkpt>
<trkpt lat="46.130470000" lon="7.038570000"><ele></ele><time>2013-7-31T10:19:17Z</time></trkpt>
<trkpt lat="46.130480000" lon="7.038540000"><ele></ele><time>2013-7-31T10:19:20Z</time></trkpt>
<trkpt lat="46.130490000" lon="7.038520000"><ele></ele><time>2013-7-31T10:19:23Z</time></trkpt>
<trkpt lat="46.130530000" lon="7.038410000"><ele></ele><time>2013-7-31T10:19:26Z</time></trkpt>
<trkpt lat="46.130560000" lon="7.038360000"><ele></ele><time>2013-7-31T10:19:29Z</time></trkpt>
<trkpt lat="46.130570000" lon="7.038330000"><ele></ele><time>2013-7-31T10:19:32Z</time></trkpt>
<trkpt lat="46.130580000" lon="7.038310000"><ele></ele><time>2013-7-31T10:19:35Z</time></trkpt>
<trkpt lat="46.130590000" lon="7.038280000"><ele></ele><time>2013-7-31T10:19:38Z</time></trkpt>
<trkpt lat="46.130600000" lon="7.038260000"><ele></ele><time>2013-7-31T10:19:41Z</time></trkpt>
<trkpt lat="46.130620000" lon="7.038230000"><ele></ele><time>2013-7-31T10:19:44Z</time></trkpt>
<trkpt lat="46.130690000" lon="7.038080000"><ele></ele><time>2013-7-31T10:19:47Z</time></trkpt>
<trkpt lat="46.130700000" lon="7.038050000"><ele></ele><time>2013-7-31T10:19:50Z</time></trkpt>
<trkpt lat="46.130710000" lon="7.038020000"><ele></ele><time>2013-7-31T10:19:53Z</time></trkpt>
<trkpt lat="46.130710000" lon="7.037980000"><ele></ele><time>2013-7-31T10:19:56Z</time></trkpt>
<trkpt lat="46.130710000" lon="7.037950000"><ele></ele><time>2013-7-31T10:19:59Z</time></trkpt>
<trkpt lat="46.130690000" lon="7.037900000"><ele></ele><time>2013-7-31T10:20:2Z</time></trkpt>
<trkpt lat="46.130620000" lon="7.037890000"><ele></ele><time>2013-7-31T10:20:5Z</time></trkpt>
<trkpt lat="46.130560000" lon="7.037970000"><ele></ele><time>2013-7-31T10:20:8Z</time></trkpt>
<trkpt lat="46.130540000" lon="7.038000000"><ele></ele><time>2013-7-31T10:20:11Z</time></trkpt>
<trkpt lat="46.130510000" lon="7.038030000"><ele></ele><time>2013-7-31T10:20:14Z</time></trkpt>
<trkpt lat="46.130490000" lon="7.038060000"><ele></ele><time>2013-7-31T10:20:17Z</time></trkpt>
<trkpt lat="46.130470000" lon="7.038090000"><ele></ele><time>2013-7-31T10:20:20Z</time></trkpt>
<trkpt lat="46.130450000" lon="7.038120000"><ele></ele><time>2013-7-31T10:20:23Z</time></trkpt>
<trkpt lat="46.130420000" lon="7.038240000"><ele></ele><time>2013-7-31T10:20:26Z</time></trkpt>
<trkpt lat="46.130400000" lon="7.038270000"><ele></ele><time>2013-7-31T10:20:29Z</time></trkpt>
<trkpt lat="46.130390000" lon="7.038290000"><ele></ele><time>2013-7-31T10:20:32Z</time></trkpt>
<trkpt lat="46.130370000" lon="7.038320000"><ele></ele><time>2013-7-31T10:20:35Z</time></trkpt>
<trkpt lat="46.130310000" lon="7.038420000"><ele></ele><time>2013-7-31T10:20:38Z</time></trkpt>
<trkpt lat="46.130290000" lon="7.038440000"><ele></ele><time>2013-7-31T10:20:41Z</time></trkpt>
<trkpt lat="46.130270000" lon="7.038460000"><ele></ele><time>2013-7-31T10:20:44Z</time></trkpt>
<trkpt lat="46.130260000" lon="7.038480000"><ele></ele><time>2013-7-31T10:20:47Z</time></trkpt>
<trkpt lat="46.130250000" lon="7.038500000"><ele></ele><time>2013-7-31T10:20:50Z</time></trkpt>
<trkpt lat="46.130240000" lon="7.038520000"><ele></ele><time>2013-7-31T10:20:53Z</time></trkpt>
<trkpt lat="46.130210000" lon="7.038550000"><ele></ele><time>2013-7-31T10:20:56Z</time></trkpt>
<trkpt lat="46.130200000" lon="7.038560000"><ele></ele><time>2013-7-31T10:20:59Z</time></trkpt>
<trkpt lat="46.130190000" lon="7.038570000"><ele></ele><time>2013-7-31T10:21:2Z</time></trkpt>
<trkpt lat="46.130170000" lon="7.038580000"><ele></ele><time>2013-7-31T10:21:5Z</time></trkpt>
<trkpt lat="46.130170000" lon="7.038600000"><ele></ele><time>2013-7-31T10:21:8Z</time></trkpt>
<trkpt lat="46.130150000" lon="7.038610000"><ele></ele><time>2013-7-31T10:21:11Z</time></trkpt>
<trkpt lat="46.130080000" lon="7.038680000"><ele></ele><time>2013-7-31T10:21:14Z</time></trkpt>
<trkpt lat="46.130050000" lon="7.038700000"><ele></ele><time>2013-7-31T10:21:17Z</time></trkpt>
<trkpt lat="46.130040000" lon="7.038710000"><ele></ele><time>2013-7-31T10:21:20Z</time></trkpt>
<trkpt lat="46.130020000" lon="7.038720000"><ele></ele><time>2013-7-31T10:21:23Z</time></trkpt>
<trkpt lat="46.129960000" lon="7.038770000"><ele></ele><time>2013-7-31T10:21:26Z</time></trkpt>
<trkpt lat="46.129930000" lon="7.038780000"><ele></ele><time>2013-7-31T10:21:29Z</time></trkpt>
<trkpt lat="46.129910000" lon="7.038790000"><ele></ele><time>2013-7-31T10:21:32Z</time></trkpt>
<trkpt lat="46.129890000" lon="7.038790000"><ele></ele><time>2013-7-31T10:21:35Z</time></trkpt>
<trkpt lat="46.129870000" lon="7.038790000"><ele></ele><time>2013-7-31T10:21:38Z</time></trkpt>
<trkpt lat="46.129850000" lon="7.038800000"><ele></ele><time>2013-7-31T10:21:41Z</time></trkpt>
<trkpt lat="46.129830000" lon="7.038810000"><ele></ele><time>2013-7-31T10:21:44Z</time></trkpt>
<trkpt lat="46.129730000" lon="7.038850000"><ele></ele><time>2013-7-31T10:21:47Z</time></trkpt>
<trkpt lat="46.129720000" lon="7.038850000"><ele></ele><time>2013-7-31T10:21:50Z</time></trkpt>
<trkpt lat="46.129690000" lon="7.038860000"><ele></ele><time>2013-7-31T10:21:53Z</time></trkpt>
<trkpt lat="46.129670000" lon="7.038880000"><ele></ele><time>2013-7-31T10:21:56Z</time></trkpt>
<trkpt lat="46.129640000" lon="7.038880000"><ele></ele><time>2013-7-31T10:21:59Z</time></trkpt>
<trkpt lat="46.129520000" lon="7.038920000"><ele></ele><time>2013-7-31T10:22:2Z</time></trkpt>
<trkpt lat="46.129500000" lon="7.038920000"><ele></ele><time>2013-7-31T10:22:5Z</time></trkpt>
<trkpt lat="46.129470000" lon="7.038930000"><ele></ele><time>2013-7-31T10:22:8Z</time></trkpt>
<trkpt lat="46.129450000" lon="7.038930000"><ele></ele><time>2013-7-31T10:22:11Z</time></trkpt>
<trkpt lat="46.129350000" lon="7.038860000"><ele></ele><time>2013-7-31T10:22:14Z</time></trkpt>
<trkpt lat="46.129340000" lon="7.038840000"><ele></ele><time>2013-7-31T10:22:17Z</time></trkpt>
<trkpt lat="46.129350000" lon="7.038840000"><ele></ele><time>2013-7-31T10:22:20Z</time></trkpt>
<trkpt lat="46.129380000" lon="7.038830000"><ele></ele><time>2013-7-31T10:22:23Z</time></trkpt>
<trkpt lat="46.129400000" lon="7.038830000"><ele></ele><time>2013-7-31T10:22:26Z</time></trkpt>
<trkpt lat="46.129420000" lon="7.038840000"><ele></ele><time>2013-7-31T10:22:29Z</time></trkpt>
<trkpt lat="46.129550000" lon="7.038810000"><ele></ele><time>2013-7-31T10:22:32Z</time></trkpt>
<trkpt lat="46.129600000" lon="7.038790000"><ele></ele><time>2013-7-31T10:22:35Z</time></trkpt>
<trkpt lat="46.129620000" lon="7.038780000"><ele></ele><time>2013-7-31T10:22:38Z</time></trkpt>
<trkpt lat="46.129640000" lon="7.038780000"><ele></ele><time>2013-7-31T10:22:41Z</time></trkpt>
<trkpt lat="46.129670000" lon="7.038760000"><ele></ele><time>2013-7-31T10:22:44Z</time></trkpt>
<trkpt lat="46.129690000" lon="7.038750000"><ele></ele><time>2013-7-31T10:22:47Z</time></trkpt>
<trkpt lat="46.129760000" lon="7.038690000"><ele></ele><time>2013-7-31T10:22:50Z</time></trkpt>
<trkpt lat="46.129780000" lon="7.038670000"><ele></ele><time>2013-7-31T10:22:53Z</time></trkpt>
<trkpt lat="46.129790000" lon="7.038650000"><ele></ele><time>2013-7-31T10:22:56Z</time></trkpt>
<trkpt lat="46.129810000" lon="7.038640000"><ele></ele><time>2013-7-31T10:22:59Z</time></trkpt>
<trkpt lat="46.129830000" lon="7.038620000"><ele></ele><time>2013-7-31T10:23:2Z</time></trkpt>
<trkpt lat="46.129850000" lon="7.038600000"><ele></ele><time>2013-7-31T10:23:5Z</time></trkpt>
<trkpt lat="46.129860000" lon="7.038580000"><ele></ele><time>2013-7-31T10:23:8Z</time></trkpt>
<trkpt lat="46.129960000" lon="7.038470000"><ele></ele><time>2013-7-31T10:23:11Z</time></trkpt>
<trkpt lat="46.129970000" lon="7.038450000"><ele></ele><time>2013-7-31T10:23:14Z</time></trkpt>
<trkpt lat="46.129990000" lon="7.038430000"><ele></ele><time>2013-7-31T10:23:17Z</time></trkpt>
<trkpt lat="46.130000000" lon="7.038410000"><ele></ele><time>2013-7-31T10:23:20Z</time></trkpt>
<trkpt lat="46.130020000" lon="7.038400000"><ele></ele><time>2013-7-31T10:23:23Z</time></trkpt>
<trkpt lat="46.130050000" lon="7.038360000"><ele></ele><time>2013-7-31T10:23:26Z</time></trkpt>
<trkpt lat="46.130110000" lon="7.038310000"><ele></ele><time>2013-7-31T10:23:29Z</time></trkpt>
<trkpt lat="46.130130000" lon="7.038290000"><ele></ele><time>2013-7-31T10:23:32Z</time></trkpt>
<trkpt lat="46.130140000" lon="7.038260000"><ele></ele><time>2013-7-31T10:23:35Z</time></trkpt>
<trkpt lat="46.130150000" lon="7.038240000"><ele></ele><time>2013-7-31T10:23:38Z</time></trkpt>
<trkpt lat="46.130250000" lon="7.038110000"><ele></ele><time>2013-7-31T10:23:41Z</time></trkpt>
<trkpt lat="46.130260000" lon="7.038080000"><ele></ele><time>2013-7-31T10:23:44Z</time></trkpt>
<trkpt lat="46.130280000" lon="7.038070000"><ele></ele><time>2013-7-31T10:23:47Z</time></trkpt>
<trkpt lat="46.130290000" lon="7.038050000"><ele></ele><time>2013-7-31T10:23:50Z</time></trkpt>
<trkpt lat="46.130320000" lon="7.038030000"><ele></ele><time>2013-7-31T10:23:53Z</time></trkpt>
<trkpt lat="46.130340000" lon="7.038010000"><ele></ele><time>2013-7-31T10:23:56Z</time></trkpt>
<trkpt lat="46.130360000" lon="7.038000000"><ele></ele><time>2013-7-31T10:23:59Z</time></trkpt>
<trkpt lat="46.130410000" lon="7.037940000"><ele></ele><time>2013-7-31T10:24:2Z</time></trkpt>
<trkpt lat="46.130420000" lon="7.037920000"><ele></ele><time>2013-7-31T10:24:5Z</time></trkpt>
<trkpt lat="46.130440000" lon="7.037900000"><ele></ele><time>2013-7-31T10:24:8Z</time></trkpt>
<trkpt lat="46.130460000" lon="7.037880000"><ele></ele><time>2013-7-31T10:24:11Z</time></trkpt>
<trkpt lat="46.130470000" lon="7.037850000"><ele></ele><time>2013-7-31T10:24:14Z</time></trkpt>
<trkpt lat="46.130540000" lon="7.037730000"><ele></ele><time>2013-7-31T10:24:17Z</time></trkpt>
<trkpt lat="46.130550000" lon="7.037710000"><ele></ele><time>2013-7-31T10:24:20Z</time></trkpt>
<trkpt lat="46.130570000" lon="7.037690000"><ele></ele><time>2013-7-31T10:24:23Z</time></trkpt>
<trkpt lat="46.130580000" lon="7.037670000"><ele></ele><time>2013-7-31T10:24:26Z</time></trkpt>
<trkpt lat="46.130600000" lon="7.037640000"><ele></ele><time>2013-7-31T10:24:29Z</time></trkpt>
<trkpt lat="46.130660000" lon="7.037540000"><ele></ele><time>2013-7-31T10:24:32Z</time></trkpt>
<trkpt lat="46.130690000" lon="7.037490000"><ele></ele><time>2013-7-31T10:24:35Z</time></trkpt>
<trkpt lat="46.130700000" lon="7.037470000"><ele></ele><time>2013-7-31T10:24:38Z</time></trkpt>
<trkpt lat="46.130710000" lon="7.037440000"><ele></ele><time>2013-7-31T10:24:41Z</time></trkpt>
<trkpt lat="46.130730000" lon="7.037420000"><ele></ele><time>2013-7-31T10:24:44Z</time></trkpt>
<trkpt lat="46.130740000" lon="7.037390000"><ele></ele><time>2013-7-31T10:24:47Z</time></trkpt>
<trkpt lat="46.130760000" lon="7.037330000"><ele></ele><time>2013-7-31T10:24:50Z</time></trkpt>
<trkpt lat="46.130750000" lon="7.037260000"><ele></ele><time>2013-7-31T10:24:53Z</time></trkpt>
<trkpt lat="46.130730000" lon="7.037210000"><ele></ele><time>2013-7-31T10:24:56Z</time></trkpt>
<trkpt lat="46.130710000" lon="7.037200000"><ele></ele><time>2013-7-31T10:24:59Z</time></trkpt>
<trkpt lat="46.130670000" lon="7.037230000"><ele></ele><time>2013-7-31T10:25:2Z</time></trkpt>
<trkpt lat="46.130650000" lon="7.037250000"><ele></ele><time>2013-7-31T10:25:5Z</time></trkpt>
<trkpt lat="46.130630000" lon="7.037280000"><ele></ele><time>2013-7-31T10:25:8Z</time></trkpt>
<trkpt lat="46.130610000" lon="7.037320000"><ele></ele><time>2013-7-31T10:25:11Z</time></trkpt>
<trkpt lat="46.130590000" lon="7.037350000"><ele></ele><time>2013-7-31T10:25:14Z</time></trkpt>
<trkpt lat="46.130570000" lon="7.037420000"><ele></ele><time>2013-7-31T10:25:17Z</time></trkpt>
<trkpt lat="46.130490000" lon="7.037540000"><ele></ele><time>2013-7-31T10:25:20Z</time></trkpt>
<trkpt lat="46.130470000" lon="7.037560000"><ele></ele><time>2013-7-31T10:25:23Z</time></trkpt>
<trkpt lat="46.130460000" lon="7.037590000"><ele></ele><time>2013-7-31T10:25:26Z</time></trkpt>
<trkpt lat="46.130440000" lon="7.037600000"><ele></ele><time>2013-7-31T10:25:29Z</time></trkpt>
<trkpt lat="46.130420000" lon="7.037620000"><ele></ele><time>2013-7-31T10:25:32Z</time></trkpt>
<trkpt lat="46.130400000" lon="7.037640000"><ele></ele><time>2013-7-31T10:25:35Z</time></trkpt>
<trkpt lat="46.130380000" lon="7.037660000"><ele></ele><time>2013-7-31T10:25:38Z</time></trkpt>
<trkpt lat="46.130360000" lon="7.037680000"><ele></ele><time>2013-7-31T10:25:41Z</time></trkpt>
<trkpt lat="46.130280000" lon="7.037780000"><ele></ele><time>2013-7-31T10:25:44Z</time></trkpt>
<trkpt lat="46.130260000" lon="7.037800000"><ele></ele><time>2013-7-31T10:25:47Z</time></trkpt>
<trkpt lat="46.130250000" lon="7.037820000"><ele></ele><time>2013-7-31T10:25:50Z</time></trkpt>
<trkpt lat="46.130220000" lon="7.037840000"><ele></ele><time>2013-7-31T10:25:53Z</time></trkpt>
<trkpt lat="46.130140000" lon="7.037920000"><ele></ele><time>2013-7-31T10:25:56Z</time></trkpt>
<trkpt lat="46.130120000" lon="7.037950000"><ele></ele><time>2013-7-31T10:25:59Z</time></trkpt>
<trkpt lat="46.130100000" lon="7.037970000"><ele></ele><time>2013-7-31T10:26:2Z</time></trkpt>
<trkpt lat="46.130080000" lon="7.037990000"><ele></ele><time>2013-7-31T10:26:5Z</time></trkpt>
<trkpt lat="46.130070000" lon="7.038000000"><ele></ele><time>2013-7-31T10:26:8Z</time></trkpt>
<trkpt lat="46.130050000" lon="7.038020000"><ele></ele><time>2013-7-31T10:26:11Z</time></trkpt>
<trkpt lat="46.129940000" lon="7.038100000"><ele></ele><time>2013-7-31T10:26:14Z</time></trkpt>
<trkpt lat="46.129920000" lon="7.038090000"><ele></ele><time>2013-7-31T10:26:17Z</time></trkpt>
<trkpt lat="46.129910000" lon="7.038060000"><ele></ele><time>2013-7-31T10:26:20Z</time></trkpt>
<trkpt lat="46.129910000" lon="7.038030000"><ele></ele><time>2013-7-31T10:26:23Z</time></trkpt>
<trkpt lat="46.129920000" lon="7.038000000"><ele></ele><time>2013-7-31T10:26:26Z</time></trkpt>
<trkpt lat="46.129930000" lon="7.037980000"><ele></ele><time>2013-7-31T10:26:29Z</time></trkpt>
<trkpt lat="46.129960000" lon="7.037930000"><ele></ele><time>2013-7-31T10:26:32Z</time></trkpt>
<trkpt lat="46.130030000" lon="7.037850000"><ele></ele><time>2013-7-31T10:26:35Z</time></trkpt>
<trkpt lat="46.130040000" lon="7.037820000"><ele></ele><time>2013-7-31T10:26:38Z</time></trkpt>
<trkpt lat="46.130060000" lon="7.037800000"><ele></ele><time>2013-7-31T10:26:41Z</time></trkpt>
<trkpt lat="46.130070000" lon="7.037780000"><ele></ele><time>2013-7-31T10:26:44Z</time></trkpt>
<trkpt lat="46.130080000" lon="7.037750000"><ele></ele><time>2013-7-31T10:26:47Z</time></trkpt>
<trkpt lat="46.130120000" lon="7.037640000"><ele></ele><time>2013-7-31T10:26:50Z</time></trkpt>
<trkpt lat="46.130130000" lon="7.037620000"><ele></ele><time>2013-7-31T10:26:53Z</time></trkpt>
<trkpt lat="46.130140000" lon="7.037590000"><ele></ele><time>2013-7-31T10:26:56Z</time></trkpt>
<trkpt lat="46.130150000" lon="7.037560000"><ele></ele><time>2013-7-31T10:26:59Z</time></trkpt>
<trkpt lat="46.130150000" lon="7.037530000"><ele></ele><time>2013-7-31T10:27:2Z</time></trkpt>
<trkpt lat="46.130180000" lon="7.037390000"><ele></ele><time>2013-7-31T10:27:5Z</time></trkpt>
<trkpt lat="46.130190000" lon="7.037360000"><ele></ele><time>2013-7-31T10:27:8Z</time></trkpt>
<trkpt lat="46.130200000" lon="7.037340000"><ele></ele><time>2013-7-31T10:27:11Z</time></trkpt>
<trkpt lat="46.130210000" lon="7.037310000"><ele></ele><time>2013-7-31T10:27:14Z</time></trkpt>
<trkpt lat="46.130220000" lon="7.037280000"><ele></ele><time>2013-7-31T10:27:17Z</time></trkpt>
<trkpt lat="46.130250000" lon="7.037200000"><ele></ele><time>2013-7-31T10:27:20Z</time></trkpt>
<trkpt lat="46.130270000" lon="7.037140000"><ele></ele><time>2013-7-31T10:27:23Z</time></trkpt>
<trkpt lat="46.130280000" lon="7.037110000"><ele></ele><time>2013-7-31T10:27:26Z</time></trkpt>
<trkpt lat="46.130290000" lon="7.037090000"><ele></ele><time>2013-7-31T10:27:29Z</time></trkpt>
<trkpt lat="46.130310000" lon="7.037060000"><ele></ele><time>2013-7-31T10:27:32Z</time></trkpt>
<trkpt lat="46.130320000" lon="7.037040000"><ele></ele><time>2013-7-31T10:27:35Z</time></trkpt>
<trkpt lat="46.130360000" lon="7.036940000"><ele></ele><time>2013-7-31T10:27:38Z</time></trkpt>
<trkpt lat="46.130380000" lon="7.036920000"><ele></ele><time>2013-7-31T10:27:41Z</time></trkpt>
<trkpt lat="46.130390000" lon="7.036890000"><ele></ele><time>2013-7-31T10:27:44Z</time></trkpt>
<trkpt lat="46.130410000" lon="7.036870000"><ele></ele><time>2013-7-31T10:27:47Z</time></trkpt>
<trkpt lat="46.130430000" lon="7.036850000"><ele></ele><time>2013-7-31T10:27:50Z</time></trkpt>
<trkpt lat="46.130500000" lon="7.036690000"><ele></ele><time>2013-7-31T10:27:53Z</time></trkpt>
<trkpt lat="46.130490000" lon="7.036600000"><ele></ele><time>2013-7-31T10:27:56Z</time></trkpt>
<trkpt lat="46.130460000" lon="7.036570000"><ele></ele><time>2013-7-31T10:27:59Z</time></trkpt>
<trkpt lat="46.130440000" lon="7.036560000"><ele></ele><time>2013-7-31T10:28:2Z</time></trkpt>
<trkpt lat="46.130410000" lon="7.036560000"><ele></ele><time>2013-7-31T10:28:5Z</time></trkpt>
<trkpt lat="46.130320000" lon="7.036590000"><ele></ele><time>2013-7-31T10:28:8Z</time></trkpt>
<trkpt lat="46.130250000" lon="7.036690000"><ele></ele><time>2013-7-31T10:28:11Z</time></trkpt>
<trkpt lat="46.130190000" lon="7.036770000"><ele></ele><time>2013-7-31T10:28:14Z</time></trkpt>
<trkpt lat="46.130170000" lon="7.036790000"><ele></ele><time>2013-7-31T10:28:17Z</time></trkpt>
<trkpt lat="46.130140000" lon="7.036810000"><ele></ele><time>2013-7-31T10:28:20Z</time></trkpt>
<trkpt lat="46.130120000" lon="7.036830000"><ele></ele><time>2013-7-31T10:28:23Z</time></trkpt>
<trkpt lat="46.130110000" lon="7.036860000"><ele></ele><time>2013-7-31T10:28:26Z</time></trkpt>
<trkpt lat="46.130040000" lon="7.036990000"><ele></ele><time>2013-7-31T10:28:29Z</time></trkpt>
<trkpt lat="46.130020000" lon="7.037010000"><ele></ele><time>2013-7-31T10:28:32Z</time></trkpt>
<trkpt lat="46.130010000" lon="7.037040000"><ele></ele><time>2013-7-31T10:28:35Z</time></trkpt>
<trkpt lat="46.130000000" lon="7.037070000"><ele></ele><time>2013-7-31T10:28:38Z</time></trkpt>
<trkpt lat="46.129970000" lon="7.037200000"><ele></ele><time>2013-7-31T10:28:41Z</time></trkpt>
<trkpt lat="46.129960000" lon="7.037230000"><ele></ele><time>2013-7-31T10:28:44Z</time></trkpt>
<trkpt lat="46.129940000" lon="7.037250000"><ele></ele><time>2013-7-31T10:28:47Z</time></trkpt>
<trkpt lat="46.129940000" lon="7.037280000"><ele></ele><time>2013-7-31T10:28:50Z</time></trkpt>
<trkpt lat="46.129920000" lon="7.037300000"><ele></ele><time>2013-7-31T10:28:53Z</time></trkpt>
<trkpt lat="46.129860000" lon="7.037420000"><ele></ele><time>2013-7-31T10:28:56Z</time></trkpt>
<trkpt lat="46.129850000" lon="7.037440000"><ele></ele><time>2013-7-31T10:28:59Z</time></trkpt>
<trkpt lat="46.129840000" lon="7.037470000"><ele></ele><time>2013-7-31T10:29:2Z</time></trkpt>
<trkpt lat="46.129830000" lon="7.037490000"><ele></ele><time>2013-7-31T10:29:5Z</time></trkpt>
<trkpt lat="46.129820000" lon="7.037510000"><ele></ele><time>2013-7-31T10:29:8Z</time></trkpt>
<trkpt lat="46.129810000" lon="7.037530000"><ele></ele><time>2013-7-31T10:29:11Z</time></trkpt>
<trkpt lat="46.129760000" lon="7.037590000"><ele></ele><time>2013-7-31T10:29:14Z</time></trkpt>
<trkpt lat="46.129750000" lon="7.037620000"><ele></ele><time>2013-7-31T10:29:17Z</time></trkpt>
<trkpt lat="46.129730000" lon="7.037650000"><ele></ele><time>2013-7-31T10:29:20Z</time></trkpt>
<trkpt lat="46.129720000" lon="7.037680000"><ele></ele><time>2013-7-31T10:29:23Z</time></trkpt>
<trkpt lat="46.129630000" lon="7.037870000"><ele></ele><time>2013-7-31T10:29:26Z</time></trkpt>
<trkpt lat="46.129620000" lon="7.037900000"><ele></ele><time>2013-7-31T10:29:29Z</time></trkpt>
<trkpt lat="46.129590000" lon="7.037920000"><ele></ele><time>2013-7-31T10:29:32Z</time></trkpt>
<trkpt lat="46.129570000" lon="7.037940000"><ele></ele><time>2013-7-31T10:29:35Z</time></trkpt>
<trkpt lat="46.129550000" lon="7.037970000"><ele></ele><time>2013-7-31T10:29:38Z</time></trkpt>
<trkpt lat="46.129530000" lon="7.038000000"><ele></ele><time>2013-7-31T10:29:41Z</time></trkpt>
<trkpt lat="46.129510000" lon="7.038020000"><ele></ele><time>2013-7-31T10:29:44Z</time></trkpt>
<trkpt lat="46.129490000" lon="7.038060000"><ele></ele><time>2013-7-31T10:29:47Z</time></trkpt>
<trkpt lat="46.129480000" lon="7.038080000"><ele></ele><time>2013-7-31T10:29:50Z</time></trkpt>
<trkpt lat="46.129470000" lon="7.038100000"><ele></ele><time>2013-7-31T10:29:53Z</time></trkpt>
<trkpt lat="46.129460000" lon="7.038120000"><ele></ele><time>2013-7-31T10:29:56Z</time></trkpt>
<trkpt lat="46.129480000" lon="7.038180000"><ele></ele><time>2013-7-31T10:29:59Z</time></trkpt>
<trkpt lat="46.129480000" lon="7.038190000"><ele></ele><time>2013-7-31T10:30:2Z</time></trkpt>
<trkpt lat="46.129470000" lon="7.038200000"><ele></ele><time>2013-7-31T10:30:5Z</time></trkpt>
<trkpt lat="46.129460000" lon="7.038210000"><ele></ele><time>2013-7-31T10:30:8Z</time></trkpt>
<trkpt lat="46.129340000" lon="7.038240000"><ele></ele><time>2013-7-31T10:30:11Z</time></trkpt>
<trkpt lat="46.129320000" lon="7.038240000"><ele></ele><time>2013-7-31T10:30:14Z</time></trkpt>
<trkpt lat="46.129300000" lon="7.038240000"><ele></ele><time>2013-7-31T10:30:17Z</time></trkpt>
<trkpt lat="46.129280000" lon="7.038230000"><ele></ele><time>2013-7-31T10:30:20Z</time></trkpt>
<trkpt lat="46.129260000" lon="7.038220000"><ele></ele><time>2013-7-31T10:30:23Z</time></trkpt>
<trkpt lat="46.129240000" lon="7.038210000"><ele></ele><time>2013-7-31T10:30:26Z</time></trkpt>
<trkpt lat="46.129180000" lon="7.038130000"><ele></ele><time>2013-7-31T10:30:29Z</time></trkpt>
<trkpt lat="46.129160000" lon="7.038110000"><ele></ele><time>2013-7-31T10:30:32Z</time></trkpt>
<trkpt lat="46.129150000" lon="7.038080000"><ele></ele><time>2013-7-31T10:30:35Z</time></trkpt>
<trkpt lat="46.129140000" lon="7.038060000"><ele></ele><time>2013-7-31T10:30:38Z</time></trkpt>
<trkpt lat="46.129130000" lon="7.038030000"><ele></ele><time>2013-7-31T10:30:41Z</time></trkpt>
<trkpt lat="46.129080000" lon="7.037890000"><ele></ele><time>2013-7-31T10:30:44Z</time></trkpt>
<trkpt lat="46.129070000" lon="7.037860000"><ele></ele><time>2013-7-31T10:30:47Z</time></trkpt>
<trkpt lat="46.129060000" lon="7.037830000"><ele></ele><time>2013-7-31T10:30:50Z</time></trkpt>
<trkpt lat="46.129050000" lon="7.037810000"><ele></ele><time>2013-7-31T10:30:53Z</time></trkpt>
<trkpt lat="46.128990000" lon="7.037720000"><ele></ele><time>2013-7-31T10:30:56Z</time></trkpt>
<trkpt lat="46.128970000" lon="7.037710000"><ele></ele><time>2013-7-31T10:30:59Z</time></trkpt>
<trkpt lat="46.128950000" lon="7.037690000"><ele></ele><time>2013-7-31T10:31:2Z</time></trkpt>
<trkpt lat="46.128930000" lon="7.037680000"><ele></ele><time>2013-7-31T10:31:5Z</time></trkpt>
<trkpt lat="46.128910000" lon="7.037670000"><ele></ele><time>2013-7-31T10:31:8Z</time></trkpt>
<trkpt lat="46.128890000" lon="7.037660000"><ele></ele><time>2013-7-31T10:31:11Z</time></trkpt>
<trkpt lat="46.128870000" lon="7.037650000"><ele></ele><time>2013-7-31T10:31:14Z</time></trkpt>
<trkpt lat="46.128780000" lon="7.037590000"><ele></ele><time>2013-7-31T10:31:17Z</time></trkpt>
<trkpt lat="46.128760000" lon="7.037580000"><ele></ele><time>2013-7-31T10:31:20Z</time></trkpt>
<trkpt lat="46.128740000" lon="7.037570000"><ele></ele><time>2013-7-31T10:31:23Z</time></trkpt>
<trkpt lat="46.128720000" lon="7.037560000"><ele></ele><time>2013-7-31T10:31:26Z</time></trkpt>
<trkpt lat="46.128700000" lon="7.037550000"><ele></ele><time>2013-7-31T10:31:29Z</time></trkpt>
<trkpt lat="46.128610000" lon="7.037500000"><ele></ele><time>2013-7-31T10:31:32Z</time></trkpt>
<trkpt lat="46.128590000" lon="7.037480000"><ele></ele><time>2013-7-31T10:31:35Z</time></trkpt>
<trkpt lat="46.128570000" lon="7.037470000"><ele></ele><time>2013-7-31T10:31:38Z</time></trkpt>
<trkpt lat="46.128550000" lon="7.037460000"><ele></ele><time>2013-7-31T10:31:41Z</time></trkpt>
<trkpt lat="46.128470000" lon="7.037400000"><ele></ele><time>2013-7-31T10:31:44Z</time></trkpt>
<trkpt lat="46.128440000" lon="7.037380000"><ele></ele><time>2013-7-31T10:31:47Z</time></trkpt>
<trkpt lat="46.128420000" lon="7.037370000"><ele></ele><time>2013-7-31T10:31:50Z</time></trkpt>
<trkpt lat="46.128410000" lon="7.037340000"><ele></ele><time>2013-7-31T10:31:53Z</time></trkpt>
<trkpt lat="46.128390000" lon="7.037320000"><ele></ele><time>2013-7-31T10:31:56Z</time></trkpt>
<trkpt lat="46.128380000" lon="7.037290000"><ele></ele><time>2013-7-31T10:31:59Z</time></trkpt>
<trkpt lat="46.128360000" lon="7.037260000"><ele></ele><time>2013-7-31T10:32:2Z</time></trkpt>
<trkpt lat="46.128340000" lon="7.037200000"><ele></ele><time>2013-7-31T10:32:5Z</time></trkpt>
<trkpt lat="46.128340000" lon="7.037180000"><ele></ele><time>2013-7-31T10:32:8Z</time></trkpt>
<trkpt lat="46.128330000" lon="7.037150000"><ele></ele><time>2013-7-31T10:32:11Z</time></trkpt>
<trkpt lat="46.128320000" lon="7.037120000"><ele></ele><time>2013-7-31T10:32:14Z</time></trkpt>
<trkpt lat="46.128310000" lon="7.037080000"><ele></ele><time>2013-7-31T10:32:17Z</time></trkpt>
<trkpt lat="46.128290000" lon="7.036990000"><ele></ele><time>2013-7-31T10:32:20Z</time></trkpt>
<trkpt lat="46.128280000" lon="7.036950000"><ele></ele><time>2013-7-31T10:32:23Z</time></trkpt>
<trkpt lat="46.128280000" lon="7.036920000"><ele></ele><time>2013-7-31T10:32:26Z</time></trkpt>
<trkpt lat="46.128270000" lon="7.036880000"><ele></ele><time>2013-7-31T10:32:29Z</time></trkpt>
<trkpt lat="46.128270000" lon="7.036860000"><ele></ele><time>2013-7-31T10:32:32Z</time></trkpt>
<trkpt lat="46.128230000" lon="7.036700000"><ele></ele><time>2013-7-31T10:32:35Z</time></trkpt>
<trkpt lat="46.128220000" lon="7.036680000"><ele></ele><time>2013-7-31T10:32:38Z</time></trkpt>
<trkpt lat="46.128210000" lon="7.036660000"><ele></ele><time>2013-7-31T10:32:41Z</time></trkpt>
<trkpt lat="46.128200000" lon="7.036640000"><ele></ele><time>2013-7-31T10:32:44Z</time></trkpt>
<trkpt lat="46.128180000" lon="7.036620000"><ele></ele><time>2013-7-31T10:32:47Z</time></trkpt>
<trkpt lat="46.128160000" lon="7.036590000"><ele></ele><time>2013-7-31T10:32:50Z</time></trkpt>
<trkpt lat="46.128090000" lon="7.036490000"><ele></ele><time>2013-7-31T10:32:53Z</time></trkpt>
<trkpt lat="46.128080000" lon="7.036460000"><ele></ele><time>2013-7-31T10:32:56Z</time></trkpt>
<trkpt lat="46.128070000" lon="7.036430000"><ele></ele><time>2013-7-31T10:32:59Z</time></trkpt>
<trkpt lat="46.128060000" lon="7.036400000"><ele></ele><time>2013-7-31T10:33:2Z</time></trkpt>
<trkpt lat="46.128060000" lon="7.036360000"><ele></ele><time>2013-7-31T10:33:5Z</time></trkpt>
<trkpt lat="46.128050000" lon="7.036320000"><ele></ele><time>2013-7-31T10:33:8Z</time></trkpt>
<trkpt lat="46.128040000" lon="7.036290000"><ele></ele><time>2013-7-31T10:33:11Z</time></trkpt>
<trkpt lat="46.128050000" lon="7.036220000"><ele></ele><time>2013-7-31T10:33:14Z</time></trkpt>
<trkpt lat="46.128050000" lon="7.036190000"><ele></ele><time>2013-7-31T10:33:17Z</time></trkpt>
<trkpt lat="46.128060000" lon="7.036160000"><ele></ele><time>2013-7-31T10:33:20Z</time></trkpt>
<trkpt lat="46.128070000" lon="7.036140000"><ele></ele><time>2013-7-31T10:33:23Z</time></trkpt>
<trkpt lat="46.128080000" lon="7.036120000"><ele></ele><time>2013-7-31T10:33:26Z</time></trkpt>
<trkpt lat="46.128140000" lon="7.036040000"><ele></ele><time>2013-7-31T10:33:29Z</time></trkpt>
<trkpt lat="46.128150000" lon="7.036020000"><ele></ele><time>2013-7-31T10:33:32Z</time></trkpt>
<trkpt lat="46.128170000" lon="7.036010000"><ele></ele><time>2013-7-31T10:33:35Z</time></trkpt>
<trkpt lat="46.128190000" lon="7.035990000"><ele></ele><time>2013-7-31T10:33:38Z</time></trkpt>
<trkpt lat="46.128200000" lon="7.035970000"><ele></ele><time>2013-7-31T10:33:41Z</time></trkpt>
<trkpt lat="46.128270000" lon="7.035910000"><ele></ele><time>2013-7-31T10:33:44Z</time></trkpt>
<trkpt lat="46.128300000" lon="7.035890000"><ele></ele><time>2013-7-31T10:33:47Z</time></trkpt>
<trkpt lat="46.128310000" lon="7.035870000"><ele></ele><time>2013-7-31T10:33:50Z</time></trkpt>
<trkpt lat="46.128330000" lon="7.035850000"><ele></ele><time>2013-7-31T10:33:53Z</time></trkpt>
<trkpt lat="46.128350000" lon="7.035830000"><ele></ele><time>2013-7-31T10:33:56Z</time></trkpt>
<trkpt lat="46.128360000" lon="7.035810000"><ele></ele><time>2013-7-31T10:33:59Z</time></trkpt>
<trkpt lat="46.128390000" lon="7.035760000"><ele></ele><time>2013-7-31T10:34:2Z</time></trkpt>
<trkpt lat="46.128400000" lon="7.035740000"><ele></ele><time>2013-7-31T10:34:5Z</time></trkpt>
<trkpt lat="46.128410000" lon="7.035710000"><ele></ele><time>2013-7-31T10:34:8Z</time></trkpt>
<trkpt lat="46.128420000" lon="7.035680000"><ele></ele><time>2013-7-31T10:34:11Z</time></trkpt>
<trkpt lat="46.128430000" lon="7.035650000"><ele></ele><time>2013-7-31T10:34:14Z</time></trkpt>
<trkpt lat="46.128450000" lon="7.035560000"><ele></ele><time>2013-7-31T10:34:17Z</time></trkpt>
<trkpt lat="46.128460000" lon="7.035400000"><ele></ele><time>2013-7-31T10:34:20Z</time></trkpt>
<trkpt lat="46.128460000" lon="7.035370000"><ele></ele><time>2013-7-31T10:34:23Z</time></trkpt>
<trkpt lat="46.128460000" lon="7.035350000"><ele></ele><time>2013-7-31T10:34:26Z</time></trkpt>
<trkpt lat="46.128450000" lon="7.035320000"><ele></ele><time>2013-7-31T10:34:29Z</time></trkpt>
<trkpt lat="46.128450000" lon="7.035290000"><ele></ele><time>2013-7-31T10:34:32Z</time></trkpt>
<trkpt lat="46.128440000" lon="7.035260000"><ele></ele><time>2013-7-31T10:34:35Z</time></trkpt>
<trkpt lat="46.128440000" lon="7.035190000"><ele></ele><time>2013-7-31T10:34:38Z</time></trkpt>
<trkpt lat="46.128420000" lon="7.035060000"><ele></ele><time>2013-7-31T10:34:41Z</time></trkpt>
<trkpt lat="46.128410000" lon="7.035030000"><ele></ele><time>2013-7-31T10:34:44Z</time></trkpt>
<trkpt lat="46.128400000" lon="7.035000000"><ele></ele><time>2013-7-31T10:34:47Z</time></trkpt>
<trkpt lat="46.128400000" lon="7.034970000"><ele></ele><time>2013-7-31T10:34:50Z</time></trkpt>
<trkpt lat="46.128390000" lon="7.034940000"><ele></ele><time>2013-7-31T10:34:53Z</time></trkpt>
<trkpt lat="46.128350000" lon="7.034860000"><ele></ele><time>2013-7-31T10:34:56Z</time></trkpt>
<trkpt lat="46.128330000" lon="7.034840000"><ele></ele><time>2013-7-31T10:34:59Z</time></trkpt>
<trkpt lat="46.128310000" lon="7.034820000"><ele></ele><time>2013-7-31T10:35:2Z</time></trkpt>
<trkpt lat="46.128300000" lon="7.034800000"><ele></ele><time>2013-7-31T10:35:5Z</time></trkpt>
<trkpt lat="46.128280000" lon="7.034780000"><ele></ele><time>2013-7-31T10:35:8Z</time></trkpt>
<trkpt lat="46.128200000" lon="7.034730000"><ele></ele><time>2013-7-31T10:35:11Z</time></trkpt>
<trkpt lat="46.128140000" lon="7.034700000"><ele></ele><time>2013-7-31T10:35:14Z</time></trkpt>
<trkpt lat="46.128120000" lon="7.034700000"><ele></ele><time>2013-7-31T10:35:17Z</time></trkpt>
<trkpt lat="46.128110000" lon="7.034700000"><ele></ele><time>2013-7-31T10:35:20Z</time></trkpt>
<trkpt lat="46.128090000" lon="7.034700000"><ele></ele><time>2013-7-31T10:35:23Z</time></trkpt>
<trkpt lat="46.128070000" lon="7.034720000"><ele></ele><time>2013-7-31T10:35:26Z</time></trkpt>
<trkpt lat="46.128000000" lon="7.034750000"><ele></ele><time>2013-7-31T10:35:29Z</time></trkpt>
<trkpt lat="46.127940000" lon="7.034760000"><ele></ele><time>2013-7-31T10:35:32Z</time></trkpt>
<trkpt lat="46.127920000" lon="7.034770000"><ele></ele><time>2013-7-31T10:35:35Z</time></trkpt>
<trkpt lat="46.127900000" lon="7.034770000"><ele></ele><time>2013-7-31T10:35:38Z</time></trkpt>
<trkpt lat="46.127880000" lon="7.034770000"><ele></ele><time>2013-7-31T10:35:41Z</time></trkpt>
<trkpt lat="46.127860000" lon="7.034770000"><ele></ele><time>2013-7-31T10:35:44Z</time></trkpt>
<trkpt lat="46.127770000" lon="7.034760000"><ele></ele><time>2013-7-31T10:35:47Z</time></trkpt>
<trkpt lat="46.127750000" lon="7.034760000"><ele></ele><time>2013-7-31T10:35:50Z</time></trkpt>
<trkpt lat="46.127730000" lon="7.034750000"><ele></ele><time>2013-7-31T10:35:53Z</time></trkpt>
<trkpt lat="46.127710000" lon="7.034740000"><ele></ele><time>2013-7-31T10:35:56Z</time></trkpt>
<trkpt lat="46.127690000" lon="7.034740000"><ele></ele><time>2013-7-31T10:35:59Z</time></trkpt>
<trkpt lat="46.127570000" lon="7.034760000"><ele></ele><time>2013-7-31T10:36:2Z</time></trkpt>
<trkpt lat="46.127540000" lon="7.034760000"><ele></ele><time>2013-7-31T10:36:5Z</time></trkpt>
<trkpt lat="46.127520000" lon="7.034760000"><ele></ele><time>2013-7-31T10:36:8Z</time></trkpt>
<trkpt lat="46.127500000" lon="7.034760000"><ele></ele><time>2013-7-31T10:36:11Z</time></trkpt>
<trkpt lat="46.127480000" lon="7.034760000"><ele></ele><time>2013-7-31T10:36:14Z</time></trkpt>
<trkpt lat="46.127460000" lon="7.034750000"><ele></ele><time>2013-7-31T10:36:17Z</time></trkpt>
<trkpt lat="46.127410000" lon="7.034750000"><ele></ele><time>2013-7-31T10:36:20Z</time></trkpt>
<trkpt lat="46.127300000" lon="7.034740000"><ele></ele><time>2013-7-31T10:36:23Z</time></trkpt>
<trkpt lat="46.127280000" lon="7.034740000"><ele></ele><time>2013-7-31T10:36:26Z</time></trkpt>
<trkpt lat="46.127250000" lon="7.034740000"><ele></ele><time>2013-7-31T10:36:29Z</time></trkpt>
<trkpt lat="46.127220000" lon="7.034740000"><ele></ele><time>2013-7-31T10:36:32Z</time></trkpt>
<trkpt lat="46.127200000" lon="7.034730000"><ele></ele><time>2013-7-31T10:36:35Z</time></trkpt>
<trkpt lat="46.127080000" lon="7.034670000"><ele></ele><time>2013-7-31T10:36:38Z</time></trkpt>
<trkpt lat="46.127060000" lon="7.034660000"><ele></ele><time>2013-7-31T10:36:41Z</time></trkpt>
<trkpt lat="46.127040000" lon="7.034650000"><ele></ele><time>2013-7-31T10:36:44Z</time></trkpt>
<trkpt lat="46.127020000" lon="7.034630000"><ele></ele><time>2013-7-31T10:36:47Z</time></trkpt>
<trkpt lat="46.127000000" lon="7.034620000"><ele></ele><time>2013-7-31T10:36:50Z</time></trkpt>
<trkpt lat="46.126960000" lon="7.034600000"><ele></ele><time>2013-7-31T10:36:53Z</time></trkpt>
<trkpt lat="46.126900000" lon="7.034580000"><ele></ele><time>2013-7-31T10:36:56Z</time></trkpt>
<trkpt lat="46.126880000" lon="7.034580000"><ele></ele><time>2013-7-31T10:36:59Z</time></trkpt>
<trkpt lat="46.126860000" lon="7.034580000"><ele></ele><time>2013-7-31T10:37:2Z</time></trkpt>
<trkpt lat="46.126840000" lon="7.034580000"><ele></ele><time>2013-7-31T10:37:5Z</time></trkpt>
<trkpt lat="46.126740000" lon="7.034550000"><ele></ele><time>2013-7-31T10:37:8Z</time></trkpt>
<trkpt lat="46.126710000" lon="7.034540000"><ele></ele><time>2013-7-31T10:37:11Z</time></trkpt>
<trkpt lat="46.126690000" lon="7.034540000"><ele></ele><time>2013-7-31T10:37:14Z</time></trkpt>
<trkpt lat="46.126670000" lon="7.034540000"><ele></ele><time>2013-7-31T10:37:17Z</time></trkpt>
<trkpt lat="46.126640000" lon="7.034540000"><ele></ele><time>2013-7-31T10:37:20Z</time></trkpt>
<trkpt lat="46.126610000" lon="7.034530000"><ele></ele><time>2013-7-31T10:37:23Z</time></trkpt>
<trkpt lat="46.126510000" lon="7.034510000"><ele></ele><time>2013-7-31T10:37:26Z</time></trkpt>
<trkpt lat="46.126480000" lon="7.034510000"><ele></ele><time>2013-7-31T10:37:29Z</time></trkpt>
<trkpt lat="46.126460000" lon="7.034500000"><ele></ele><time>2013-7-31T10:37:32Z</time></trkpt>
<trkpt lat="46.126440000" lon="7.034500000"><ele></ele><time>2013-7-31T10:37:35Z</time></trkpt>
<trkpt lat="46.126420000" lon="7.034490000"><ele></ele><time>2013-7-31T10:37:38Z</time></trkpt>
<trkpt lat="46.126300000" lon="7.034430000"><ele></ele><time>2013-7-31T10:37:41Z</time></trkpt>
<trkpt lat="46.126280000" lon="7.034420000"><ele></ele><time>2013-7-31T10:37:44Z</time></trkpt>
<trkpt lat="46.126260000" lon="7.034400000"><ele></ele><time>2013-7-31T10:37:47Z</time></trkpt>
<trkpt lat="46.126240000" lon="7.034390000"><ele></ele><time>2013-7-31T10:37:50Z</time></trkpt>
<trkpt lat="46.126220000" lon="7.034370000"><ele></ele><time>2013-7-31T10:37:53Z</time></trkpt>
<trkpt lat="46.126150000" lon="7.034300000"><ele></ele><time>2013-7-31T10:37:56Z</time></trkpt>
<trkpt lat="46.126130000" lon="7.034250000"><ele></ele><time>2013-7-31T10:37:59Z</time></trkpt>
<trkpt lat="46.126110000" lon="7.034230000"><ele></ele><time>2013-7-31T10:38:2Z</time></trkpt>
<trkpt lat="46.126110000" lon="7.034210000"><ele></ele><time>2013-7-31T10:38:5Z</time></trkpt>
<trkpt lat="46.126090000" lon="7.034190000"><ele></ele><time>2013-7-31T10:38:8Z</time></trkpt>
<trkpt lat="46.126080000" lon="7.034160000"><ele></ele><time>2013-7-31T10:38:11Z</time></trkpt>
<trkpt lat="46.126050000" lon="7.034110000"><ele></ele><time>2013-7-31T10:38:14Z</time></trkpt>
<trkpt lat="46.126020000" lon="7.034040000"><ele></ele><time>2013-7-31T10:38:17Z</time></trkpt>
<trkpt lat="46.125990000" lon="7.034000000"><ele></ele><time>2013-7-31T10:38:20Z</time></trkpt>
<trkpt lat="46.125980000" lon="7.033970000"><ele></ele><time>2013-7-31T10:38:23Z</time></trkpt>
<trkpt lat="46.125960000" lon="7.033950000"><ele></ele><time>2013-7-31T10:38:26Z</time></trkpt>
<trkpt lat="46.125950000" lon="7.033930000"><ele></ele><time>2013-7-31T10:38:29Z</time></trkpt>
<trkpt lat="46.125930000" lon="7.033910000"><ele></ele><time>2013-7-31T10:38:32Z</time></trkpt>
<trkpt lat="46.125920000" lon="7.033890000"><ele></ele><time>2013-7-31T10:38:35Z</time></trkpt>
<trkpt lat="46.125820000" lon="7.033800000"><ele></ele><time>2013-7-31T10:38:38Z</time></trkpt>
<trkpt lat="46.125800000" lon="7.033790000"><ele></ele><time>2013-7-31T10:38:41Z</time></trkpt>
<trkpt lat="46.125780000" lon="7.033780000"><ele></ele><time>2013-7-31T10:38:44Z</time></trkpt>
<trkpt lat="46.125760000" lon="7.033760000"><ele></ele><time>2013-7-31T10:38:47Z</time></trkpt>
<trkpt lat="46.125740000" lon="7.033750000"><ele></ele><time>2013-7-31T10:38:50Z</time></trkpt>
<trkpt lat="46.125710000" lon="7.033740000"><ele></ele><time>2013-7-31T10:38:53Z</time></trkpt>
<trkpt lat="46.125610000" lon="7.033700000"><ele></ele><time>2013-7-31T10:38:56Z</time></trkpt>
<trkpt lat="46.125590000" lon="7.033690000"><ele></ele><time>2013-7-31T10:38:59Z</time></trkpt>
<trkpt lat="46.125570000" lon="7.033690000"><ele></ele><time>2013-7-31T10:39:2Z</time></trkpt>
<trkpt lat="46.125550000" lon="7.033680000"><ele></ele><time>2013-7-31T10:39:5Z</time></trkpt>
<trkpt lat="46.125520000" lon="7.033670000"><ele></ele><time>2013-7-31T10:39:8Z</time></trkpt>
<trkpt lat="46.125460000" lon="7.033650000"><ele></ele><time>2013-7-31T10:39:11Z</time></trkpt>
<trkpt lat="46.125410000" lon="7.033630000"><ele></ele><time>2013-7-31T10:39:14Z</time></trkpt>
<trkpt lat="46.125390000" lon="7.033620000"><ele></ele><time>2013-7-31T10:39:17Z</time></trkpt>
<trkpt lat="46.125370000" lon="7.033610000"><ele></ele><time>2013-7-31T10:39:20Z</time></trkpt>
<trkpt lat="46.125340000" lon="7.033600000"><ele></ele><time>2013-7-31T10:39:23Z</time></trkpt>
<trkpt lat="46.125320000" lon="7.033600000"><ele></ele><time>2013-7-31T10:39:26Z</time></trkpt>
<trkpt lat="46.125250000" lon="7.033570000"><ele></ele><time>2013-7-31T10:39:29Z</time></trkpt>
<trkpt lat="46.125180000" lon="7.033530000"><ele></ele><time>2013-7-31T10:39:32Z</time></trkpt>
<trkpt lat="46.125160000" lon="7.033520000"><ele></ele><time>2013-7-31T10:39:35Z</time></trkpt>
<trkpt lat="46.125140000" lon="7.033500000"><ele></ele><time>2013-7-31T10:39:38Z</time></trkpt>
<trkpt lat="46.125130000" lon="7.033490000"><ele></ele><time>2013-7-31T10:39:41Z</time></trkpt>
<trkpt lat="46.125110000" lon="7.033490000"><ele></ele><time>2013-7-31T10:39:44Z</time></trkpt>
<trkpt lat="46.125090000" lon="7.033470000"><ele></ele><time>2013-7-31T10:39:47Z</time></trkpt>
<trkpt lat="46.125000000" lon="7.033430000"><ele></ele><time>2013-7-31T10:39:50Z</time></trkpt>
<trkpt lat="46.124980000" lon="7.033410000"><ele></ele><time>2013-7-31T10:39:53Z</time></trkpt>
<trkpt lat="46.124960000" lon="7.033400000"><ele></ele><time>2013-7-31T10:39:56Z</time></trkpt>
<trkpt lat="46.124940000" lon="7.033390000"><ele></ele><time>2013-7-31T10:39:59Z</time></trkpt>
<trkpt lat="46.124870000" lon="7.033350000"><ele></ele><time>2013-7-31T10:40:2Z</time></trkpt>
<trkpt lat="46.124810000" lon="7.033320000"><ele></ele><time>2013-7-31T10:40:5Z</time></trkpt>
<trkpt lat="46.124790000" lon="7.033310000"><ele></ele><time>2013-7-31T10:40:8Z</time></trkpt>
<trkpt lat="46.124760000" lon="7.033290000"><ele></ele><time>2013-7-31T10:40:11Z</time></trkpt>
<trkpt lat="46.124740000" lon="7.033280000"><ele></ele><time>2013-7-31T10:40:14Z</time></trkpt>
<trkpt lat="46.124720000" lon="7.033260000"><ele></ele><time>2013-7-31T10:40:17Z</time></trkpt>
<trkpt lat="46.124600000" lon="7.033190000"><ele></ele><time>2013-7-31T10:40:20Z</time></trkpt>
<trkpt lat="46.124570000" lon="7.033180000"><ele></ele><time>2013-7-31T10:40:23Z</time></trkpt>
<trkpt lat="46.124550000" lon="7.033170000"><ele></ele><time>2013-7-31T10:40:26Z</time></trkpt>
<trkpt lat="46.124530000" lon="7.033160000"><ele></ele><time>2013-7-31T10:40:29Z</time></trkpt>
<trkpt lat="46.124500000" lon="7.033150000"><ele></ele><time>2013-7-31T10:40:32Z</time></trkpt>
<trkpt lat="46.124470000" lon="7.033130000"><ele></ele><time>2013-7-31T10:40:35Z</time></trkpt>
<trkpt lat="46.124440000" lon="7.033100000"><ele></ele><time>2013-7-31T10:40:38Z</time></trkpt>
<trkpt lat="46.124410000" lon="7.033090000"><ele></ele><time>2013-7-31T10:40:41Z</time></trkpt>
<trkpt lat="46.124390000" lon="7.033080000"><ele></ele><time>2013-7-31T10:40:44Z</time></trkpt>
<trkpt lat="46.124370000" lon="7.033060000"><ele></ele><time>2013-7-31T10:40:47Z</time></trkpt>
<trkpt lat="46.124350000" lon="7.033050000"><ele></ele><time>2013-7-31T10:40:50Z</time></trkpt>
<trkpt lat="46.124250000" lon="7.032980000"><ele></ele><time>2013-7-31T10:40:53Z</time></trkpt>
<trkpt lat="46.124230000" lon="7.032970000"><ele></ele><time>2013-7-31T10:40:56Z</time></trkpt>
<trkpt lat="46.124210000" lon="7.032950000"><ele></ele><time>2013-7-31T10:40:59Z</time></trkpt>
<trkpt lat="46.124190000" lon="7.032930000"><ele></ele><time>2013-7-31T10:41:2Z</time></trkpt>
<trkpt lat="46.124170000" lon="7.032910000"><ele></ele><time>2013-7-31T10:41:5Z</time></trkpt>
<trkpt lat="46.124160000" lon="7.032900000"><ele></ele><time>2013-7-31T10:41:8Z</time></trkpt>
<trkpt lat="46.124140000" lon="7.032880000"><ele></ele><time>2013-7-31T10:41:11Z</time></trkpt>
<trkpt lat="46.124060000" lon="7.032810000"><ele></ele><time>2013-7-31T10:41:14Z</time></trkpt>
<trkpt lat="46.124040000" lon="7.032790000"><ele></ele><time>2013-7-31T10:41:17Z</time></trkpt>
<trkpt lat="46.124020000" lon="7.032780000"><ele></ele><time>2013-7-31T10:41:20Z</time></trkpt>
<trkpt lat="46.124010000" lon="7.032760000"><ele></ele><time>2013-7-31T10:41:23Z</time></trkpt>
<trkpt lat="46.123990000" lon="7.032740000"><ele></ele><time>2013-7-31T10:41:26Z</time></trkpt>
<trkpt lat="46.123920000" lon="7.032680000"><ele></ele><time>2013-7-31T10:41:29Z</time></trkpt>
<trkpt lat="46.123900000" lon="7.032670000"><ele></ele><time>2013-7-31T10:41:32Z</time></trkpt>
<trkpt lat="46.123880000" lon="7.032660000"><ele></ele><time>2013-7-31T10:41:35Z</time></trkpt>
<trkpt lat="46.123860000" lon="7.032640000"><ele></ele><time>2013-7-31T10:41:38Z</time></trkpt>
<trkpt lat="46.123830000" lon="7.032640000"><ele></ele><time>2013-7-31T10:41:41Z</time></trkpt>
<trkpt lat="46.123810000" lon="7.032630000"><ele></ele><time>2013-7-31T10:41:44Z</time></trkpt>
<trkpt lat="46.123760000" lon="7.032610000"><ele></ele><time>2013-7-31T10:41:47Z</time></trkpt>
<trkpt lat="46.123660000" lon="7.032580000"><ele></ele><time>2013-7-31T10:41:50Z</time></trkpt>
<trkpt lat="46.123640000" lon="7.032570000"><ele></ele><time>2013-7-31T10:41:53Z</time></trkpt>
<trkpt lat="46.123620000" lon="7.032560000"><ele></ele><time>2013-7-31T10:41:56Z</time></trkpt>
<trkpt lat="46.123600000" lon="7.032560000"><ele></ele><time>2013-7-31T10:41:59Z</time></trkpt>
<trkpt lat="46.123580000" lon="7.032550000"><ele></ele><time>2013-7-31T10:42:2Z</time></trkpt>
<trkpt lat="46.123460000" lon="7.032540000"><ele></ele><time>2013-7-31T10:42:5Z</time></trkpt>
<trkpt lat="46.123410000" lon="7.032540000"><ele></ele><time>2013-7-31T10:42:8Z</time></trkpt>
<trkpt lat="46.123380000" lon="7.032540000"><ele></ele><time>2013-7-31T10:42:11Z</time></trkpt>
<trkpt lat="46.123360000" lon="7.032540000"><ele></ele><time>2013-7-31T10:42:14Z</time></trkpt>
<trkpt lat="46.123330000" lon="7.032540000"><ele></ele><time>2013-7-31T10:42:17Z</time></trkpt>
<trkpt lat="46.123260000" lon="7.032540000"><ele></ele><time>2013-7-31T10:42:20Z</time></trkpt>
<trkpt lat="46.123170000" lon="7.032500000"><ele></ele><time>2013-7-31T10:42:23Z</time></trkpt>
<trkpt lat="46.123150000" lon="7.032490000"><ele></ele><time>2013-7-31T10:42:26Z</time></trkpt>
<trkpt lat="46.123120000" lon="7.032480000"><ele></ele><time>2013-7-31T10:42:29Z</time></trkpt>
<trkpt lat="46.123100000" lon="7.032460000"><ele></ele><time>2013-7-31T10:42:32Z</time></trkpt>
<trkpt lat="46.123080000" lon="7.032450000"><ele></ele><time>2013-7-31T10:42:35Z</time></trkpt>
<trkpt lat="46.123000000" lon="7.032370000"><ele></ele><time>2013-7-31T10:42:38Z</time></trkpt>
<trkpt lat="46.122980000" lon="7.032340000"><ele></ele><time>2013-7-31T10:42:41Z</time></trkpt>
<trkpt lat="46.122960000" lon="7.032320000"><ele></ele><time>2013-7-31T10:42:44Z</time></trkpt>
<trkpt lat="46.122940000" lon="7.032300000"><ele></ele><time>2013-7-31T10:42:47Z</time></trkpt>
<trkpt lat="46.122920000" lon="7.032280000"><ele></ele><time>2013-7-31T10:42:50Z</time></trkpt>
<trkpt lat="46.122860000" lon="7.032230000"><ele></ele><time>2013-7-31T10:42:53Z</time></trkpt>
<trkpt lat="46.122800000" lon="7.032170000"><ele></ele><time>2013-7-31T10:42:56Z</time></trkpt>
<trkpt lat="46.122780000" lon="7.032150000"><ele></ele><time>2013-7-31T10:42:59Z</time></trkpt>
<trkpt lat="46.122760000" lon="7.032130000"><ele></ele><time>2013-7-31T10:43:2Z</time></trkpt>
<trkpt lat="46.122740000" lon="7.032100000"><ele></ele><time>2013-7-31T10:43:5Z</time></trkpt>
<trkpt lat="46.122730000" lon="7.032090000"><ele></ele><time>2013-7-31T10:43:8Z</time></trkpt>
<trkpt lat="46.122610000" lon="7.031970000"><ele></ele><time>2013-7-31T10:43:11Z</time></trkpt>
<trkpt lat="46.122590000" lon="7.031950000"><ele></ele><time>2013-7-31T10:43:14Z</time></trkpt>
<trkpt lat="46.122570000" lon="7.031930000"><ele></ele><time>2013-7-31T10:43:17Z</time></trkpt>
<trkpt lat="46.122550000" lon="7.031910000"><ele></ele><time>2013-7-31T10:43:20Z</time></trkpt>
<trkpt lat="46.122530000" lon="7.031890000"><ele></ele><time>2013-7-31T10:43:23Z</time></trkpt>
<trkpt lat="46.122480000" lon="7.031780000"><ele></ele><time>2013-7-31T10:43:26Z</time></trkpt>
<trkpt lat="46.122470000" lon="7.031750000"><ele></ele><time>2013-7-31T10:43:29Z</time></trkpt>
<trkpt lat="46.122460000" lon="7.031730000"><ele></ele><time>2013-7-31T10:43:32Z</time></trkpt>
<trkpt lat="46.122440000" lon="7.031700000"><ele></ele><time>2013-7-31T10:43:35Z</time></trkpt>
<trkpt lat="46.122430000" lon="7.031670000"><ele></ele><time>2013-7-31T10:43:38Z</time></trkpt>
<trkpt lat="46.122420000" lon="7.031640000"><ele></ele><time>2013-7-31T10:43:41Z</time></trkpt>
<trkpt lat="46.122390000" lon="7.031550000"><ele></ele><time>2013-7-31T10:43:44Z</time></trkpt>
<trkpt lat="46.122360000" lon="7.031500000"><ele></ele><time>2013-7-31T10:43:47Z</time></trkpt>
<trkpt lat="46.122350000" lon="7.031470000"><ele></ele><time>2013-7-31T10:43:50Z</time></trkpt>
<trkpt lat="46.122340000" lon="7.031450000"><ele></ele><time>2013-7-31T10:43:53Z</time></trkpt>
<trkpt lat="46.122330000" lon="7.031420000"><ele></ele><time>2013-7-31T10:43:56Z</time></trkpt>
<trkpt lat="46.122320000" lon="7.031390000"><ele></ele><time>2013-7-31T10:43:59Z</time></trkpt>
<trkpt lat="46.122300000" lon="7.031330000"><ele></ele><time>2013-7-31T10:44:2Z</time></trkpt>
<trkpt lat="46.122260000" lon="7.031250000"><ele></ele><time>2013-7-31T10:44:5Z</time></trkpt>
<trkpt lat="46.122250000" lon="7.031220000"><ele></ele><time>2013-7-31T10:44:8Z</time></trkpt>
<trkpt lat="46.122240000" lon="7.031190000"><ele></ele><time>2013-7-31T10:44:11Z</time></trkpt>
<trkpt lat="46.122230000" lon="7.031160000"><ele></ele><time>2013-7-31T10:44:14Z</time></trkpt>
<trkpt lat="46.122220000" lon="7.031140000"><ele></ele><time>2013-7-31T10:44:17Z</time></trkpt>
<trkpt lat="46.122150000" lon="7.031000000"><ele></ele><time>2013-7-31T10:44:20Z</time></trkpt>
<trkpt lat="46.122130000" lon="7.030980000"><ele></ele><time>2013-7-31T10:44:23Z</time></trkpt>
<trkpt lat="46.122110000" lon="7.030950000"><ele></ele><time>2013-7-31T10:44:26Z</time></trkpt>
<trkpt lat="46.122100000" lon="7.030930000"><ele></ele><time>2013-7-31T10:44:29Z</time></trkpt>
<trkpt lat="46.122040000" lon="7.030830000"><ele></ele><time>2013-7-31T10:44:32Z</time></trkpt>
<trkpt lat="46.122020000" lon="7.030800000"><ele></ele><time>2013-7-31T10:44:35Z</time></trkpt>
<trkpt lat="46.122010000" lon="7.030770000"><ele></ele><time>2013-7-31T10:44:38Z</time></trkpt>
<trkpt lat="46.121990000" lon="7.030740000"><ele></ele><time>2013-7-31T10:44:41Z</time></trkpt>
<trkpt lat="46.121970000" lon="7.030710000"><ele></ele><time>2013-7-31T10:44:44Z</time></trkpt>
<trkpt lat="46.121960000" lon="7.030680000"><ele></ele><time>2013-7-31T10:44:47Z</time></trkpt>
<trkpt lat="46.121940000" lon="7.030610000"><ele></ele><time>2013-7-31T10:44:50Z</time></trkpt>
<trkpt lat="46.121840000" lon="7.030410000"><ele></ele><time>2013-7-31T10:44:53Z</time></trkpt>
<trkpt lat="46.121760000" lon="7.030290000"><ele></ele><time>2013-7-31T10:44:56Z</time></trkpt>
<trkpt lat="46.121730000" lon="7.030270000"><ele></ele><time>2013-7-31T10:44:59Z</time></trkpt>
<trkpt lat="46.121710000" lon="7.030250000"><ele></ele><time>2013-7-31T10:45:2Z</time></trkpt>
<trkpt lat="46.121690000" lon="7.030220000"><ele></ele><time>2013-7-31T10:45:5Z</time></trkpt>
<trkpt lat="46.121590000" lon="7.030100000"><ele></ele><time>2013-7-31T10:45:8Z</time></trkpt>
<trkpt lat="46.121440000" lon="7.029950000"><ele></ele><time>2013-7-31T10:45:11Z</time></trkpt>
<trkpt lat="46.121420000" lon="7.029930000"><ele></ele><time>2013-7-31T10:45:14Z</time></trkpt>
<trkpt lat="46.121400000" lon="7.029910000"><ele></ele><time>2013-7-31T10:45:17Z</time></trkpt>
<trkpt lat="46.121380000" lon="7.029880000"><ele></ele><time>2013-7-31T10:45:20Z</time></trkpt>
<trkpt lat="46.121350000" lon="7.029860000"><ele></ele><time>2013-7-31T10:45:23Z</time></trkpt>
<trkpt lat="46.121320000" lon="7.029840000"><ele></ele><time>2013-7-31T10:45:26Z</time></trkpt>
<trkpt lat="46.121230000" lon="7.029790000"><ele></ele><time>2013-7-31T10:45:29Z</time></trkpt>
<trkpt lat="46.121070000" lon="7.029720000"><ele></ele><time>2013-7-31T10:45:32Z</time></trkpt>
<trkpt lat="46.121040000" lon="7.029700000"><ele></ele><time>2013-7-31T10:45:35Z</time></trkpt>
<trkpt lat="46.121010000" lon="7.029690000"><ele></ele><time>2013-7-31T10:45:38Z</time></trkpt>
<trkpt lat="46.120980000" lon="7.029680000"><ele></ele><time>2013-7-31T10:45:41Z</time></trkpt>
<trkpt lat="46.120880000" lon="7.029650000"><ele></ele><time>2013-7-31T10:45:44Z</time></trkpt>
<trkpt lat="46.120720000" lon="7.029550000"><ele></ele><time>2013-7-31T10:45:47Z</time></trkpt>
<trkpt lat="46.120690000" lon="7.029530000"><ele></ele><time>2013-7-31T10:45:50Z</time></trkpt>
<trkpt lat="46.120660000" lon="7.029510000"><ele></ele><time>2013-7-31T10:45:53Z</time></trkpt>
<trkpt lat="46.120630000" lon="7.029490000"><ele></ele><time>2013-7-31T10:45:56Z</time></trkpt>
<trkpt lat="46.120600000" lon="7.029470000"><ele></ele><time>2013-7-31T10:45:59Z</time></trkpt>
<trkpt lat="46.120480000" lon="7.029370000"><ele></ele><time>2013-7-31T10:46:2Z</time></trkpt>
<trkpt lat="46.120370000" lon="7.029260000"><ele></ele><time>2013-7-31T10:46:5Z</time></trkpt>
<trkpt lat="46.120340000" lon="7.029250000"><ele></ele><time>2013-7-31T10:46:8Z</time></trkpt>
<trkpt lat="46.120320000" lon="7.029220000"><ele></ele><time>2013-7-31T10:46:11Z</time></trkpt>
<trkpt lat="46.120290000" lon="7.029200000"><ele></ele><time>2013-7-31T10:46:14Z</time></trkpt>
<trkpt lat="46.120170000" lon="7.029110000"><ele></ele><time>2013-7-31T10:46:17Z</time></trkpt>
<trkpt lat="46.120010000" lon="7.028970000"><ele></ele><time>2013-7-31T10:46:20Z</time></trkpt>
<trkpt lat="46.119980000" lon="7.028940000"><ele></ele><time>2013-7-31T10:46:23Z</time></trkpt>
<trkpt lat="46.119950000" lon="7.028910000"><ele></ele><time>2013-7-31T10:46:26Z</time></trkpt>
<trkpt lat="46.119920000" lon="7.028890000"><ele></ele><time>2013-7-31T10:46:29Z</time></trkpt>
<trkpt lat="46.119900000" lon="7.028860000"><ele></ele><time>2013-7-31T10:46:32Z</time></trkpt>
<trkpt lat="46.119710000" lon="7.028710000"><ele></ele><time>2013-7-31T10:46:35Z</time></trkpt>
<trkpt lat="46.119680000" lon="7.028680000"><ele></ele><time>2013-7-31T10:46:38Z</time></trkpt>
<trkpt lat="46.119640000" lon="7.028640000"><ele></ele><time>2013-7-31T10:46:41Z</time></trkpt>
<trkpt lat="46.119610000" lon="7.028610000"><ele></ele><time>2013-7-31T10:46:44Z</time></trkpt>
<trkpt lat="46.119580000" lon="7.028570000"><ele></ele><time>2013-7-31T10:46:47Z</time></trkpt>
<trkpt lat="46.119490000" lon="7.028480000"><ele></ele><time>2013-7-31T10:46:50Z</time></trkpt>
<trkpt lat="46.119380000" lon="7.028370000"><ele></ele><time>2013-7-31T10:46:53Z</time></trkpt>
<trkpt lat="46.119350000" lon="7.028330000"><ele></ele><time>2013-7-31T10:46:56Z</time></trkpt>
<trkpt lat="46.119320000" lon="7.028310000"><ele></ele><time>2013-7-31T10:46:59Z</time></trkpt>
<trkpt lat="46.119290000" lon="7.028280000"><ele></ele><time>2013-7-31T10:47:2Z</time></trkpt>
<trkpt lat="46.119270000" lon="7.028250000"><ele></ele><time>2013-7-31T10:47:5Z</time></trkpt>
<trkpt lat="46.119150000" lon="7.028110000"><ele></ele><time>2013-7-31T10:47:8Z</time></trkpt>
<trkpt lat="46.119050000" lon="7.027980000"><ele></ele><time>2013-7-31T10:47:11Z</time></trkpt>
<trkpt lat="46.119030000" lon="7.027950000"><ele></ele><time>2013-7-31T10:47:14Z</time></trkpt>
<trkpt lat="46.119000000" lon="7.027910000"><ele></ele><time>2013-7-31T10:47:17Z</time></trkpt>
<trkpt lat="46.118970000" lon="7.027890000"><ele></ele><time>2013-7-31T10:47:20Z</time></trkpt>
<trkpt lat="46.118950000" lon="7.027860000"><ele></ele><time>2013-7-31T10:47:23Z</time></trkpt>
<trkpt lat="46.118830000" lon="7.027670000"><ele></ele><time>2013-7-31T10:47:26Z</time></trkpt>
<trkpt lat="46.118810000" lon="7.027630000"><ele></ele><time>2013-7-31T10:47:29Z</time></trkpt>
<trkpt lat="46.118790000" lon="7.027590000"><ele></ele><time>2013-7-31T10:47:32Z</time></trkpt>
<trkpt lat="46.118770000" lon="7.027550000"><ele></ele><time>2013-7-31T10:47:35Z</time></trkpt>
<trkpt lat="46.118770000" lon="7.027510000"><ele></ele><time>2013-7-31T10:47:38Z</time></trkpt>
<trkpt lat="46.118750000" lon="7.027370000"><ele></ele><time>2013-7-31T10:47:41Z</time></trkpt>
<trkpt lat="46.118680000" lon="7.027110000"><ele></ele><time>2013-7-31T10:47:44Z</time></trkpt>
<trkpt lat="46.118660000" lon="7.027070000"><ele></ele><time>2013-7-31T10:47:47Z</time></trkpt>
<trkpt lat="46.118640000" lon="7.027040000"><ele></ele><time>2013-7-31T10:47:50Z</time></trkpt>
<trkpt lat="46.118620000" lon="7.027000000"><ele></ele><time>2013-7-31T10:47:53Z</time></trkpt>
<trkpt lat="46.118610000" lon="7.026970000"><ele></ele><time>2013-7-31T10:47:56Z</time></trkpt>
<trkpt lat="46.118550000" lon="7.026810000"><ele></ele><time>2013-7-31T10:47:59Z</time></trkpt>
<trkpt lat="46.118500000" lon="7.026690000"><ele></ele><time>2013-7-31T10:48:2Z</time></trkpt>
<trkpt lat="46.118480000" lon="7.026650000"><ele></ele><time>2013-7-31T10:48:5Z</time></trkpt>
<trkpt lat="46.118470000" lon="7.026610000"><ele></ele><time>2013-7-31T10:48:8Z</time></trkpt>
<trkpt lat="46.118450000" lon="7.026570000"><ele></ele><time>2013-7-31T10:48:11Z</time></trkpt>
<trkpt lat="46.118430000" lon="7.026530000"><ele></ele><time>2013-7-31T10:48:14Z</time></trkpt>
<trkpt lat="46.118360000" lon="7.026220000"><ele></ele><time>2013-7-31T10:48:17Z</time></trkpt>
<trkpt lat="46.118350000" lon="7.026170000"><ele></ele><time>2013-7-31T10:48:20Z</time></trkpt>
<trkpt lat="46.118340000" lon="7.026120000"><ele></ele><time>2013-7-31T10:48:23Z</time></trkpt>
<trkpt lat="46.118330000" lon="7.026080000"><ele></ele><time>2013-7-31T10:48:26Z</time></trkpt>
<trkpt lat="46.118320000" lon="7.026030000"><ele></ele><time>2013-7-31T10:48:29Z</time></trkpt>
<trkpt lat="46.118280000" lon="7.025870000"><ele></ele><time>2013-7-31T10:48:32Z</time></trkpt>
<trkpt lat="46.118250000" lon="7.025750000"><ele></ele><time>2013-7-31T10:48:35Z</time></trkpt>
<trkpt lat="46.118240000" lon="7.025710000"><ele></ele><time>2013-7-31T10:48:38Z</time></trkpt>
<trkpt lat="46.118230000" lon="7.025670000"><ele></ele><time>2013-7-31T10:48:41Z</time></trkpt>
<trkpt lat="46.118220000" lon="7.025630000"><ele></ele><time>2013-7-31T10:48:44Z</time></trkpt>
<trkpt lat="46.118210000" lon="7.025590000"><ele></ele><time>2013-7-31T10:48:47Z</time></trkpt>
<trkpt lat="46.118200000" lon="7.025500000"><ele></ele><time>2013-7-31T10:48:50Z</time></trkpt>
<trkpt lat="46.118180000" lon="7.025260000"><ele></ele><time>2013-7-31T10:48:53Z</time></trkpt>
<trkpt lat="46.118180000" lon="7.025200000"><ele></ele><time>2013-7-31T10:48:56Z</time></trkpt>
<trkpt lat="46.118180000" lon="7.025150000"><ele></ele><time>2013-7-31T10:48:59Z</time></trkpt>
<trkpt lat="46.118180000" lon="7.025090000"><ele></ele><time>2013-7-31T10:49:2Z</time></trkpt>
<trkpt lat="46.118180000" lon="7.025040000"><ele></ele><time>2013-7-31T10:49:5Z</time></trkpt>
<trkpt lat="46.118210000" lon="7.024780000"><ele></ele><time>2013-7-31T10:49:8Z</time></trkpt>
<trkpt lat="46.118230000" lon="7.024620000"><ele></ele><time>2013-7-31T10:49:11Z</time></trkpt>
<trkpt lat="46.118230000" lon="7.024580000"><ele></ele><time>2013-7-31T10:49:14Z</time></trkpt>
<trkpt lat="46.118230000" lon="7.024520000"><ele></ele><time>2013-7-31T10:49:17Z</time></trkpt>
<trkpt lat="46.118230000" lon="7.024470000"><ele></ele><time>2013-7-31T10:49:20Z</time></trkpt>
<trkpt lat="46.118230000" lon="7.024420000"><ele></ele><time>2013-7-31T10:49:23Z</time></trkpt>
<trkpt lat="46.118180000" lon="7.024080000"><ele></ele><time>2013-7-31T10:49:26Z</time></trkpt>
<trkpt lat="46.118160000" lon="7.024040000"><ele></ele><time>2013-7-31T10:49:29Z</time></trkpt>
<trkpt lat="46.118160000" lon="7.023990000"><ele></ele><time>2013-7-31T10:49:32Z</time></trkpt>
<trkpt lat="46.118150000" lon="7.023940000"><ele></ele><time>2013-7-31T10:49:35Z</time></trkpt>
<trkpt lat="46.118140000" lon="7.023890000"><ele></ele><time>2013-7-31T10:49:38Z</time></trkpt>
<trkpt lat="46.118130000" lon="7.023740000"><ele></ele><time>2013-7-31T10:49:41Z</time></trkpt>
<trkpt lat="46.118100000" lon="7.023510000"><ele></ele><time>2013-7-31T10:49:44Z</time></trkpt>
<trkpt lat="46.118120000" lon="7.023370000"><ele></ele><time>2013-7-31T10:49:47Z</time></trkpt>
<trkpt lat="46.118140000" lon="7.023330000"><ele></ele><time>2013-7-31T10:49:50Z</time></trkpt>
<trkpt lat="46.118150000" lon="7.023290000"><ele></ele><time>2013-7-31T10:49:53Z</time></trkpt>
<trkpt lat="46.118160000" lon="7.023250000"><ele></ele><time>2013-7-31T10:49:56Z</time></trkpt>
<trkpt lat="46.118180000" lon="7.023210000"><ele></ele><time>2013-7-31T10:49:59Z</time></trkpt>
<trkpt lat="46.118210000" lon="7.023140000"><ele></ele><time>2013-7-31T10:50:2Z</time></trkpt>
<trkpt lat="46.118290000" lon="7.022970000"><ele></ele><time>2013-7-31T10:50:5Z</time></trkpt>
<trkpt lat="46.118310000" lon="7.022930000"><ele></ele><time>2013-7-31T10:50:8Z</time></trkpt>
<trkpt lat="46.118330000" lon="7.022880000"><ele></ele><time>2013-7-31T10:50:11Z</time></trkpt>
<trkpt lat="46.118350000" lon="7.022840000"><ele></ele><time>2013-7-31T10:50:14Z</time></trkpt>
<trkpt lat="46.118370000" lon="7.022790000"><ele></ele><time>2013-7-31T10:50:17Z</time></trkpt>
<trkpt lat="46.118390000" lon="7.022630000"><ele></ele><time>2013-7-31T10:50:20Z</time></trkpt>
<trkpt lat="46.118400000" lon="7.022590000"><ele></ele><time>2013-7-31T10:50:23Z</time></trkpt>
<trkpt lat="46.118410000" lon="7.022550000"><ele></ele><time>2013-7-31T10:50:26Z</time></trkpt>
<trkpt lat="46.118420000" lon="7.022510000"><ele></ele><time>2013-7-31T10:50:29Z</time></trkpt>
<trkpt lat="46.118420000" lon="7.022470000"><ele></ele><time>2013-7-31T10:50:32Z</time></trkpt>
<trkpt lat="46.118420000" lon="7.022420000"><ele></ele><time>2013-7-31T10:50:35Z</time></trkpt>
<trkpt lat="46.118430000" lon="7.022320000"><ele></ele><time>2013-7-31T10:50:38Z</time></trkpt>
<trkpt lat="46.118430000" lon="7.022270000"><ele></ele><time>2013-7-31T10:50:41Z</time></trkpt>
<trkpt lat="46.118470000" lon="7.021950000"><ele></ele><time>2013-7-31T10:50:44Z</time></trkpt>
<trkpt lat="46.118470000" lon="7.021900000"><ele></ele><time>2013-7-31T10:50:47Z</time></trkpt>
<trkpt lat="46.118480000" lon="7.021850000"><ele></ele><time>2013-7-31T10:50:50Z</time></trkpt>
<trkpt lat="46.118480000" lon="7.021800000"><ele></ele><time>2013-7-31T10:50:53Z</time></trkpt>
<trkpt lat="46.118490000" lon="7.021760000"><ele></ele><time>2013-7-31T10:50:56Z</time></trkpt>
<trkpt lat="46.118500000" lon="7.021710000"><ele></ele><time>2013-7-31T10:50:59Z</time></trkpt>
<trkpt lat="46.118540000" lon="7.021530000"><ele></ele><time>2013-7-31T10:51:2Z</time></trkpt>
<trkpt lat="46.118550000" lon="7.021490000"><ele></ele><time>2013-7-31T10:51:5Z</time></trkpt>
<trkpt lat="46.118590000" lon="7.021320000"><ele></ele><time>2013-7-31T10:51:8Z</time></trkpt>
<trkpt lat="46.118600000" lon="7.021270000"><ele></ele><time>2013-7-31T10:51:11Z</time></trkpt>
<trkpt lat="46.118600000" lon="7.021230000"><ele></ele><time>2013-7-31T10:51:14Z</time></trkpt>
<trkpt lat="46.118610000" lon="7.021180000"><ele></ele><time>2013-7-31T10:51:17Z</time></trkpt>
<trkpt lat="46.118640000" lon="7.020890000"><ele></ele><time>2013-7-31T10:51:20Z</time></trkpt>
<trkpt lat="46.118640000" lon="7.020840000"><ele></ele><time>2013-7-31T10:51:23Z</time></trkpt>
<trkpt lat="46.118650000" lon="7.020800000"><ele></ele><time>2013-7-31T10:51:26Z</time></trkpt>
<trkpt lat="46.118640000" lon="7.020750000"><ele></ele><time>2013-7-31T10:51:29Z</time></trkpt>
<trkpt lat="46.118650000" lon="7.020700000"><ele></ele><time>2013-7-31T10:51:32Z</time></trkpt>
<trkpt lat="46.118670000" lon="7.020560000"><ele></ele><time>2013-7-31T10:51:35Z</time></trkpt>
<trkpt lat="46.118670000" lon="7.020320000"><ele></ele><time>2013-7-31T10:51:38Z</time></trkpt>
<trkpt lat="46.118670000" lon="7.020280000"><ele></ele><time>2013-7-31T10:51:41Z</time></trkpt>
<trkpt lat="46.118680000" lon="7.020230000"><ele></ele><time>2013-7-31T10:51:44Z</time></trkpt>
<trkpt lat="46.118690000" lon="7.020190000"><ele></ele><time>2013-7-31T10:51:47Z</time></trkpt>
<trkpt lat="46.118700000" lon="7.020140000"><ele></ele><time>2013-7-31T10:51:50Z</time></trkpt>
<trkpt lat="46.118800000" lon="7.019930000"><ele></ele><time>2013-7-31T10:51:53Z</time></trkpt>
<trkpt lat="46.118820000" lon="7.019910000"><ele></ele><time>2013-7-31T10:51:56Z</time></trkpt>
<trkpt lat="46.118840000" lon="7.019890000"><ele></ele><time>2013-7-31T10:51:59Z</time></trkpt>
<trkpt lat="46.118860000" lon="7.019870000"><ele></ele><time>2013-7-31T10:52:2Z</time></trkpt>
<trkpt lat="46.118890000" lon="7.019850000"><ele></ele><time>2013-7-31T10:52:5Z</time></trkpt>
<trkpt lat="46.118950000" lon="7.019810000"><ele></ele><time>2013-7-31T10:52:8Z</time></trkpt>
<trkpt lat="46.119080000" lon="7.019770000"><ele></ele><time>2013-7-31T10:52:11Z</time></trkpt>
<trkpt lat="46.119120000" lon="7.019770000"><ele></ele><time>2013-7-31T10:52:14Z</time></trkpt>
<trkpt lat="46.119150000" lon="7.019760000"><ele></ele><time>2013-7-31T10:52:17Z</time></trkpt>
<trkpt lat="46.119170000" lon="7.019760000"><ele></ele><time>2013-7-31T10:52:20Z</time></trkpt>
<trkpt lat="46.119200000" lon="7.019760000"><ele></ele><time>2013-7-31T10:52:23Z</time></trkpt>
<trkpt lat="46.119230000" lon="7.019760000"><ele></ele><time>2013-7-31T10:52:26Z</time></trkpt>
<trkpt lat="46.119350000" lon="7.019780000"><ele></ele><time>2013-7-31T10:52:29Z</time></trkpt>
<trkpt lat="46.119380000" lon="7.019790000"><ele></ele><time>2013-7-31T10:52:32Z</time></trkpt>
<trkpt lat="46.119400000" lon="7.019800000"><ele></ele><time>2013-7-31T10:52:35Z</time></trkpt>
<trkpt lat="46.119420000" lon="7.019810000"><ele></ele><time>2013-7-31T10:52:38Z</time></trkpt>
<trkpt lat="46.119450000" lon="7.019820000"><ele></ele><time>2013-7-31T10:52:41Z</time></trkpt>
<trkpt lat="46.119530000" lon="7.019870000"><ele></ele><time>2013-7-31T10:52:44Z</time></trkpt>
<trkpt lat="46.119610000" lon="7.019950000"><ele></ele><time>2013-7-31T10:52:47Z</time></trkpt>
<trkpt lat="46.119640000" lon="7.019970000"><ele></ele><time>2013-7-31T10:52:50Z</time></trkpt>
<trkpt lat="46.119660000" lon="7.019980000"><ele></ele><time>2013-7-31T10:52:53Z</time></trkpt>
<trkpt lat="46.119680000" lon="7.020010000"><ele></ele><time>2013-7-31T10:52:56Z</time></trkpt>
<trkpt lat="46.119700000" lon="7.020030000"><ele></ele><time>2013-7-31T10:52:59Z</time></trkpt>
<trkpt lat="46.119810000" lon="7.020160000"><ele></ele><time>2013-7-31T10:53:2Z</time></trkpt>
<trkpt lat="46.119860000" lon="7.020220000"><ele></ele><time>2013-7-31T10:53:5Z</time></trkpt>
<trkpt lat="46.119880000" lon="7.020250000"><ele></ele><time>2013-7-31T10:53:8Z</time></trkpt>
<trkpt lat="46.119900000" lon="7.020270000"><ele></ele><time>2013-7-31T10:53:11Z</time></trkpt>
<trkpt lat="46.119920000" lon="7.020290000"><ele></ele><time>2013-7-31T10:53:14Z</time></trkpt>
<trkpt lat="46.119940000" lon="7.020300000"><ele></ele><time>2013-7-31T10:53:17Z</time></trkpt>
<trkpt lat="46.120060000" lon="7.020240000"><ele></ele><time>2013-7-31T10:53:20Z</time></trkpt>
<trkpt lat="46.120090000" lon="7.020100000"><ele></ele><time>2013-7-31T10:53:23Z</time></trkpt>
<trkpt lat="46.120080000" lon="7.020030000"><ele></ele><time>2013-7-31T10:53:26Z</time></trkpt>
<trkpt lat="46.120070000" lon="7.020000000"><ele></ele><time>2013-7-31T10:53:29Z</time></trkpt>
<trkpt lat="46.120060000" lon="7.019980000"><ele></ele><time>2013-7-31T10:53:32Z</time></trkpt>
<trkpt lat="46.120050000" lon="7.019950000"><ele></ele><time>2013-7-31T10:53:35Z</time></trkpt>
<trkpt lat="46.120040000" lon="7.019920000"><ele></ele><time>2013-7-31T10:53:38Z</time></trkpt>
<trkpt lat="46.120000000" lon="7.019820000"><ele></ele><time>2013-7-31T10:53:41Z</time></trkpt>
<trkpt lat="46.119990000" lon="7.019810000"><ele></ele><time>2013-7-31T10:53:44Z</time></trkpt>
<trkpt lat="46.119980000" lon="7.019780000"><ele></ele><time>2013-7-31T10:53:47Z</time></trkpt>
<trkpt lat="46.119960000" lon="7.019760000"><ele></ele><time>2013-7-31T10:53:50Z</time></trkpt>
<trkpt lat="46.119950000" lon="7.019730000"><ele></ele><time>2013-7-31T10:53:53Z</time></trkpt>
<trkpt lat="46.119890000" lon="7.019610000"><ele></ele><time>2013-7-31T10:53:56Z</time></trkpt>
<trkpt lat="46.119880000" lon="7.019580000"><ele></ele><time>2013-7-31T10:53:59Z</time></trkpt>
<trkpt lat="46.119870000" lon="7.019550000"><ele></ele><time>2013-7-31T10:54:2Z</time></trkpt>
<trkpt lat="46.119850000" lon="7.019520000"><ele></ele><time>2013-7-31T10:54:5Z</time></trkpt>
<trkpt lat="46.119840000" lon="7.019480000"><ele></ele><time>2013-7-31T10:54:8Z</time></trkpt>
<trkpt lat="46.119790000" lon="7.019350000"><ele></ele><time>2013-7-31T10:54:11Z</time></trkpt>
<trkpt lat="46.119780000" lon="7.019320000"><ele></ele><time>2013-7-31T10:54:14Z</time></trkpt>
<trkpt lat="46.119770000" lon="7.019290000"><ele></ele><time>2013-7-31T10:54:17Z</time></trkpt>
<trkpt lat="46.119750000" lon="7.019270000"><ele></ele><time>2013-7-31T10:54:20Z</time></trkpt>
<trkpt lat="46.119730000" lon="7.019250000"><ele></ele><time>2013-7-31T10:54:23Z</time></trkpt>
<trkpt lat="46.119690000" lon="7.019180000"><ele></ele><time>2013-7-31T10:54:26Z</time></trkpt>
<trkpt lat="46.119640000" lon="7.019120000"><ele></ele><time>2013-7-31T10:54:29Z</time></trkpt>
<trkpt lat="46.119630000" lon="7.019100000"><ele></ele><time>2013-7-31T10:54:32Z</time></trkpt>
<trkpt lat="46.119610000" lon="7.019080000"><ele></ele><time>2013-7-31T10:54:35Z</time></trkpt>
<trkpt lat="46.119590000" lon="7.019060000"><ele></ele><time>2013-7-31T10:54:38Z</time></trkpt>
<trkpt lat="46.119580000" lon="7.019040000"><ele></ele><time>2013-7-31T10:54:41Z</time></trkpt>
<trkpt lat="46.119560000" lon="7.019010000"><ele></ele><time>2013-7-31T10:54:44Z</time></trkpt>
<trkpt lat="46.119450000" lon="7.018860000"><ele></ele><time>2013-7-31T10:54:47Z</time></trkpt>
<trkpt lat="46.119390000" lon="7.018790000"><ele></ele><time>2013-7-31T10:54:50Z</time></trkpt>
<trkpt lat="46.119370000" lon="7.018770000"><ele></ele><time>2013-7-31T10:54:53Z</time></trkpt>
<trkpt lat="46.119360000" lon="7.018750000"><ele></ele><time>2013-7-31T10:54:56Z</time></trkpt>
<trkpt lat="46.119340000" lon="7.018740000"><ele></ele><time>2013-7-31T10:54:59Z</time></trkpt>
<trkpt lat="46.119310000" lon="7.018720000"><ele></ele><time>2013-7-31T10:55:2Z</time></trkpt>
<trkpt lat="46.119210000" lon="7.018580000"><ele></ele><time>2013-7-31T10:55:5Z</time></trkpt>
<trkpt lat="46.119180000" lon="7.018560000"><ele></ele><time>2013-7-31T10:55:8Z</time></trkpt>
<trkpt lat="46.119160000" lon="7.018530000"><ele></ele><time>2013-7-31T10:55:11Z</time></trkpt>
<trkpt lat="46.119140000" lon="7.018510000"><ele></ele><time>2013-7-31T10:55:14Z</time></trkpt>
<trkpt lat="46.119130000" lon="7.018470000"><ele></ele><time>2013-7-31T10:55:17Z</time></trkpt>
<trkpt lat="46.119120000" lon="7.018430000"><ele></ele><time>2013-7-31T10:55:20Z</time></trkpt>
<trkpt lat="46.119110000" lon="7.018400000"><ele></ele><time>2013-7-31T10:55:23Z</time></trkpt>
<trkpt lat="46.119040000" lon="7.018250000"><ele></ele><time>2013-7-31T10:55:26Z</time></trkpt>
<trkpt lat="46.119020000" lon="7.018220000"><ele></ele><time>2013-7-31T10:55:29Z</time></trkpt>
<trkpt lat="46.119000000" lon="7.018190000"><ele></ele><time>2013-7-31T10:55:32Z</time></trkpt>
<trkpt lat="46.118980000" lon="7.018150000"><ele></ele><time>2013-7-31T10:55:35Z</time></trkpt>
<trkpt lat="46.118960000" lon="7.018130000"><ele></ele><time>2013-7-31T10:55:38Z</time></trkpt>
<trkpt lat="46.118820000" lon="7.017940000"><ele></ele><time>2013-7-31T10:55:41Z</time></trkpt>
<trkpt lat="46.118800000" lon="7.017920000"><ele></ele><time>2013-7-31T10:55:44Z</time></trkpt>
<trkpt lat="46.118790000" lon="7.017890000"><ele></ele><time>2013-7-31T10:55:47Z</time></trkpt>
<trkpt lat="46.118770000" lon="7.017870000"><ele></ele><time>2013-7-31T10:55:50Z</time></trkpt>
<trkpt lat="46.118750000" lon="7.017850000"><ele></ele><time>2013-7-31T10:55:53Z</time></trkpt>
<trkpt lat="46.118670000" lon="7.017720000"><ele></ele><time>2013-7-31T10:55:56Z</time></trkpt>
<trkpt lat="46.118620000" lon="7.017670000"><ele></ele><time>2013-7-31T10:55:59Z</time></trkpt>
<trkpt lat="46.118600000" lon="7.017650000"><ele></ele><time>2013-7-31T10:56:2Z</time></trkpt>
<trkpt lat="46.118580000" lon="7.017630000"><ele></ele><time>2013-7-31T10:56:5Z</time></trkpt>
<trkpt lat="46.118560000" lon="7.017610000"><ele></ele><time>2013-7-31T10:56:8Z</time></trkpt>
<trkpt lat="46.118540000" lon="7.017590000"><ele></ele><time>2013-7-31T10:56:11Z</time></trkpt>
<trkpt lat="46.118490000" lon="7.017550000"><ele></ele><time>2013-7-31T10:56:14Z</time></trkpt>
<trkpt lat="46.118350000" lon="7.017410000"><ele></ele><time>2013-7-31T10:56:17Z</time></trkpt>
<trkpt lat="46.118180000" lon="7.017230000"><ele></ele><time>2013-7-31T10:56:20Z</time></trkpt>
<trkpt lat="46.118140000" lon="7.017210000"><ele></ele><time>2013-7-31T10:56:23Z</time></trkpt>
<trkpt lat="46.118120000" lon="7.017190000"><ele></ele><time>2013-7-31T10:56:26Z</time></trkpt>
<trkpt lat="46.118090000" lon="7.017160000"><ele></ele><time>2013-7-31T10:56:29Z</time></trkpt>
<trkpt lat="46.118060000" lon="7.017140000"><ele></ele><time>2013-7-31T10:56:32Z</time></trkpt>
<trkpt lat="46.117920000" lon="7.017040000"><ele></ele><time>2013-7-31T10:56:35Z</time></trkpt>
<trkpt lat="46.117800000" lon="7.016870000"><ele></ele><time>2013-7-31T10:56:38Z</time></trkpt>
<trkpt lat="46.117790000" lon="7.016840000"><ele></ele><time>2013-7-31T10:56:41Z</time></trkpt>
<trkpt lat="46.117770000" lon="7.016820000"><ele></ele><time>2013-7-31T10:56:44Z</time></trkpt>
<trkpt lat="46.117760000" lon="7.016790000"><ele></ele><time>2013-7-31T10:56:47Z</time></trkpt>
<trkpt lat="46.117740000" lon="7.016770000"><ele></ele><time>2013-7-31T10:56:50Z</time></trkpt>
<trkpt lat="46.117700000" lon="7.016700000"><ele></ele><time>2013-7-31T10:56:53Z</time></trkpt>
<trkpt lat="46.117680000" lon="7.016670000"><ele></ele><time>2013-7-31T10:56:56Z</time></trkpt>
<trkpt lat="46.117660000" lon="7.016650000"><ele></ele><time>2013-7-31T10:56:59Z</time></trkpt>
<trkpt lat="46.117650000" lon="7.016620000"><ele></ele><time>2013-7-31T10:57:2Z</time></trkpt>
<trkpt lat="46.117640000" lon="7.016600000"><ele></ele><time>2013-7-31T10:57:5Z</time></trkpt>
<trkpt lat="46.117630000" lon="7.016580000"><ele></ele><time>2013-7-31T10:57:8Z</time></trkpt>
<trkpt lat="46.117600000" lon="7.016540000"><ele></ele><time>2013-7-31T10:57:11Z</time></trkpt>
<trkpt lat="46.117560000" lon="7.016480000"><ele></ele><time>2013-7-31T10:57:14Z</time></trkpt>
<trkpt lat="46.117540000" lon="7.016450000"><ele></ele><time>2013-7-31T10:57:17Z</time></trkpt>
<trkpt lat="46.117530000" lon="7.016430000"><ele></ele><time>2013-7-31T10:57:20Z</time></trkpt>
<trkpt lat="46.117520000" lon="7.016410000"><ele></ele><time>2013-7-31T10:57:23Z</time></trkpt>
<trkpt lat="46.117500000" lon="7.016390000"><ele></ele><time>2013-7-31T10:57:26Z</time></trkpt>
<trkpt lat="46.117480000" lon="7.016370000"><ele></ele><time>2013-7-31T10:57:29Z</time></trkpt>
<trkpt lat="46.117430000" lon="7.016280000"><ele></ele><time>2013-7-31T10:57:32Z</time></trkpt>
<trkpt lat="46.117420000" lon="7.016250000"><ele></ele><time>2013-7-31T10:57:35Z</time></trkpt>
<trkpt lat="46.117400000" lon="7.016220000"><ele></ele><time>2013-7-31T10:57:38Z</time></trkpt>
<trkpt lat="46.117390000" lon="7.016190000"><ele></ele><time>2013-7-31T10:57:41Z</time></trkpt>
<trkpt lat="46.117330000" lon="7.016090000"><ele></ele><time>2013-7-31T10:57:44Z</time></trkpt>
<trkpt lat="46.117320000" lon="7.016060000"><ele></ele><time>2013-7-31T10:57:47Z</time></trkpt>
<trkpt lat="46.117310000" lon="7.016040000"><ele></ele><time>2013-7-31T10:57:50Z</time></trkpt>
<trkpt lat="46.117290000" lon="7.016020000"><ele></ele><time>2013-7-31T10:57:53Z</time></trkpt>
<trkpt lat="46.117280000" lon="7.016000000"><ele></ele><time>2013-7-31T10:57:56Z</time></trkpt>
<trkpt lat="46.117220000" lon="7.015900000"><ele></ele><time>2013-7-31T10:57:59Z</time></trkpt>
<trkpt lat="46.117200000" lon="7.015880000"><ele></ele><time>2013-7-31T10:58:2Z</time></trkpt>
<trkpt lat="46.117190000" lon="7.015870000"><ele></ele><time>2013-7-31T10:58:5Z</time></trkpt>
<trkpt lat="46.117180000" lon="7.015850000"><ele></ele><time>2013-7-31T10:58:8Z</time></trkpt>
<trkpt lat="46.117170000" lon="7.015820000"><ele></ele><time>2013-7-31T10:58:11Z</time></trkpt>
<trkpt lat="46.117140000" lon="7.015770000"><ele></ele><time>2013-7-31T10:58:14Z</time></trkpt>
<trkpt lat="46.117130000" lon="7.015750000"><ele></ele><time>2013-7-31T10:58:17Z</time></trkpt>
<trkpt lat="46.117110000" lon="7.015730000"><ele></ele><time>2013-7-31T10:58:20Z</time></trkpt>
<trkpt lat="46.117090000" lon="7.015710000"><ele></ele><time>2013-7-31T10:58:23Z</time></trkpt>
<trkpt lat="46.117070000" lon="7.015700000"><ele></ele><time>2013-7-31T10:58:26Z</time></trkpt>
<trkpt lat="46.117030000" lon="7.015660000"><ele></ele><time>2013-7-31T10:58:29Z</time></trkpt>
<trkpt lat="46.117010000" lon="7.015640000"><ele></ele><time>2013-7-31T10:58:32Z</time></trkpt>
<trkpt lat="46.116990000" lon="7.015630000"><ele></ele><time>2013-7-31T10:58:35Z</time></trkpt>
<trkpt lat="46.116970000" lon="7.015620000"><ele></ele><time>2013-7-31T10:58:38Z</time></trkpt>
<trkpt lat="46.116950000" lon="7.015610000"><ele></ele><time>2013-7-31T10:58:41Z</time></trkpt>
<trkpt lat="46.116820000" lon="7.015510000"><ele></ele><time>2013-7-31T10:58:44Z</time></trkpt>
<trkpt lat="46.116800000" lon="7.015500000"><ele></ele><time>2013-7-31T10:58:47Z</time></trkpt>
<trkpt lat="46.116780000" lon="7.015490000"><ele></ele><time>2013-7-31T10:58:50Z</time></trkpt>
<trkpt lat="46.116760000" lon="7.015480000"><ele></ele><time>2013-7-31T10:58:53Z</time></trkpt>
<trkpt lat="46.116750000" lon="7.015470000"><ele></ele><time>2013-7-31T10:58:56Z</time></trkpt>
<trkpt lat="46.116710000" lon="7.015460000"><ele></ele><time>2013-7-31T10:58:59Z</time></trkpt>
<trkpt lat="46.116690000" lon="7.015450000"><ele></ele><time>2013-7-31T10:59:2Z</time></trkpt>
<trkpt lat="46.116660000" lon="7.015450000"><ele></ele><time>2013-7-31T10:59:5Z</time></trkpt>
<trkpt lat="46.116640000" lon="7.015440000"><ele></ele><time>2013-7-31T10:59:8Z</time></trkpt>
<trkpt lat="46.116630000" lon="7.015430000"><ele></ele><time>2013-7-31T10:59:11Z</time></trkpt>
<trkpt lat="46.116520000" lon="7.015400000"><ele></ele><time>2013-7-31T10:59:14Z</time></trkpt>
<trkpt lat="46.116510000" lon="7.015400000"><ele></ele><time>2013-7-31T10:59:17Z</time></trkpt>
<trkpt lat="46.116490000" lon="7.015380000"><ele></ele><time>2013-7-31T10:59:20Z</time></trkpt>
<trkpt lat="46.116470000" lon="7.015370000"><ele></ele><time>2013-7-31T10:59:23Z</time></trkpt>
<trkpt lat="46.116450000" lon="7.015360000"><ele></ele><time>2013-7-31T10:59:26Z</time></trkpt>
<trkpt lat="46.116410000" lon="7.015350000"><ele></ele><time>2013-7-31T10:59:29Z</time></trkpt>
<trkpt lat="46.116390000" lon="7.015340000"><ele></ele><time>2013-7-31T10:59:32Z</time></trkpt>
<trkpt lat="46.116360000" lon="7.015310000"><ele></ele><time>2013-7-31T10:59:35Z</time></trkpt>
<trkpt lat="46.116350000" lon="7.015290000"><ele></ele><time>2013-7-31T10:59:38Z</time></trkpt>
<trkpt lat="46.116330000" lon="7.015280000"><ele></ele><time>2013-7-31T10:59:41Z</time></trkpt>
<trkpt lat="46.116320000" lon="7.015270000"><ele></ele><time>2013-7-31T10:59:44Z</time></trkpt>
<trkpt lat="46.116300000" lon="7.015250000"><ele></ele><time>2013-7-31T10:59:47Z</time></trkpt>
<trkpt lat="46.116230000" lon="7.015170000"><ele></ele><time>2013-7-31T10:59:50Z</time></trkpt>
<trkpt lat="46.116210000" lon="7.015150000"><ele></ele><time>2013-7-31T10:59:53Z</time></trkpt>
<trkpt lat="46.116200000" lon="7.015130000"><ele></ele><time>2013-7-31T10:59:56Z</time></trkpt>
<trkpt lat="46.116190000" lon="7.015110000"><ele></ele><time>2013-7-31T10:59:59Z</time></trkpt>
<trkpt lat="46.116170000" lon="7.015100000"><ele></ele><time>2013-7-31T11:0:2Z</time></trkpt>
<trkpt lat="46.116130000" lon="7.015030000"><ele></ele><time>2013-7-31T11:0:5Z</time></trkpt>
<trkpt lat="46.116120000" lon="7.015010000"><ele></ele><time>2013-7-31T11:0:8Z</time></trkpt>
<trkpt lat="46.116100000" lon="7.015000000"><ele></ele><time>2013-7-31T11:0:11Z</time></trkpt>
<trkpt lat="46.116090000" lon="7.014970000"><ele></ele><time>2013-7-31T11:0:14Z</time></trkpt>
<trkpt lat="46.116080000" lon="7.014950000"><ele></ele><time>2013-7-31T11:0:17Z</time></trkpt>
<trkpt lat="46.116030000" lon="7.014870000"><ele></ele><time>2013-7-31T11:0:20Z</time></trkpt>
<trkpt lat="46.116020000" lon="7.014850000"><ele></ele><time>2013-7-31T11:0:23Z</time></trkpt>
<trkpt lat="46.116000000" lon="7.014830000"><ele></ele><time>2013-7-31T11:0:26Z</time></trkpt>
<trkpt lat="46.115990000" lon="7.014810000"><ele></ele><time>2013-7-31T11:0:29Z</time></trkpt>
<trkpt lat="46.115970000" lon="7.014790000"><ele></ele><time>2013-7-31T11:0:32Z</time></trkpt>
<trkpt lat="46.115930000" lon="7.014720000"><ele></ele><time>2013-7-31T11:0:35Z</time></trkpt>
<trkpt lat="46.115910000" lon="7.014710000"><ele></ele><time>2013-7-31T11:0:38Z</time></trkpt>
<trkpt lat="46.115890000" lon="7.014700000"><ele></ele><time>2013-7-31T11:0:41Z</time></trkpt>
<trkpt lat="46.115880000" lon="7.014680000"><ele></ele><time>2013-7-31T11:0:44Z</time></trkpt>
<trkpt lat="46.115860000" lon="7.014670000"><ele></ele><time>2013-7-31T11:0:47Z</time></trkpt>
<trkpt lat="46.115840000" lon="7.014660000"><ele></ele><time>2013-7-31T11:0:50Z</time></trkpt>
<trkpt lat="46.115830000" lon="7.014640000"><ele></ele><time>2013-7-31T11:0:53Z</time></trkpt>
<trkpt lat="46.115790000" lon="7.014620000"><ele></ele><time>2013-7-31T11:0:56Z</time></trkpt>
<trkpt lat="46.115760000" lon="7.014610000"><ele></ele><time>2013-7-31T11:0:59Z</time></trkpt>
<trkpt lat="46.115740000" lon="7.014610000"><ele></ele><time>2013-7-31T11:1:2Z</time></trkpt>
<trkpt lat="46.115730000" lon="7.014610000"><ele></ele><time>2013-7-31T11:1:5Z</time></trkpt>
<trkpt lat="46.115700000" lon="7.014610000"><ele></ele><time>2013-7-31T11:1:8Z</time></trkpt>
<trkpt lat="46.115650000" lon="7.014530000"><ele></ele><time>2013-7-31T11:1:11Z</time></trkpt>
<trkpt lat="46.115700000" lon="7.014420000"><ele></ele><time>2013-7-31T11:1:14Z</time></trkpt>
<trkpt lat="46.115740000" lon="7.014400000"><ele></ele><time>2013-7-31T11:1:17Z</time></trkpt>
<trkpt lat="46.115760000" lon="7.014400000"><ele></ele><time>2013-7-31T11:1:20Z</time></trkpt>
<trkpt lat="46.115780000" lon="7.014420000"><ele></ele><time>2013-7-31T11:1:23Z</time></trkpt>
<trkpt lat="46.115800000" lon="7.014420000"><ele></ele><time>2013-7-31T11:1:26Z</time></trkpt>
<trkpt lat="46.115820000" lon="7.014430000"><ele></ele><time>2013-7-31T11:1:29Z</time></trkpt>
<trkpt lat="46.115940000" lon="7.014500000"><ele></ele><time>2013-7-31T11:1:32Z</time></trkpt>
<trkpt lat="46.115960000" lon="7.014520000"><ele></ele><time>2013-7-31T11:1:35Z</time></trkpt>
<trkpt lat="46.115970000" lon="7.014540000"><ele></ele><time>2013-7-31T11:1:38Z</time></trkpt>
<trkpt lat="46.115990000" lon="7.014560000"><ele></ele><time>2013-7-31T11:1:41Z</time></trkpt>
<trkpt lat="46.116010000" lon="7.014580000"><ele></ele><time>2013-7-31T11:1:44Z</time></trkpt>
<trkpt lat="46.116030000" lon="7.014610000"><ele></ele><time>2013-7-31T11:1:47Z</time></trkpt>
<trkpt lat="46.116050000" lon="7.014660000"><ele></ele><time>2013-7-31T11:1:50Z</time></trkpt>
<trkpt lat="46.116070000" lon="7.014700000"><ele></ele><time>2013-7-31T11:1:53Z</time></trkpt>
<trkpt lat="46.116090000" lon="7.014730000"><ele></ele><time>2013-7-31T11:1:56Z</time></trkpt>
<trkpt lat="46.116110000" lon="7.014750000"><ele></ele><time>2013-7-31T11:1:59Z</time></trkpt>
<trkpt lat="46.116130000" lon="7.014760000"><ele></ele><time>2013-7-31T11:2:2Z</time></trkpt>
<trkpt lat="46.116150000" lon="7.014770000"><ele></ele><time>2013-7-31T11:2:5Z</time></trkpt>
<trkpt lat="46.116180000" lon="7.014790000"><ele></ele><time>2013-7-31T11:2:8Z</time></trkpt>
<trkpt lat="46.116250000" lon="7.014740000"><ele></ele><time>2013-7-31T11:2:11Z</time></trkpt>
<trkpt lat="46.116280000" lon="7.014590000"><ele></ele><time>2013-7-31T11:2:14Z</time></trkpt>
<trkpt lat="46.116200000" lon="7.014450000"><ele></ele><time>2013-7-31T11:2:17Z</time></trkpt>
<trkpt lat="46.116180000" lon="7.014430000"><ele></ele><time>2013-7-31T11:2:20Z</time></trkpt>
<trkpt lat="46.116160000" lon="7.014410000"><ele></ele><time>2013-7-31T11:2:23Z</time></trkpt>
<trkpt lat="46.116140000" lon="7.014390000"><ele></ele><time>2013-7-31T11:2:26Z</time></trkpt>
<trkpt lat="46.116120000" lon="7.014370000"><ele></ele><time>2013-7-31T11:2:29Z</time></trkpt>
<trkpt lat="46.116100000" lon="7.014360000"><ele></ele><time>2013-7-31T11:2:32Z</time></trkpt>
<trkpt lat="46.116060000" lon="7.014340000"><ele></ele><time>2013-7-31T11:2:35Z</time></trkpt>
<trkpt lat="46.116030000" lon="7.014310000"><ele></ele><time>2013-7-31T11:2:38Z</time></trkpt>
<trkpt lat="46.116010000" lon="7.014290000"><ele></ele><time>2013-7-31T11:2:41Z</time></trkpt>
<trkpt lat="46.115990000" lon="7.014280000"><ele></ele><time>2013-7-31T11:2:44Z</time></trkpt>
<trkpt lat="46.115970000" lon="7.014260000"><ele></ele><time>2013-7-31T11:2:47Z</time></trkpt>
<trkpt lat="46.115960000" lon="7.014250000"><ele></ele><time>2013-7-31T11:2:50Z</time></trkpt>
<trkpt lat="46.115890000" lon="7.014180000"><ele></ele><time>2013-7-31T11:2:53Z</time></trkpt>
<trkpt lat="46.115870000" lon="7.014160000"><ele></ele><time>2013-7-31T11:2:56Z</time></trkpt>
<trkpt lat="46.115850000" lon="7.014150000"><ele></ele><time>2013-7-31T11:2:59Z</time></trkpt>
<trkpt lat="46.115840000" lon="7.014130000"><ele></ele><time>2013-7-31T11:3:2Z</time></trkpt>
<trkpt lat="46.115830000" lon="7.014110000"><ele></ele><time>2013-7-31T11:3:5Z</time></trkpt>
<trkpt lat="46.115770000" lon="7.014010000"><ele></ele><time>2013-7-31T11:3:8Z</time></trkpt>
<trkpt lat="46.115760000" lon="7.013990000"><ele></ele><time>2013-7-31T11:3:11Z</time></trkpt>
<trkpt lat="46.115750000" lon="7.013970000"><ele></ele><time>2013-7-31T11:3:14Z</time></trkpt>
<trkpt lat="46.115730000" lon="7.013950000"><ele></ele><time>2013-7-31T11:3:17Z</time></trkpt>
<trkpt lat="46.115710000" lon="7.013940000"><ele></ele><time>2013-7-31T11:3:20Z</time></trkpt>
<trkpt lat="46.115630000" lon="7.013900000"><ele></ele><time>2013-7-31T11:3:23Z</time></trkpt>
<trkpt lat="46.115590000" lon="7.013870000"><ele></ele><time>2013-7-31T11:3:26Z</time></trkpt>
<trkpt lat="46.115570000" lon="7.013860000"><ele></ele><time>2013-7-31T11:3:29Z</time></trkpt>
<trkpt lat="46.115560000" lon="7.013850000"><ele></ele><time>2013-7-31T11:3:32Z</time></trkpt>
<trkpt lat="46.115540000" lon="7.013840000"><ele></ele><time>2013-7-31T11:3:35Z</time></trkpt>
<trkpt lat="46.115520000" lon="7.013820000"><ele></ele><time>2013-7-31T11:3:38Z</time></trkpt>
<trkpt lat="46.115490000" lon="7.013800000"><ele></ele><time>2013-7-31T11:3:41Z</time></trkpt>
<trkpt lat="46.115460000" lon="7.013770000"><ele></ele><time>2013-7-31T11:3:44Z</time></trkpt>
<trkpt lat="46.115450000" lon="7.013770000"><ele></ele><time>2013-7-31T11:3:47Z</time></trkpt>
<trkpt lat="46.115440000" lon="7.013760000"><ele></ele><time>2013-7-31T11:3:50Z</time></trkpt>
<trkpt lat="46.115430000" lon="7.013750000"><ele></ele><time>2013-7-31T11:3:53Z</time></trkpt>
<trkpt lat="46.115410000" lon="7.013740000"><ele></ele><time>2013-7-31T11:3:56Z</time></trkpt>
<trkpt lat="46.115390000" lon="7.013690000"><ele></ele><time>2013-7-31T11:3:59Z</time></trkpt>
<trkpt lat="46.115380000" lon="7.013680000"><ele></ele><time>2013-7-31T11:4:2Z</time></trkpt>
<trkpt lat="46.115370000" lon="7.013660000"><ele></ele><time>2013-7-31T11:4:5Z</time></trkpt>
<trkpt lat="46.115350000" lon="7.013650000"><ele></ele><time>2013-7-31T11:4:8Z</time></trkpt>
<trkpt lat="46.115330000" lon="7.013630000"><ele></ele><time>2013-7-31T11:4:11Z</time></trkpt>
<trkpt lat="46.115250000" lon="7.013600000"><ele></ele><time>2013-7-31T11:4:14Z</time></trkpt>
<trkpt lat="46.115230000" lon="7.013590000"><ele></ele><time>2013-7-31T11:4:17Z</time></trkpt>
<trkpt lat="46.115220000" lon="7.013580000"><ele></ele><time>2013-7-31T11:4:20Z</time></trkpt>
<trkpt lat="46.115190000" lon="7.013570000"><ele></ele><time>2013-7-31T11:4:23Z</time></trkpt>
<trkpt lat="46.115160000" lon="7.013550000"><ele></ele><time>2013-7-31T11:4:26Z</time></trkpt>
<trkpt lat="46.115120000" lon="7.013510000"><ele></ele><time>2013-7-31T11:4:29Z</time></trkpt>
<trkpt lat="46.115040000" lon="7.013460000"><ele></ele><time>2013-7-31T11:4:32Z</time></trkpt>
<trkpt lat="46.115020000" lon="7.013450000"><ele></ele><time>2013-7-31T11:4:35Z</time></trkpt>
<trkpt lat="46.115000000" lon="7.013450000"><ele></ele><time>2013-7-31T11:4:38Z</time></trkpt>
<trkpt lat="46.114980000" lon="7.013420000"><ele></ele><time>2013-7-31T11:4:41Z</time></trkpt>
<trkpt lat="46.114960000" lon="7.013410000"><ele></ele><time>2013-7-31T11:4:44Z</time></trkpt>
<trkpt lat="46.114940000" lon="7.013400000"><ele></ele><time>2013-7-31T11:4:47Z</time></trkpt>
<trkpt lat="46.114880000" lon="7.013350000"><ele></ele><time>2013-7-31T11:4:50Z</time></trkpt>
<trkpt lat="46.114860000" lon="7.013340000"><ele></ele><time>2013-7-31T11:4:53Z</time></trkpt>
<trkpt lat="46.114840000" lon="7.013320000"><ele></ele><time>2013-7-31T11:4:56Z</time></trkpt>
<trkpt lat="46.114820000" lon="7.013310000"><ele></ele><time>2013-7-31T11:4:59Z</time></trkpt>
<trkpt lat="46.114800000" lon="7.013310000"><ele></ele><time>2013-7-31T11:5:2Z</time></trkpt>
<trkpt lat="46.114680000" lon="7.013230000"><ele></ele><time>2013-7-31T11:5:5Z</time></trkpt>
<trkpt lat="46.114660000" lon="7.013230000"><ele></ele><time>2013-7-31T11:5:8Z</time></trkpt>
<trkpt lat="46.114630000" lon="7.013220000"><ele></ele><time>2013-7-31T11:5:11Z</time></trkpt>
<trkpt lat="46.114620000" lon="7.013210000"><ele></ele><time>2013-7-31T11:5:14Z</time></trkpt>
<trkpt lat="46.114590000" lon="7.013190000"><ele></ele><time>2013-7-31T11:5:17Z</time></trkpt>
<trkpt lat="46.114540000" lon="7.013160000"><ele></ele><time>2013-7-31T11:5:20Z</time></trkpt>
<trkpt lat="46.114500000" lon="7.013130000"><ele></ele><time>2013-7-31T11:5:23Z</time></trkpt>
<trkpt lat="46.114480000" lon="7.013110000"><ele></ele><time>2013-7-31T11:5:26Z</time></trkpt>
<trkpt lat="46.114460000" lon="7.013110000"><ele></ele><time>2013-7-31T11:5:29Z</time></trkpt>
<trkpt lat="46.114440000" lon="7.013090000"><ele></ele><time>2013-7-31T11:5:32Z</time></trkpt>
<trkpt lat="46.114390000" lon="7.013070000"><ele></ele><time>2013-7-31T11:5:35Z</time></trkpt>
<trkpt lat="46.114370000" lon="7.013060000"><ele></ele><time>2013-7-31T11:5:38Z</time></trkpt>
<trkpt lat="46.114350000" lon="7.013040000"><ele></ele><time>2013-7-31T11:5:41Z</time></trkpt>
<trkpt lat="46.114330000" lon="7.013020000"><ele></ele><time>2013-7-31T11:5:44Z</time></trkpt>
<trkpt lat="46.114320000" lon="7.013000000"><ele></ele><time>2013-7-31T11:5:47Z</time></trkpt>
<trkpt lat="46.114280000" lon="7.012950000"><ele></ele><time>2013-7-31T11:5:50Z</time></trkpt>
<trkpt lat="46.114270000" lon="7.012930000"><ele></ele><time>2013-7-31T11:5:53Z</time></trkpt>
<trkpt lat="46.114250000" lon="7.012900000"><ele></ele><time>2013-7-31T11:5:56Z</time></trkpt>
<trkpt lat="46.114230000" lon="7.012890000"><ele></ele><time>2013-7-31T11:5:59Z</time></trkpt>
<trkpt lat="46.114220000" lon="7.012860000"><ele></ele><time>2013-7-31T11:6:2Z</time></trkpt>
<trkpt lat="46.114170000" lon="7.012800000"><ele></ele><time>2013-7-31T11:6:5Z</time></trkpt>
<trkpt lat="46.114160000" lon="7.012790000"><ele></ele><time>2013-7-31T11:6:8Z</time></trkpt>
<trkpt lat="46.114150000" lon="7.012780000"><ele></ele><time>2013-7-31T11:6:11Z</time></trkpt>
<trkpt lat="46.114140000" lon="7.012760000"><ele></ele><time>2013-7-31T11:6:14Z</time></trkpt>
<trkpt lat="46.114120000" lon="7.012740000"><ele></ele><time>2013-7-31T11:6:17Z</time></trkpt>
<trkpt lat="46.114060000" lon="7.012710000"><ele></ele><time>2013-7-31T11:6:20Z</time></trkpt>
<trkpt lat="46.114030000" lon="7.012700000"><ele></ele><time>2013-7-31T11:6:23Z</time></trkpt>
<trkpt lat="46.114010000" lon="7.012690000"><ele></ele><time>2013-7-31T11:6:26Z</time></trkpt>
<trkpt lat="46.113990000" lon="7.012680000"><ele></ele><time>2013-7-31T11:6:29Z</time></trkpt>
<trkpt lat="46.113890000" lon="7.012630000"><ele></ele><time>2013-7-31T11:6:32Z</time></trkpt>
<trkpt lat="46.113820000" lon="7.012600000"><ele></ele><time>2013-7-31T11:6:35Z</time></trkpt>
<trkpt lat="46.113800000" lon="7.012590000"><ele></ele><time>2013-7-31T11:6:38Z</time></trkpt>
<trkpt lat="46.113780000" lon="7.012570000"><ele></ele><time>2013-7-31T11:6:41Z</time></trkpt>
<trkpt lat="46.113750000" lon="7.012560000"><ele></ele><time>2013-7-31T11:6:44Z</time></trkpt>
<trkpt lat="46.113730000" lon="7.012540000"><ele></ele><time>2013-7-31T11:6:47Z</time></trkpt>
<trkpt lat="46.113610000" lon="7.012480000"><ele></ele><time>2013-7-31T11:6:50Z</time></trkpt>
<trkpt lat="46.113580000" lon="7.012470000"><ele></ele><time>2013-7-31T11:6:53Z</time></trkpt>
<trkpt lat="46.113410000" lon="7.012430000"><ele></ele><time>2013-7-31T11:6:56Z</time></trkpt>
<trkpt lat="46.113350000" lon="7.012430000"><ele></ele><time>2013-7-31T11:6:59Z</time></trkpt>
<trkpt lat="46.113250000" lon="7.012440000"><ele></ele><time>2013-7-31T11:7:2Z</time></trkpt>
<trkpt lat="46.113190000" lon="7.012450000"><ele></ele><time>2013-7-31T11:7:5Z</time></trkpt>
<trkpt lat="46.113160000" lon="7.012440000"><ele></ele><time>2013-7-31T11:7:8Z</time></trkpt>
<trkpt lat="46.113140000" lon="7.012450000"><ele></ele><time>2013-7-31T11:7:11Z</time></trkpt>
<trkpt lat="46.113110000" lon="7.012440000"><ele></ele><time>2013-7-31T11:7:14Z</time></trkpt>
<trkpt lat="46.113080000" lon="7.012430000"><ele></ele><time>2013-7-31T11:7:17Z</time></trkpt>
<trkpt lat="46.113020000" lon="7.012410000"><ele></ele><time>2013-7-31T11:7:20Z</time></trkpt>
<trkpt lat="46.112880000" lon="7.012410000"><ele></ele><time>2013-7-31T11:7:23Z</time></trkpt>
<trkpt lat="46.112860000" lon="7.012420000"><ele></ele><time>2013-7-31T11:7:26Z</time></trkpt>
<trkpt lat="46.112840000" lon="7.012420000"><ele></ele><time>2013-7-31T11:7:29Z</time></trkpt>
<trkpt lat="46.112820000" lon="7.012420000"><ele></ele><time>2013-7-31T11:7:32Z</time></trkpt>
<trkpt lat="46.112800000" lon="7.012420000"><ele></ele><time>2013-7-31T11:7:35Z</time></trkpt>
<trkpt lat="46.112770000" lon="7.012430000"><ele></ele><time>2013-7-31T11:7:38Z</time></trkpt>
<trkpt lat="46.112760000" lon="7.012430000"><ele></ele><time>2013-7-31T11:7:41Z</time></trkpt>
<trkpt lat="46.112740000" lon="7.012430000"><ele></ele><time>2013-7-31T11:7:44Z</time></trkpt>
<trkpt lat="46.112720000" lon="7.012420000"><ele></ele><time>2013-7-31T11:7:47Z</time></trkpt>
<trkpt lat="46.112700000" lon="7.012420000"><ele></ele><time>2013-7-31T11:7:50Z</time></trkpt>
<trkpt lat="46.112670000" lon="7.012410000"><ele></ele><time>2013-7-31T11:7:53Z</time></trkpt>
<trkpt lat="46.112630000" lon="7.012400000"><ele></ele><time>2013-7-31T11:7:56Z</time></trkpt>
<trkpt lat="46.112590000" lon="7.012400000"><ele></ele><time>2013-7-31T11:7:59Z</time></trkpt>
<trkpt lat="46.112570000" lon="7.012390000"><ele></ele><time>2013-7-31T11:8:2Z</time></trkpt>
<trkpt lat="46.112550000" lon="7.012380000"><ele></ele><time>2013-7-31T11:8:5Z</time></trkpt>
<trkpt lat="46.112510000" lon="7.012370000"><ele></ele><time>2013-7-31T11:8:8Z</time></trkpt>
<trkpt lat="46.112410000" lon="7.012300000"><ele></ele><time>2013-7-31T11:8:11Z</time></trkpt>
<trkpt lat="46.112300000" lon="7.012190000"><ele></ele><time>2013-7-31T11:8:14Z</time></trkpt>
<trkpt lat="46.112160000" lon="7.012050000"><ele></ele><time>2013-7-31T11:8:17Z</time></trkpt>
<trkpt lat="46.112090000" lon="7.011990000"><ele></ele><time>2013-7-31T11:8:20Z</time></trkpt>
<trkpt lat="46.111970000" lon="7.011920000"><ele></ele><time>2013-7-31T11:8:23Z</time></trkpt>
<trkpt lat="46.111940000" lon="7.011890000"><ele></ele><time>2013-7-31T11:8:26Z</time></trkpt>
<trkpt lat="46.111780000" lon="7.011800000"><ele></ele><time>2013-7-31T11:8:29Z</time></trkpt>
<trkpt lat="46.111760000" lon="7.011780000"><ele></ele><time>2013-7-31T11:8:32Z</time></trkpt>
<trkpt lat="46.111740000" lon="7.011760000"><ele></ele><time>2013-7-31T11:8:35Z</time></trkpt>
<trkpt lat="46.111710000" lon="7.011750000"><ele></ele><time>2013-7-31T11:8:38Z</time></trkpt>
<trkpt lat="46.111700000" lon="7.011730000"><ele></ele><time>2013-7-31T11:8:41Z</time></trkpt>
<trkpt lat="46.111680000" lon="7.011720000"><ele></ele><time>2013-7-31T11:8:44Z</time></trkpt>
<trkpt lat="46.111660000" lon="7.011710000"><ele></ele><time>2013-7-31T11:8:47Z</time></trkpt>
<trkpt lat="46.111540000" lon="7.011620000"><ele></ele><time>2013-7-31T11:8:50Z</time></trkpt>
<trkpt lat="46.111520000" lon="7.011600000"><ele></ele><time>2013-7-31T11:8:53Z</time></trkpt>
<trkpt lat="46.111490000" lon="7.011600000"><ele></ele><time>2013-7-31T11:8:56Z</time></trkpt>
<trkpt lat="46.111480000" lon="7.011570000"><ele></ele><time>2013-7-31T11:8:59Z</time></trkpt>
<trkpt lat="46.111420000" lon="7.011450000"><ele></ele><time>2013-7-31T11:9:2Z</time></trkpt>
<trkpt lat="46.111420000" lon="7.011420000"><ele></ele><time>2013-7-31T11:9:5Z</time></trkpt>
<trkpt lat="46.111420000" lon="7.011380000"><ele></ele><time>2013-7-31T11:9:8Z</time></trkpt>
<trkpt lat="46.111420000" lon="7.011350000"><ele></ele><time>2013-7-31T11:9:11Z</time></trkpt>
<trkpt lat="46.111420000" lon="7.011320000"><ele></ele><time>2013-7-31T11:9:14Z</time></trkpt>
<trkpt lat="46.111390000" lon="7.011220000"><ele></ele><time>2013-7-31T11:9:17Z</time></trkpt>
<trkpt lat="46.111380000" lon="7.011190000"><ele></ele><time>2013-7-31T11:9:20Z</time></trkpt>
<trkpt lat="46.111370000" lon="7.011150000"><ele></ele><time>2013-7-31T11:9:23Z</time></trkpt>
<trkpt lat="46.111370000" lon="7.011120000"><ele></ele><time>2013-7-31T11:9:26Z</time></trkpt>
<trkpt lat="46.111350000" lon="7.011090000"><ele></ele><time>2013-7-31T11:9:29Z</time></trkpt>
<trkpt lat="46.111320000" lon="7.011020000"><ele></ele><time>2013-7-31T11:9:32Z</time></trkpt>
<trkpt lat="46.111240000" lon="7.010910000"><ele></ele><time>2013-7-31T11:9:35Z</time></trkpt>
<trkpt lat="46.111230000" lon="7.010890000"><ele></ele><time>2013-7-31T11:9:38Z</time></trkpt>
<trkpt lat="46.111200000" lon="7.010860000"><ele></ele><time>2013-7-31T11:9:41Z</time></trkpt>
<trkpt lat="46.111180000" lon="7.010840000"><ele></ele><time>2013-7-31T11:9:44Z</time></trkpt>
<trkpt lat="46.111070000" lon="7.010740000"><ele></ele><time>2013-7-31T11:9:47Z</time></trkpt>
<trkpt lat="46.111050000" lon="7.010720000"><ele></ele><time>2013-7-31T11:9:50Z</time></trkpt>
<trkpt lat="46.110970000" lon="7.010620000"><ele></ele><time>2013-7-31T11:9:53Z</time></trkpt>
<trkpt lat="46.110950000" lon="7.010600000"><ele></ele><time>2013-7-31T11:9:56Z</time></trkpt>
<trkpt lat="46.110940000" lon="7.010570000"><ele></ele><time>2013-7-31T11:9:59Z</time></trkpt>
<trkpt lat="46.110920000" lon="7.010550000"><ele></ele><time>2013-7-31T11:10:2Z</time></trkpt>
<trkpt lat="46.110910000" lon="7.010520000"><ele></ele><time>2013-7-31T11:10:5Z</time></trkpt>
<trkpt lat="46.110890000" lon="7.010500000"><ele></ele><time>2013-7-31T11:10:8Z</time></trkpt>
<trkpt lat="46.110750000" lon="7.010360000"><ele></ele><time>2013-7-31T11:10:11Z</time></trkpt>
<trkpt lat="46.110720000" lon="7.010340000"><ele></ele><time>2013-7-31T11:10:14Z</time></trkpt>
<trkpt lat="46.110700000" lon="7.010320000"><ele></ele><time>2013-7-31T11:10:17Z</time></trkpt>
<trkpt lat="46.110670000" lon="7.010300000"><ele></ele><time>2013-7-31T11:10:20Z</time></trkpt>
<trkpt lat="46.110660000" lon="7.010270000"><ele></ele><time>2013-7-31T11:10:23Z</time></trkpt>
<trkpt lat="46.110610000" lon="7.010240000"><ele></ele><time>2013-7-31T11:10:26Z</time></trkpt>
<trkpt lat="46.110490000" lon="7.010030000"><ele></ele><time>2013-7-31T11:10:29Z</time></trkpt>
<trkpt lat="46.110440000" lon="7.009980000"><ele></ele><time>2013-7-31T11:10:32Z</time></trkpt>
<trkpt lat="46.110420000" lon="7.009950000"><ele></ele><time>2013-7-31T11:10:35Z</time></trkpt>
<trkpt lat="46.110400000" lon="7.009920000"><ele></ele><time>2013-7-31T11:10:38Z</time></trkpt>
<trkpt lat="46.110390000" lon="7.009890000"><ele></ele><time>2013-7-31T11:10:41Z</time></trkpt>
<trkpt lat="46.110370000" lon="7.009870000"><ele></ele><time>2013-7-31T11:10:44Z</time></trkpt>
<trkpt lat="46.110340000" lon="7.009830000"><ele></ele><time>2013-7-31T11:10:47Z</time></trkpt>
<trkpt lat="46.110140000" lon="7.009620000"><ele></ele><time>2013-7-31T11:10:50Z</time></trkpt>
<trkpt lat="46.110020000" lon="7.009500000"><ele></ele><time>2013-7-31T11:10:53Z</time></trkpt>
<trkpt lat="46.109940000" lon="7.009420000"><ele></ele><time>2013-7-31T11:10:56Z</time></trkpt>
<trkpt lat="46.109820000" lon="7.009290000"><ele></ele><time>2013-7-31T11:10:59Z</time></trkpt>
<trkpt lat="46.109740000" lon="7.009230000"><ele></ele><time>2013-7-31T11:11:2Z</time></trkpt>
<trkpt lat="46.109640000" lon="7.009140000"><ele></ele><time>2013-7-31T11:11:5Z</time></trkpt>
<trkpt lat="46.109620000" lon="7.009120000"><ele></ele><time>2013-7-31T11:11:8Z</time></trkpt>
<trkpt lat="46.109590000" lon="7.009100000"><ele></ele><time>2013-7-31T11:11:11Z</time></trkpt>
<trkpt lat="46.109570000" lon="7.009070000"><ele></ele><time>2013-7-31T11:11:14Z</time></trkpt>
<trkpt lat="46.109550000" lon="7.009050000"><ele></ele><time>2013-7-31T11:11:17Z</time></trkpt>
<trkpt lat="46.109460000" lon="7.008960000"><ele></ele><time>2013-7-31T11:11:20Z</time></trkpt>
<trkpt lat="46.109420000" lon="7.008910000"><ele></ele><time>2013-7-31T11:11:23Z</time></trkpt>
<trkpt lat="46.109410000" lon="7.008880000"><ele></ele><time>2013-7-31T11:11:26Z</time></trkpt>
<trkpt lat="46.109380000" lon="7.008860000"><ele></ele><time>2013-7-31T11:11:29Z</time></trkpt>
<trkpt lat="46.109360000" lon="7.008830000"><ele></ele><time>2013-7-31T11:11:32Z</time></trkpt>
<trkpt lat="46.109330000" lon="7.008810000"><ele></ele><time>2013-7-31T11:11:35Z</time></trkpt>
<trkpt lat="46.109200000" lon="7.008670000"><ele></ele><time>2013-7-31T11:11:38Z</time></trkpt>
<trkpt lat="46.109150000" lon="7.008630000"><ele></ele><time>2013-7-31T11:11:41Z</time></trkpt>
<trkpt lat="46.109130000" lon="7.008610000"><ele></ele><time>2013-7-31T11:11:44Z</time></trkpt>
<trkpt lat="46.109100000" lon="7.008590000"><ele></ele><time>2013-7-31T11:11:47Z</time></trkpt>
<trkpt lat="46.109080000" lon="7.008570000"><ele></ele><time>2013-7-31T11:11:50Z</time></trkpt>
<trkpt lat="46.109050000" lon="7.008560000"><ele></ele><time>2013-7-31T11:11:53Z</time></trkpt>
<trkpt lat="46.108880000" lon="7.008470000"><ele></ele><time>2013-7-31T11:11:56Z</time></trkpt>
<trkpt lat="46.108690000" lon="7.008350000"><ele></ele><time>2013-7-31T11:11:59Z</time></trkpt>
<trkpt lat="46.108510000" lon="7.008220000"><ele></ele><time>2013-7-31T11:12:2Z</time></trkpt>
<trkpt lat="46.108470000" lon="7.008170000"><ele></ele><time>2013-7-31T11:12:5Z</time></trkpt>
<trkpt lat="46.108390000" lon="7.007960000"><ele></ele><time>2013-7-31T11:12:8Z</time></trkpt>
<trkpt lat="46.108370000" lon="7.007880000"><ele></ele><time>2013-7-31T11:12:11Z</time></trkpt>
<trkpt lat="46.108350000" lon="7.007810000"><ele></ele><time>2013-7-31T11:12:14Z</time></trkpt>
<trkpt lat="46.108310000" lon="7.007730000"><ele></ele><time>2013-7-31T11:12:17Z</time></trkpt>
<trkpt lat="46.108260000" lon="7.007650000"><ele></ele><time>2013-7-31T11:12:20Z</time></trkpt>
<trkpt lat="46.108200000" lon="7.007580000"><ele></ele><time>2013-7-31T11:12:23Z</time></trkpt>
<trkpt lat="46.108140000" lon="7.007510000"><ele></ele><time>2013-7-31T11:12:26Z</time></trkpt>
<trkpt lat="46.108070000" lon="7.007430000"><ele></ele><time>2013-7-31T11:12:29Z</time></trkpt>
<trkpt lat="46.108010000" lon="7.007340000"><ele></ele><time>2013-7-31T11:12:32Z</time></trkpt>
<trkpt lat="46.107960000" lon="7.007240000"><ele></ele><time>2013-7-31T11:12:35Z</time></trkpt>
<trkpt lat="46.107900000" lon="7.007130000"><ele></ele><time>2013-7-31T11:12:38Z</time></trkpt>
<trkpt lat="46.107850000" lon="7.007030000"><ele></ele><time>2013-7-31T11:12:41Z</time></trkpt>
<trkpt lat="46.107810000" lon="7.006920000"><ele></ele><time>2013-7-31T11:12:44Z</time></trkpt>
<trkpt lat="46.107770000" lon="7.006810000"><ele></ele><time>2013-7-31T11:12:47Z</time></trkpt>
<trkpt lat="46.107720000" lon="7.006710000"><ele></ele><time>2013-7-31T11:12:50Z</time></trkpt>
<trkpt lat="46.107530000" lon="7.006490000"><ele></ele><time>2013-7-31T11:12:53Z</time></trkpt>
<trkpt lat="46.107280000" lon="7.006200000"><ele></ele><time>2013-7-31T11:12:56Z</time></trkpt>
<trkpt lat="46.107070000" lon="7.005880000"><ele></ele><time>2013-7-31T11:12:59Z</time></trkpt>
<trkpt lat="46.107020000" lon="7.005810000"><ele></ele><time>2013-7-31T11:13:2Z</time></trkpt>
<trkpt lat="46.106960000" lon="7.005740000"><ele></ele><time>2013-7-31T11:13:5Z</time></trkpt>
<trkpt lat="46.106900000" lon="7.005680000"><ele></ele><time>2013-7-31T11:13:8Z</time></trkpt>
<trkpt lat="46.106850000" lon="7.005610000"><ele></ele><time>2013-7-31T11:13:11Z</time></trkpt>
<trkpt lat="46.106790000" lon="7.005540000"><ele></ele><time>2013-7-31T11:13:14Z</time></trkpt>
<trkpt lat="46.106680000" lon="7.005390000"><ele></ele><time>2013-7-31T11:13:17Z</time></trkpt>
<trkpt lat="46.106640000" lon="7.005310000"><ele></ele><time>2013-7-31T11:13:20Z</time></trkpt>
<trkpt lat="46.106590000" lon="7.005230000"><ele></ele><time>2013-7-31T11:13:23Z</time></trkpt>
<trkpt lat="46.106550000" lon="7.005150000"><ele></ele><time>2013-7-31T11:13:26Z</time></trkpt>
<trkpt lat="46.106510000" lon="7.005070000"><ele></ele><time>2013-7-31T11:13:29Z</time></trkpt>
<trkpt lat="46.106440000" lon="7.004890000"><ele></ele><time>2013-7-31T11:13:32Z</time></trkpt>
<trkpt lat="46.106410000" lon="7.004680000"><ele></ele><time>2013-7-31T11:13:35Z</time></trkpt>
<trkpt lat="46.106350000" lon="7.004290000"><ele></ele><time>2013-7-31T11:13:38Z</time></trkpt>
<trkpt lat="46.106340000" lon="7.004200000"><ele></ele><time>2013-7-31T11:13:41Z</time></trkpt>
<trkpt lat="46.106320000" lon="7.004100000"><ele></ele><time>2013-7-31T11:13:44Z</time></trkpt>
<trkpt lat="46.106300000" lon="7.004000000"><ele></ele><time>2013-7-31T11:13:47Z</time></trkpt>
<trkpt lat="46.106280000" lon="7.003910000"><ele></ele><time>2013-7-31T11:13:50Z</time></trkpt>
<trkpt lat="46.106250000" lon="7.003820000"><ele></ele><time>2013-7-31T11:13:53Z</time></trkpt>
<trkpt lat="46.106170000" lon="7.003660000"><ele></ele><time>2013-7-31T11:13:56Z</time></trkpt>
<trkpt lat="46.105970000" lon="7.003340000"><ele></ele><time>2013-7-31T11:13:59Z</time></trkpt>
<trkpt lat="46.105920000" lon="7.003260000"><ele></ele><time>2013-7-31T11:14:2Z</time></trkpt>
<trkpt lat="46.105870000" lon="7.003180000"><ele></ele><time>2013-7-31T11:14:5Z</time></trkpt>
<trkpt lat="46.105810000" lon="7.003100000"><ele></ele><time>2013-7-31T11:14:8Z</time></trkpt>
<trkpt lat="46.105700000" lon="7.002960000"><ele></ele><time>2013-7-31T11:14:11Z</time></trkpt>
<trkpt lat="46.105630000" lon="7.002890000"><ele></ele><time>2013-7-31T11:14:14Z</time></trkpt>
<trkpt lat="46.105560000" lon="7.002830000"><ele></ele><time>2013-7-31T11:14:17Z</time></trkpt>
<trkpt lat="46.105500000" lon="7.002780000"><ele></ele><time>2013-7-31T11:14:20Z</time></trkpt>
<trkpt lat="46.105430000" lon="7.002730000"><ele></ele><time>2013-7-31T11:14:23Z</time></trkpt>
<trkpt lat="46.105370000" lon="7.002680000"><ele></ele><time>2013-7-31T11:14:26Z</time></trkpt>
<trkpt lat="46.105300000" lon="7.002620000"><ele></ele><time>2013-7-31T11:14:29Z</time></trkpt>
<trkpt lat="46.105240000" lon="7.002560000"><ele></ele><time>2013-7-31T11:14:32Z</time></trkpt>
<trkpt lat="46.105180000" lon="7.002500000"><ele></ele><time>2013-7-31T11:14:35Z</time></trkpt>
<trkpt lat="46.105130000" lon="7.002440000"><ele></ele><time>2013-7-31T11:14:38Z</time></trkpt>
<trkpt lat="46.104930000" lon="7.002320000"><ele></ele><time>2013-7-31T11:14:41Z</time></trkpt>
<trkpt lat="46.104860000" lon="7.002290000"><ele></ele><time>2013-7-31T11:14:44Z</time></trkpt>
<trkpt lat="46.104660000" lon="7.002180000"><ele></ele><time>2013-7-31T11:14:47Z</time></trkpt>
<trkpt lat="46.104600000" lon="7.002120000"><ele></ele><time>2013-7-31T11:14:50Z</time></trkpt>
<trkpt lat="46.104530000" lon="7.002060000"><ele></ele><time>2013-7-31T11:14:53Z</time></trkpt>
<trkpt lat="46.104480000" lon="7.001990000"><ele></ele><time>2013-7-31T11:14:56Z</time></trkpt>
<trkpt lat="46.104420000" lon="7.001930000"><ele></ele><time>2013-7-31T11:14:59Z</time></trkpt>
<trkpt lat="46.104290000" lon="7.001810000"><ele></ele><time>2013-7-31T11:15:2Z</time></trkpt>
<trkpt lat="46.104230000" lon="7.001750000"><ele></ele><time>2013-7-31T11:15:5Z</time></trkpt>
<trkpt lat="46.104160000" lon="7.001700000"><ele></ele><time>2013-7-31T11:15:8Z</time></trkpt>
<trkpt lat="46.104090000" lon="7.001650000"><ele></ele><time>2013-7-31T11:15:11Z</time></trkpt>
<trkpt lat="46.104020000" lon="7.001610000"><ele></ele><time>2013-7-31T11:15:14Z</time></trkpt>
<trkpt lat="46.103950000" lon="7.001550000"><ele></ele><time>2013-7-31T11:15:17Z</time></trkpt>
<trkpt lat="46.103880000" lon="7.001500000"><ele></ele><time>2013-7-31T11:15:20Z</time></trkpt>
<trkpt lat="46.103770000" lon="7.001340000"><ele></ele><time>2013-7-31T11:15:23Z</time></trkpt>
<trkpt lat="46.103740000" lon="7.001250000"><ele></ele><time>2013-7-31T11:15:26Z</time></trkpt>
<trkpt lat="46.103720000" lon="7.001160000"><ele></ele><time>2013-7-31T11:15:29Z</time></trkpt>
<trkpt lat="46.103710000" lon="7.001050000"><ele></ele><time>2013-7-31T11:15:32Z</time></trkpt>
<trkpt lat="46.103730000" lon="7.000950000"><ele></ele><time>2013-7-31T11:15:35Z</time></trkpt>
<trkpt lat="46.103760000" lon="7.000850000"><ele></ele><time>2013-7-31T11:15:38Z</time></trkpt>
<trkpt lat="46.103790000" lon="7.000750000"><ele></ele><time>2013-7-31T11:15:41Z</time></trkpt>
<trkpt lat="46.103830000" lon="7.000660000"><ele></ele><time>2013-7-31T11:15:44Z</time></trkpt>
<trkpt lat="46.103860000" lon="7.000560000"><ele></ele><time>2013-7-31T11:15:47Z</time></trkpt>
<trkpt lat="46.104060000" lon="6.999990000"><ele></ele><time>2013-7-31T11:15:50Z</time></trkpt>
<trkpt lat="46.104190000" lon="6.999590000"><ele></ele><time>2013-7-31T11:15:53Z</time></trkpt>
<trkpt lat="46.104240000" lon="6.999360000"><ele></ele><time>2013-7-31T11:15:56Z</time></trkpt>
<trkpt lat="46.104240000" lon="6.999310000"><ele></ele><time>2013-7-31T11:15:59Z</time></trkpt>
<trkpt lat="46.104200000" lon="6.999160000"><ele></ele><time>2013-7-31T11:16:2Z</time></trkpt>
<trkpt lat="46.104130000" lon="6.999110000"><ele></ele><time>2013-7-31T11:16:5Z</time></trkpt>
<trkpt lat="46.104090000" lon="6.999010000"><ele></ele><time>2013-7-31T11:16:8Z</time></trkpt>
<trkpt lat="46.103940000" lon="6.998740000"><ele></ele><time>2013-7-31T11:16:11Z</time></trkpt>
<trkpt lat="46.103680000" lon="6.998590000"><ele></ele><time>2013-7-31T11:16:14Z</time></trkpt>
<trkpt lat="46.103500000" lon="6.998660000"><ele></ele><time>2013-7-31T11:16:17Z</time></trkpt>
<trkpt lat="46.103440000" lon="6.998700000"><ele></ele><time>2013-7-31T11:16:20Z</time></trkpt>
<trkpt lat="46.103080000" lon="6.999000000"><ele></ele><time>2013-7-31T11:16:23Z</time></trkpt>
<trkpt lat="46.103040000" lon="6.999050000"><ele></ele><time>2013-7-31T11:16:26Z</time></trkpt>
<trkpt lat="46.103010000" lon="6.999120000"><ele></ele><time>2013-7-31T11:16:29Z</time></trkpt>
<trkpt lat="46.102990000" lon="6.999190000"><ele></ele><time>2013-7-31T11:16:32Z</time></trkpt>
<trkpt lat="46.102960000" lon="6.999250000"><ele></ele><time>2013-7-31T11:16:35Z</time></trkpt>
<trkpt lat="46.102870000" lon="6.999300000"><ele></ele><time>2013-7-31T11:16:38Z</time></trkpt>
<trkpt lat="46.102820000" lon="6.999320000"><ele></ele><time>2013-7-31T11:16:41Z</time></trkpt>
<trkpt lat="46.102660000" lon="6.999360000"><ele></ele><time>2013-7-31T11:16:44Z</time></trkpt>
<trkpt lat="46.102600000" lon="6.999350000"><ele></ele><time>2013-7-31T11:16:47Z</time></trkpt>
<trkpt lat="46.102490000" lon="6.999310000"><ele></ele><time>2013-7-31T11:16:50Z</time></trkpt>
<trkpt lat="46.102300000" lon="6.999200000"><ele></ele><time>2013-7-31T11:16:53Z</time></trkpt>
<trkpt lat="46.102260000" lon="6.999150000"><ele></ele><time>2013-7-31T11:16:56Z</time></trkpt>
<trkpt lat="46.102120000" lon="6.998930000"><ele></ele><time>2013-7-31T11:16:59Z</time></trkpt>
<trkpt lat="46.102040000" lon="6.998830000"><ele></ele><time>2013-7-31T11:17:2Z</time></trkpt>
<trkpt lat="46.102020000" lon="6.998770000"><ele></ele><time>2013-7-31T11:17:5Z</time></trkpt>
<trkpt lat="46.101990000" lon="6.998650000"><ele></ele><time>2013-7-31T11:17:8Z</time></trkpt>
<trkpt lat="46.102010000" lon="6.998580000"><ele></ele><time>2013-7-31T11:17:11Z</time></trkpt>
<trkpt lat="46.102020000" lon="6.998450000"><ele></ele><time>2013-7-31T11:17:14Z</time></trkpt>
<trkpt lat="46.102000000" lon="6.998330000"><ele></ele><time>2013-7-31T11:17:17Z</time></trkpt>
<trkpt lat="46.101840000" lon="6.998110000"><ele></ele><time>2013-7-31T11:17:20Z</time></trkpt>
<trkpt lat="46.101800000" lon="6.998080000"><ele></ele><time>2013-7-31T11:17:23Z</time></trkpt>
<trkpt lat="46.101770000" lon="6.998060000"><ele></ele><time>2013-7-31T11:17:26Z</time></trkpt>
<trkpt lat="46.101740000" lon="6.998030000"><ele></ele><time>2013-7-31T11:17:29Z</time></trkpt>
<trkpt lat="46.101700000" lon="6.998000000"><ele></ele><time>2013-7-31T11:17:32Z</time></trkpt>
<trkpt lat="46.101600000" lon="6.997950000"><ele></ele><time>2013-7-31T11:17:35Z</time></trkpt>
<trkpt lat="46.101520000" lon="6.997880000"><ele></ele><time>2013-7-31T11:17:38Z</time></trkpt>
<trkpt lat="46.101460000" lon="6.997840000"><ele></ele><time>2013-7-31T11:17:41Z</time></trkpt>
<trkpt lat="46.101430000" lon="6.997820000"><ele></ele><time>2013-7-31T11:17:44Z</time></trkpt>
<trkpt lat="46.101410000" lon="6.997810000"><ele></ele><time>2013-7-31T11:17:47Z</time></trkpt>
<trkpt lat="46.101380000" lon="6.997790000"><ele></ele><time>2013-7-31T11:17:50Z</time></trkpt>
<trkpt lat="46.101350000" lon="6.997770000"><ele></ele><time>2013-7-31T11:17:53Z</time></trkpt>
<trkpt lat="46.101290000" lon="6.997710000"><ele></ele><time>2013-7-31T11:17:56Z</time></trkpt>
<trkpt lat="46.101200000" lon="6.997600000"><ele></ele><time>2013-7-31T11:17:59Z</time></trkpt>
<trkpt lat="46.101170000" lon="6.997570000"><ele></ele><time>2013-7-31T11:18:2Z</time></trkpt>
<trkpt lat="46.101150000" lon="6.997540000"><ele></ele><time>2013-7-31T11:18:5Z</time></trkpt>
<trkpt lat="46.101120000" lon="6.997510000"><ele></ele><time>2013-7-31T11:18:8Z</time></trkpt>
<trkpt lat="46.101100000" lon="6.997470000"><ele></ele><time>2013-7-31T11:18:11Z</time></trkpt>
<trkpt lat="46.101050000" lon="6.997410000"><ele></ele><time>2013-7-31T11:18:14Z</time></trkpt>
<trkpt lat="46.100910000" lon="6.997230000"><ele></ele><time>2013-7-31T11:18:17Z</time></trkpt>
<trkpt lat="46.100880000" lon="6.997200000"><ele></ele><time>2013-7-31T11:18:20Z</time></trkpt>
<trkpt lat="46.100860000" lon="6.997170000"><ele></ele><time>2013-7-31T11:18:23Z</time></trkpt>
<trkpt lat="46.100830000" lon="6.997140000"><ele></ele><time>2013-7-31T11:18:26Z</time></trkpt>
<trkpt lat="46.100810000" lon="6.997100000"><ele></ele><time>2013-7-31T11:18:29Z</time></trkpt>
<trkpt lat="46.100740000" lon="6.997010000"><ele></ele><time>2013-7-31T11:18:32Z</time></trkpt>
<trkpt lat="46.100680000" lon="6.996910000"><ele></ele><time>2013-7-31T11:18:35Z</time></trkpt>
<trkpt lat="46.100660000" lon="6.996870000"><ele></ele><time>2013-7-31T11:18:38Z</time></trkpt>
<trkpt lat="46.100640000" lon="6.996840000"><ele></ele><time>2013-7-31T11:18:41Z</time></trkpt>
<trkpt lat="46.100610000" lon="6.996810000"><ele></ele><time>2013-7-31T11:18:44Z</time></trkpt>
<trkpt lat="46.100590000" lon="6.996780000"><ele></ele><time>2013-7-31T11:18:47Z</time></trkpt>
<trkpt lat="46.100400000" lon="6.996620000"><ele></ele><time>2013-7-31T11:18:50Z</time></trkpt>
<trkpt lat="46.100300000" lon="6.996540000"><ele></ele><time>2013-7-31T11:18:53Z</time></trkpt>
<trkpt lat="46.100280000" lon="6.996510000"><ele></ele><time>2013-7-31T11:18:56Z</time></trkpt>
<trkpt lat="46.100270000" lon="6.996490000"><ele></ele><time>2013-7-31T11:18:59Z</time></trkpt>
<trkpt lat="46.100250000" lon="6.996470000"><ele></ele><time>2013-7-31T11:19:2Z</time></trkpt>
<trkpt lat="46.100230000" lon="6.996460000"><ele></ele><time>2013-7-31T11:19:5Z</time></trkpt>
<trkpt lat="46.100150000" lon="6.996370000"><ele></ele><time>2013-7-31T11:19:8Z</time></trkpt>
<trkpt lat="46.100130000" lon="6.996350000"><ele></ele><time>2013-7-31T11:19:11Z</time></trkpt>
<trkpt lat="46.100100000" lon="6.996380000"><ele></ele><time>2013-7-31T11:19:14Z</time></trkpt>
<trkpt lat="46.100160000" lon="6.996460000"><ele></ele><time>2013-7-31T11:19:17Z</time></trkpt>
<trkpt lat="46.100190000" lon="6.996480000"><ele></ele><time>2013-7-31T11:19:20Z</time></trkpt>
<trkpt lat="46.100320000" lon="6.996570000"><ele></ele><time>2013-7-31T11:19:23Z</time></trkpt>
<trkpt lat="46.100510000" lon="6.996730000"><ele></ele><time>2013-7-31T11:19:26Z</time></trkpt>
<trkpt lat="46.100580000" lon="6.996800000"><ele></ele><time>2013-7-31T11:19:29Z</time></trkpt>
<trkpt lat="46.100690000" lon="6.996950000"><ele></ele><time>2013-7-31T11:19:32Z</time></trkpt>
<trkpt lat="46.100720000" lon="6.997010000"><ele></ele><time>2013-7-31T11:19:35Z</time></trkpt>
<trkpt lat="46.100760000" lon="6.997070000"><ele></ele><time>2013-7-31T11:19:38Z</time></trkpt>
<trkpt lat="46.100800000" lon="6.997140000"><ele></ele><time>2013-7-31T11:19:41Z</time></trkpt>
<trkpt lat="46.100840000" lon="6.997210000"><ele></ele><time>2013-7-31T11:19:44Z</time></trkpt>
<trkpt lat="46.100890000" lon="6.997270000"><ele></ele><time>2013-7-31T11:19:47Z</time></trkpt>
<trkpt lat="46.100930000" lon="6.997330000"><ele></ele><time>2013-7-31T11:19:50Z</time></trkpt>
<trkpt lat="46.100980000" lon="6.997380000"><ele></ele><time>2013-7-31T11:19:53Z</time></trkpt>
<trkpt lat="46.101020000" lon="6.997430000"><ele></ele><time>2013-7-31T11:19:56Z</time></trkpt>
<trkpt lat="46.101160000" lon="6.997610000"><ele></ele><time>2013-7-31T11:19:59Z</time></trkpt>
<trkpt lat="46.101210000" lon="6.997670000"><ele></ele><time>2013-7-31T11:20:2Z</time></trkpt>
<trkpt lat="46.101260000" lon="6.997720000"><ele></ele><time>2013-7-31T11:20:5Z</time></trkpt>
<trkpt lat="46.101310000" lon="6.997770000"><ele></ele><time>2013-7-31T11:20:8Z</time></trkpt>
<trkpt lat="46.101360000" lon="6.997810000"><ele></ele><time>2013-7-31T11:20:11Z</time></trkpt>
<trkpt lat="46.101420000" lon="6.997850000"><ele></ele><time>2013-7-31T11:20:14Z</time></trkpt>
<trkpt lat="46.101470000" lon="6.997880000"><ele></ele><time>2013-7-31T11:20:17Z</time></trkpt>
<trkpt lat="46.101520000" lon="6.997920000"><ele></ele><time>2013-7-31T11:20:20Z</time></trkpt>
<trkpt lat="46.101580000" lon="6.997950000"><ele></ele><time>2013-7-31T11:20:23Z</time></trkpt>
<trkpt lat="46.101630000" lon="6.998000000"><ele></ele><time>2013-7-31T11:20:26Z</time></trkpt>
<trkpt lat="46.101690000" lon="6.998040000"><ele></ele><time>2013-7-31T11:20:29Z</time></trkpt>
<trkpt lat="46.101810000" lon="6.998140000"><ele></ele><time>2013-7-31T11:20:32Z</time></trkpt>
<trkpt lat="46.101870000" lon="6.998200000"><ele></ele><time>2013-7-31T11:20:35Z</time></trkpt>
<trkpt lat="46.101920000" lon="6.998250000"><ele></ele><time>2013-7-31T11:20:38Z</time></trkpt>
<trkpt lat="46.101970000" lon="6.998310000"><ele></ele><time>2013-7-31T11:20:41Z</time></trkpt>
<trkpt lat="46.102010000" lon="6.998370000"><ele></ele><time>2013-7-31T11:20:44Z</time></trkpt>
<trkpt lat="46.102030000" lon="6.998430000"><ele></ele><time>2013-7-31T11:20:47Z</time></trkpt>
<trkpt lat="46.102020000" lon="6.998650000"><ele></ele><time>2013-7-31T11:20:50Z</time></trkpt>
<trkpt lat="46.102020000" lon="6.998830000"><ele></ele><time>2013-7-31T11:20:53Z</time></trkpt>
<trkpt lat="46.102080000" lon="6.998940000"><ele></ele><time>2013-7-31T11:20:56Z</time></trkpt>
<trkpt lat="46.102140000" lon="6.999040000"><ele></ele><time>2013-7-31T11:20:59Z</time></trkpt>
<trkpt lat="46.102180000" lon="6.999090000"><ele></ele><time>2013-7-31T11:21:2Z</time></trkpt>
<trkpt lat="46.102290000" lon="6.999220000"><ele></ele><time>2013-7-31T11:21:5Z</time></trkpt>
<trkpt lat="46.102410000" lon="6.999310000"><ele></ele><time>2013-7-31T11:21:8Z</time></trkpt>
<trkpt lat="46.102620000" lon="6.999420000"><ele></ele><time>2013-7-31T11:21:11Z</time></trkpt>
<trkpt lat="46.102660000" lon="6.999430000"><ele></ele><time>2013-7-31T11:21:14Z</time></trkpt>
<trkpt lat="46.102750000" lon="6.999420000"><ele></ele><time>2013-7-31T11:21:17Z</time></trkpt>
<trkpt lat="46.102900000" lon="6.999400000"><ele></ele><time>2013-7-31T11:21:20Z</time></trkpt>
<trkpt lat="46.102940000" lon="6.999380000"><ele></ele><time>2013-7-31T11:21:23Z</time></trkpt>
<trkpt lat="46.103030000" lon="6.999230000"><ele></ele><time>2013-7-31T11:21:26Z</time></trkpt>
<trkpt lat="46.103060000" lon="6.999170000"><ele></ele><time>2013-7-31T11:21:29Z</time></trkpt>
<trkpt lat="46.103090000" lon="6.999130000"><ele></ele><time>2013-7-31T11:21:32Z</time></trkpt>
<trkpt lat="46.103180000" lon="6.999030000"><ele></ele><time>2013-7-31T11:21:35Z</time></trkpt>
<trkpt lat="46.103340000" lon="6.998890000"><ele></ele><time>2013-7-31T11:21:38Z</time></trkpt>
<trkpt lat="46.103400000" lon="6.998830000"><ele></ele><time>2013-7-31T11:21:41Z</time></trkpt>
<trkpt lat="46.103500000" lon="6.998710000"><ele></ele><time>2013-7-31T11:21:44Z</time></trkpt>
<trkpt lat="46.103650000" lon="6.998630000"><ele></ele><time>2013-7-31T11:21:47Z</time></trkpt>
<trkpt lat="46.103700000" lon="6.998630000"><ele></ele><time>2013-7-31T11:21:50Z</time></trkpt>
<trkpt lat="46.103830000" lon="6.998730000"><ele></ele><time>2013-7-31T11:21:53Z</time></trkpt>
<trkpt lat="46.103870000" lon="6.998770000"><ele></ele><time>2013-7-31T11:21:56Z</time></trkpt>
<trkpt lat="46.103950000" lon="6.999030000"><ele></ele><time>2013-7-31T11:21:59Z</time></trkpt>
<trkpt lat="46.103970000" lon="6.999510000"><ele></ele><time>2013-7-31T11:22:2Z</time></trkpt>
<trkpt lat="46.103980000" lon="6.999580000"><ele></ele><time>2013-7-31T11:22:5Z</time></trkpt>
<trkpt lat="46.104020000" lon="6.999780000"><ele></ele><time>2013-7-31T11:22:8Z</time></trkpt>
<trkpt lat="46.104020000" lon="7.000040000"><ele></ele><time>2013-7-31T11:22:11Z</time></trkpt>
<trkpt lat="46.103990000" lon="7.000170000"><ele></ele><time>2013-7-31T11:22:14Z</time></trkpt>
<trkpt lat="46.103890000" lon="7.000550000"><ele></ele><time>2013-7-31T11:22:17Z</time></trkpt>
<trkpt lat="46.103750000" lon="7.000740000"><ele></ele><time>2013-7-31T11:22:20Z</time></trkpt>
<trkpt lat="46.103720000" lon="7.000800000"><ele></ele><time>2013-7-31T11:22:23Z</time></trkpt>
<trkpt lat="46.103700000" lon="7.000870000"><ele></ele><time>2013-7-31T11:22:26Z</time></trkpt>
<trkpt lat="46.103690000" lon="7.000950000"><ele></ele><time>2013-7-31T11:22:29Z</time></trkpt>
<trkpt lat="46.103690000" lon="7.001020000"><ele></ele><time>2013-7-31T11:22:32Z</time></trkpt>
<trkpt lat="46.103690000" lon="7.001140000"><ele></ele><time>2013-7-31T11:22:35Z</time></trkpt>
<trkpt lat="46.103770000" lon="7.001390000"><ele></ele><time>2013-7-31T11:22:38Z</time></trkpt>
<trkpt lat="46.103790000" lon="7.001430000"><ele></ele><time>2013-7-31T11:22:41Z</time></trkpt>
<trkpt lat="46.103820000" lon="7.001460000"><ele></ele><time>2013-7-31T11:22:44Z</time></trkpt>
<trkpt lat="46.103840000" lon="7.001500000"><ele></ele><time>2013-7-31T11:22:47Z</time></trkpt>
<trkpt lat="46.103880000" lon="7.001530000"><ele></ele><time>2013-7-31T11:22:50Z</time></trkpt>
<trkpt lat="46.103910000" lon="7.001560000"><ele></ele><time>2013-7-31T11:22:53Z</time></trkpt>
<trkpt lat="46.103950000" lon="7.001580000"><ele></ele><time>2013-7-31T11:22:56Z</time></trkpt>
<trkpt lat="46.104060000" lon="7.001650000"><ele></ele><time>2013-7-31T11:22:59Z</time></trkpt>
<trkpt lat="46.104100000" lon="7.001670000"><ele></ele><time>2013-7-31T11:23:2Z</time></trkpt>
<trkpt lat="46.104130000" lon="7.001690000"><ele></ele><time>2013-7-31T11:23:5Z</time></trkpt>
<trkpt lat="46.104160000" lon="7.001710000"><ele></ele><time>2013-7-31T11:23:8Z</time></trkpt>
<trkpt lat="46.104190000" lon="7.001740000"><ele></ele><time>2013-7-31T11:23:11Z</time></trkpt>
<trkpt lat="46.104230000" lon="7.001760000"><ele></ele><time>2013-7-31T11:23:14Z</time></trkpt>
<trkpt lat="46.104340000" lon="7.001850000"><ele></ele><time>2013-7-31T11:23:17Z</time></trkpt>
<trkpt lat="46.104430000" lon="7.001920000"><ele></ele><time>2013-7-31T11:23:20Z</time></trkpt>
<trkpt lat="46.104550000" lon="7.002020000"><ele></ele><time>2013-7-31T11:23:23Z</time></trkpt>
<trkpt lat="46.104580000" lon="7.002050000"><ele></ele><time>2013-7-31T11:23:26Z</time></trkpt>
<trkpt lat="46.104610000" lon="7.002080000"><ele></ele><time>2013-7-31T11:23:29Z</time></trkpt>
<trkpt lat="46.104640000" lon="7.002110000"><ele></ele><time>2013-7-31T11:23:32Z</time></trkpt>
<trkpt lat="46.104680000" lon="7.002140000"><ele></ele><time>2013-7-31T11:23:35Z</time></trkpt>
<trkpt lat="46.104760000" lon="7.002200000"><ele></ele><time>2013-7-31T11:23:38Z</time></trkpt>
<trkpt lat="46.104980000" lon="7.002320000"><ele></ele><time>2013-7-31T11:23:41Z</time></trkpt>
<trkpt lat="46.105010000" lon="7.002350000"><ele></ele><time>2013-7-31T11:23:44Z</time></trkpt>
<trkpt lat="46.105050000" lon="7.002370000"><ele></ele><time>2013-7-31T11:23:47Z</time></trkpt>
<trkpt lat="46.105090000" lon="7.002400000"><ele></ele><time>2013-7-31T11:23:50Z</time></trkpt>
<trkpt lat="46.105120000" lon="7.002430000"><ele></ele><time>2013-7-31T11:23:53Z</time></trkpt>
<trkpt lat="46.105280000" lon="7.002590000"><ele></ele><time>2013-7-31T11:23:56Z</time></trkpt>
<trkpt lat="46.105420000" lon="7.002730000"><ele></ele><time>2013-7-31T11:23:59Z</time></trkpt>
<trkpt lat="46.105450000" lon="7.002750000"><ele></ele><time>2013-7-31T11:24:2Z</time></trkpt>
<trkpt lat="46.105480000" lon="7.002780000"><ele></ele><time>2013-7-31T11:24:5Z</time></trkpt>
<trkpt lat="46.105510000" lon="7.002800000"><ele></ele><time>2013-7-31T11:24:8Z</time></trkpt>
<trkpt lat="46.105550000" lon="7.002820000"><ele></ele><time>2013-7-31T11:24:11Z</time></trkpt>
<trkpt lat="46.105750000" lon="7.003020000"><ele></ele><time>2013-7-31T11:24:14Z</time></trkpt>
<trkpt lat="46.105850000" lon="7.003150000"><ele></ele><time>2013-7-31T11:24:17Z</time></trkpt>
<trkpt lat="46.105880000" lon="7.003190000"><ele></ele><time>2013-7-31T11:24:20Z</time></trkpt>
<trkpt lat="46.105900000" lon="7.003220000"><ele></ele><time>2013-7-31T11:24:23Z</time></trkpt>
<trkpt lat="46.105930000" lon="7.003260000"><ele></ele><time>2013-7-31T11:24:26Z</time></trkpt>
<trkpt lat="46.105950000" lon="7.003300000"><ele></ele><time>2013-7-31T11:24:29Z</time></trkpt>
<trkpt lat="46.105970000" lon="7.003340000"><ele></ele><time>2013-7-31T11:24:32Z</time></trkpt>
<trkpt lat="46.106140000" lon="7.003600000"><ele></ele><time>2013-7-31T11:24:35Z</time></trkpt>
<trkpt lat="46.106220000" lon="7.003760000"><ele></ele><time>2013-7-31T11:24:38Z</time></trkpt>
<trkpt lat="46.106250000" lon="7.003800000"><ele></ele><time>2013-7-31T11:24:41Z</time></trkpt>
<trkpt lat="46.106270000" lon="7.003850000"><ele></ele><time>2013-7-31T11:24:44Z</time></trkpt>
<trkpt lat="46.106290000" lon="7.003890000"><ele></ele><time>2013-7-31T11:24:47Z</time></trkpt>
<trkpt lat="46.106300000" lon="7.003940000"><ele></ele><time>2013-7-31T11:24:50Z</time></trkpt>
<trkpt lat="46.106330000" lon="7.004160000"><ele></ele><time>2013-7-31T11:24:53Z</time></trkpt>
<trkpt lat="46.106370000" lon="7.004420000"><ele></ele><time>2013-7-31T11:24:56Z</time></trkpt>
<trkpt lat="46.106380000" lon="7.004480000"><ele></ele><time>2013-7-31T11:24:59Z</time></trkpt>
<trkpt lat="46.106380000" lon="7.004540000"><ele></ele><time>2013-7-31T11:25:2Z</time></trkpt>
<trkpt lat="46.106400000" lon="7.004590000"><ele></ele><time>2013-7-31T11:25:5Z</time></trkpt>
<trkpt lat="46.106400000" lon="7.004640000"><ele></ele><time>2013-7-31T11:25:8Z</time></trkpt>
<trkpt lat="46.106440000" lon="7.004870000"><ele></ele><time>2013-7-31T11:25:11Z</time></trkpt>
<trkpt lat="46.106490000" lon="7.005030000"><ele></ele><time>2013-7-31T11:25:14Z</time></trkpt>
<trkpt lat="46.106550000" lon="7.005160000"><ele></ele><time>2013-7-31T11:25:17Z</time></trkpt>
<trkpt lat="46.106680000" lon="7.005390000"><ele></ele><time>2013-7-31T11:25:20Z</time></trkpt>
<trkpt lat="46.106710000" lon="7.005430000"><ele></ele><time>2013-7-31T11:25:23Z</time></trkpt>
<trkpt lat="46.106740000" lon="7.005480000"><ele></ele><time>2013-7-31T11:25:26Z</time></trkpt>
<trkpt lat="46.106770000" lon="7.005520000"><ele></ele><time>2013-7-31T11:25:29Z</time></trkpt>
<trkpt lat="46.106800000" lon="7.005560000"><ele></ele><time>2013-7-31T11:25:32Z</time></trkpt>
<trkpt lat="46.106920000" lon="7.005710000"><ele></ele><time>2013-7-31T11:25:35Z</time></trkpt>
<trkpt lat="46.107110000" lon="7.005930000"><ele></ele><time>2013-7-31T11:25:38Z</time></trkpt>
<trkpt lat="46.107270000" lon="7.006180000"><ele></ele><time>2013-7-31T11:25:41Z</time></trkpt>
<trkpt lat="46.107320000" lon="7.006260000"><ele></ele><time>2013-7-31T11:25:44Z</time></trkpt>
<trkpt lat="46.107350000" lon="7.006300000"><ele></ele><time>2013-7-31T11:25:47Z</time></trkpt>
<trkpt lat="46.107370000" lon="7.006340000"><ele></ele><time>2013-7-31T11:25:50Z</time></trkpt>
<trkpt lat="46.107400000" lon="7.006380000"><ele></ele><time>2013-7-31T11:25:53Z</time></trkpt>
<trkpt lat="46.107430000" lon="7.006410000"><ele></ele><time>2013-7-31T11:25:56Z</time></trkpt>
<trkpt lat="46.107560000" lon="7.006530000"><ele></ele><time>2013-7-31T11:25:59Z</time></trkpt>
<trkpt lat="46.107750000" lon="7.006740000"><ele></ele><time>2013-7-31T11:26:2Z</time></trkpt>
<trkpt lat="46.107840000" lon="7.006980000"><ele></ele><time>2013-7-31T11:26:5Z</time></trkpt>
<trkpt lat="46.107860000" lon="7.007030000"><ele></ele><time>2013-7-31T11:26:8Z</time></trkpt>
<trkpt lat="46.107880000" lon="7.007080000"><ele></ele><time>2013-7-31T11:26:11Z</time></trkpt>
<trkpt lat="46.107890000" lon="7.007130000"><ele></ele><time>2013-7-31T11:26:14Z</time></trkpt>
<trkpt lat="46.107960000" lon="7.007270000"><ele></ele><time>2013-7-31T11:26:17Z</time></trkpt>
<trkpt lat="46.108110000" lon="7.007500000"><ele></ele><time>2013-7-31T11:26:20Z</time></trkpt>
<trkpt lat="46.108140000" lon="7.007530000"><ele></ele><time>2013-7-31T11:26:23Z</time></trkpt>
<trkpt lat="46.108160000" lon="7.007560000"><ele></ele><time>2013-7-31T11:26:26Z</time></trkpt>
<trkpt lat="46.108180000" lon="7.007590000"><ele></ele><time>2013-7-31T11:26:29Z</time></trkpt>
<trkpt lat="46.108210000" lon="7.007610000"><ele></ele><time>2013-7-31T11:26:32Z</time></trkpt>
<trkpt lat="46.108230000" lon="7.007640000"><ele></ele><time>2013-7-31T11:26:35Z</time></trkpt>
<trkpt lat="46.108250000" lon="7.007660000"><ele></ele><time>2013-7-31T11:26:38Z</time></trkpt>
<trkpt lat="46.108270000" lon="7.007690000"><ele></ele><time>2013-7-31T11:26:41Z</time></trkpt>
<trkpt lat="46.108300000" lon="7.007720000"><ele></ele><time>2013-7-31T11:26:44Z</time></trkpt>
<trkpt lat="46.108320000" lon="7.007750000"><ele></ele><time>2013-7-31T11:26:47Z</time></trkpt>
<trkpt lat="46.108390000" lon="7.007850000"><ele></ele><time>2013-7-31T11:26:50Z</time></trkpt>
<trkpt lat="46.108420000" lon="7.007910000"><ele></ele><time>2013-7-31T11:26:53Z</time></trkpt>
<trkpt lat="46.108430000" lon="7.007960000"><ele></ele><time>2013-7-31T11:26:56Z</time></trkpt>
<trkpt lat="46.108440000" lon="7.008000000"><ele></ele><time>2013-7-31T11:26:59Z</time></trkpt>
<trkpt lat="46.108440000" lon="7.008040000"><ele></ele><time>2013-7-31T11:27:2Z</time></trkpt>
<trkpt lat="46.108460000" lon="7.008080000"><ele></ele><time>2013-7-31T11:27:5Z</time></trkpt>
<trkpt lat="46.108510000" lon="7.008170000"><ele></ele><time>2013-7-31T11:27:8Z</time></trkpt>
<trkpt lat="46.108520000" lon="7.008200000"><ele></ele><time>2013-7-31T11:27:11Z</time></trkpt>
<trkpt lat="46.108540000" lon="7.008220000"><ele></ele><time>2013-7-31T11:27:14Z</time></trkpt>
<trkpt lat="46.108560000" lon="7.008240000"><ele></ele><time>2013-7-31T11:27:17Z</time></trkpt>
<trkpt lat="46.108580000" lon="7.008260000"><ele></ele><time>2013-7-31T11:27:20Z</time></trkpt>
<trkpt lat="46.108600000" lon="7.008280000"><ele></ele><time>2013-7-31T11:27:23Z</time></trkpt>
<trkpt lat="46.108730000" lon="7.008390000"><ele></ele><time>2013-7-31T11:27:26Z</time></trkpt>
<trkpt lat="46.108750000" lon="7.008410000"><ele></ele><time>2013-7-31T11:27:29Z</time></trkpt>
<trkpt lat="46.108780000" lon="7.008430000"><ele></ele><time>2013-7-31T11:27:32Z</time></trkpt>
<trkpt lat="46.108800000" lon="7.008460000"><ele></ele><time>2013-7-31T11:27:35Z</time></trkpt>
<trkpt lat="46.108830000" lon="7.008480000"><ele></ele><time>2013-7-31T11:27:38Z</time></trkpt>
<trkpt lat="46.108910000" lon="7.008520000"><ele></ele><time>2013-7-31T11:27:41Z</time></trkpt>
<trkpt lat="46.109020000" lon="7.008580000"><ele></ele><time>2013-7-31T11:27:44Z</time></trkpt>
<trkpt lat="46.109120000" lon="7.008630000"><ele></ele><time>2013-7-31T11:27:47Z</time></trkpt>
<trkpt lat="46.109170000" lon="7.008670000"><ele></ele><time>2013-7-31T11:27:50Z</time></trkpt>
<trkpt lat="46.109210000" lon="7.008710000"><ele></ele><time>2013-7-31T11:27:53Z</time></trkpt>
<trkpt lat="46.109260000" lon="7.008760000"><ele></ele><time>2013-7-31T11:27:56Z</time></trkpt>
<trkpt lat="46.109310000" lon="7.008810000"><ele></ele><time>2013-7-31T11:27:59Z</time></trkpt>
<trkpt lat="46.109360000" lon="7.008880000"><ele></ele><time>2013-7-31T11:28:2Z</time></trkpt>
<trkpt lat="46.109410000" lon="7.008940000"><ele></ele><time>2013-7-31T11:28:5Z</time></trkpt>
<trkpt lat="46.109460000" lon="7.009000000"><ele></ele><time>2013-7-31T11:28:8Z</time></trkpt>
<trkpt lat="46.109510000" lon="7.009060000"><ele></ele><time>2013-7-31T11:28:11Z</time></trkpt>
<trkpt lat="46.109570000" lon="7.009120000"><ele></ele><time>2013-7-31T11:28:14Z</time></trkpt>
<trkpt lat="46.109630000" lon="7.009170000"><ele></ele><time>2013-7-31T11:28:17Z</time></trkpt>
<trkpt lat="46.109690000" lon="7.009240000"><ele></ele><time>2013-7-31T11:28:20Z</time></trkpt>
<trkpt lat="46.109750000" lon="7.009300000"><ele></ele><time>2013-7-31T11:28:23Z</time></trkpt>
<trkpt lat="46.109810000" lon="7.009360000"><ele></ele><time>2013-7-31T11:28:26Z</time></trkpt>
<trkpt lat="46.109870000" lon="7.009420000"><ele></ele><time>2013-7-31T11:28:29Z</time></trkpt>
<trkpt lat="46.109930000" lon="7.009480000"><ele></ele><time>2013-7-31T11:28:32Z</time></trkpt>
<trkpt lat="46.109990000" lon="7.009540000"><ele></ele><time>2013-7-31T11:28:35Z</time></trkpt>
<trkpt lat="46.110060000" lon="7.009610000"><ele></ele><time>2013-7-31T11:28:38Z</time></trkpt>
<trkpt lat="46.110120000" lon="7.009670000"><ele></ele><time>2013-7-31T11:28:41Z</time></trkpt>
<trkpt lat="46.110180000" lon="7.009730000"><ele></ele><time>2013-7-31T11:28:44Z</time></trkpt>
<trkpt lat="46.110240000" lon="7.009780000"><ele></ele><time>2013-7-31T11:28:47Z</time></trkpt>
<trkpt lat="46.110300000" lon="7.009840000"><ele></ele><time>2013-7-31T11:28:50Z</time></trkpt>
<trkpt lat="46.110350000" lon="7.009890000"><ele></ele><time>2013-7-31T11:28:53Z</time></trkpt>
<trkpt lat="46.110400000" lon="7.009950000"><ele></ele><time>2013-7-31T11:28:56Z</time></trkpt>
<trkpt lat="46.110480000" lon="7.010060000"><ele></ele><time>2013-7-31T11:28:59Z</time></trkpt>
<trkpt lat="46.110520000" lon="7.010130000"><ele></ele><time>2013-7-31T11:29:2Z</time></trkpt>
<trkpt lat="46.110560000" lon="7.010190000"><ele></ele><time>2013-7-31T11:29:5Z</time></trkpt>
<trkpt lat="46.110600000" lon="7.010240000"><ele></ele><time>2013-7-31T11:29:8Z</time></trkpt>
<trkpt lat="46.110650000" lon="7.010300000"><ele></ele><time>2013-7-31T11:29:11Z</time></trkpt>
<trkpt lat="46.110820000" lon="7.010480000"><ele></ele><time>2013-7-31T11:29:14Z</time></trkpt>
<trkpt lat="46.110870000" lon="7.010550000"><ele></ele><time>2013-7-31T11:29:17Z</time></trkpt>
<trkpt lat="46.110940000" lon="7.010620000"><ele></ele><time>2013-7-31T11:29:20Z</time></trkpt>
<trkpt lat="46.111000000" lon="7.010680000"><ele></ele><time>2013-7-31T11:29:23Z</time></trkpt>
<trkpt lat="46.111050000" lon="7.010750000"><ele></ele><time>2013-7-31T11:29:26Z</time></trkpt>
<trkpt lat="46.111110000" lon="7.010820000"><ele></ele><time>2013-7-31T11:29:29Z</time></trkpt>
<trkpt lat="46.111170000" lon="7.010890000"><ele></ele><time>2013-7-31T11:29:32Z</time></trkpt>
<trkpt lat="46.111230000" lon="7.010960000"><ele></ele><time>2013-7-31T11:29:35Z</time></trkpt>
<trkpt lat="46.111290000" lon="7.011030000"><ele></ele><time>2013-7-31T11:29:38Z</time></trkpt>
<trkpt lat="46.111340000" lon="7.011110000"><ele></ele><time>2013-7-31T11:29:41Z</time></trkpt>
<trkpt lat="46.111380000" lon="7.011190000"><ele></ele><time>2013-7-31T11:29:44Z</time></trkpt>
<trkpt lat="46.111410000" lon="7.011280000"><ele></ele><time>2013-7-31T11:29:47Z</time></trkpt>
<trkpt lat="46.111430000" lon="7.011380000"><ele></ele><time>2013-7-31T11:29:50Z</time></trkpt>
<trkpt lat="46.111450000" lon="7.011470000"><ele></ele><time>2013-7-31T11:29:53Z</time></trkpt>
<trkpt lat="46.111510000" lon="7.011640000"><ele></ele><time>2013-7-31T11:29:56Z</time></trkpt>
<trkpt lat="46.111570000" lon="7.011700000"><ele></ele><time>2013-7-31T11:29:59Z</time></trkpt>
<trkpt lat="46.111630000" lon="7.011750000"><ele></ele><time>2013-7-31T11:30:2Z</time></trkpt>
<trkpt lat="46.111710000" lon="7.011800000"><ele></ele><time>2013-7-31T11:30:5Z</time></trkpt>
<trkpt lat="46.111790000" lon="7.011850000"><ele></ele><time>2013-7-31T11:30:8Z</time></trkpt>
<trkpt lat="46.111880000" lon="7.011910000"><ele></ele><time>2013-7-31T11:30:11Z</time></trkpt>
<trkpt lat="46.111970000" lon="7.011960000"><ele></ele><time>2013-7-31T11:30:14Z</time></trkpt>
<trkpt lat="46.112050000" lon="7.012020000"><ele></ele><time>2013-7-31T11:30:17Z</time></trkpt>
<trkpt lat="46.112130000" lon="7.012080000"><ele></ele><time>2013-7-31T11:30:20Z</time></trkpt>
<trkpt lat="46.112210000" lon="7.012150000"><ele></ele><time>2013-7-31T11:30:23Z</time></trkpt>
<trkpt lat="46.112270000" lon="7.012230000"><ele></ele><time>2013-7-31T11:30:26Z</time></trkpt>
<trkpt lat="46.112320000" lon="7.012300000"><ele></ele><time>2013-7-31T11:30:29Z</time></trkpt>
<trkpt lat="46.112380000" lon="7.012360000"><ele></ele><time>2013-7-31T11:30:32Z</time></trkpt>
<trkpt lat="46.112440000" lon="7.012400000"><ele></ele><time>2013-7-31T11:30:35Z</time></trkpt>
<trkpt lat="46.112500000" lon="7.012430000"><ele></ele><time>2013-7-31T11:30:38Z</time></trkpt>
<trkpt lat="46.112560000" lon="7.012460000"><ele></ele><time>2013-7-31T11:30:41Z</time></trkpt>
<trkpt lat="46.112630000" lon="7.012480000"><ele></ele><time>2013-7-31T11:30:44Z</time></trkpt>
<trkpt lat="46.112690000" lon="7.012490000"><ele></ele><time>2013-7-31T11:30:47Z</time></trkpt>
<trkpt lat="46.112770000" lon="7.012500000"><ele></ele><time>2013-7-31T11:30:50Z</time></trkpt>
<trkpt lat="46.112840000" lon="7.012490000"><ele></ele><time>2013-7-31T11:30:53Z</time></trkpt>
<trkpt lat="46.112910000" lon="7.012460000"><ele></ele><time>2013-7-31T11:30:56Z</time></trkpt>
<trkpt lat="46.112980000" lon="7.012410000"><ele></ele><time>2013-7-31T11:30:59Z</time></trkpt>
<trkpt lat="46.113050000" lon="7.012350000"><ele></ele><time>2013-7-31T11:31:2Z</time></trkpt>
<trkpt lat="46.113120000" lon="7.012300000"><ele></ele><time>2013-7-31T11:31:5Z</time></trkpt>
<trkpt lat="46.113180000" lon="7.012280000"><ele></ele><time>2013-7-31T11:31:8Z</time></trkpt>
<trkpt lat="46.113240000" lon="7.012290000"><ele></ele><time>2013-7-31T11:31:11Z</time></trkpt>
<trkpt lat="46.113390000" lon="7.012310000"><ele></ele><time>2013-7-31T11:31:14Z</time></trkpt>
<trkpt lat="46.113470000" lon="7.012330000"><ele></ele><time>2013-7-31T11:31:17Z</time></trkpt>
<trkpt lat="46.113500000" lon="7.012340000"><ele></ele><time>2013-7-31T11:31:20Z</time></trkpt>
<trkpt lat="46.113530000" lon="7.012350000"><ele></ele><time>2013-7-31T11:31:23Z</time></trkpt>
<trkpt lat="46.113550000" lon="7.012360000"><ele></ele><time>2013-7-31T11:31:26Z</time></trkpt>
<trkpt lat="46.113580000" lon="7.012370000"><ele></ele><time>2013-7-31T11:31:29Z</time></trkpt>
<trkpt lat="46.113610000" lon="7.012380000"><ele></ele><time>2013-7-31T11:31:32Z</time></trkpt>
<trkpt lat="46.113640000" lon="7.012390000"><ele></ele><time>2013-7-31T11:31:35Z</time></trkpt>
<trkpt lat="46.113670000" lon="7.012400000"><ele></ele><time>2013-7-31T11:31:38Z</time></trkpt>
<trkpt lat="46.113690000" lon="7.012410000"><ele></ele><time>2013-7-31T11:31:41Z</time></trkpt>
<trkpt lat="46.113760000" lon="7.012420000"><ele></ele><time>2013-7-31T11:31:44Z</time></trkpt>
<trkpt lat="46.113790000" lon="7.012430000"><ele></ele><time>2013-7-31T11:31:47Z</time></trkpt>
<trkpt lat="46.113820000" lon="7.012430000"><ele></ele><time>2013-7-31T11:31:50Z</time></trkpt>
<trkpt lat="46.113850000" lon="7.012440000"><ele></ele><time>2013-7-31T11:31:53Z</time></trkpt>
<trkpt lat="46.113880000" lon="7.012450000"><ele></ele><time>2013-7-31T11:31:56Z</time></trkpt>
<trkpt lat="46.113930000" lon="7.012460000"><ele></ele><time>2013-7-31T11:31:59Z</time></trkpt>
<trkpt lat="46.113950000" lon="7.012450000"><ele></ele><time>2013-7-31T11:32:2Z</time></trkpt>
<trkpt lat="46.113980000" lon="7.012450000"><ele></ele><time>2013-7-31T11:32:5Z</time></trkpt>
<trkpt lat="46.113990000" lon="7.012460000"><ele></ele><time>2013-7-31T11:32:8Z</time></trkpt>
<trkpt lat="46.114040000" lon="7.012470000"><ele></ele><time>2013-7-31T11:32:11Z</time></trkpt>
<trkpt lat="46.114060000" lon="7.012470000"><ele></ele><time>2013-7-31T11:32:14Z</time></trkpt>
<trkpt lat="46.114080000" lon="7.012480000"><ele></ele><time>2013-7-31T11:32:17Z</time></trkpt>
<trkpt lat="46.114100000" lon="7.012480000"><ele></ele><time>2013-7-31T11:32:20Z</time></trkpt>
<trkpt lat="46.114120000" lon="7.012480000"><ele></ele><time>2013-7-31T11:32:23Z</time></trkpt>
<trkpt lat="46.114160000" lon="7.012480000"><ele></ele><time>2013-7-31T11:32:26Z</time></trkpt>
<trkpt lat="46.114200000" lon="7.012480000"><ele></ele><time>2013-7-31T11:32:29Z</time></trkpt>
<trkpt lat="46.114230000" lon="7.012480000"><ele></ele><time>2013-7-31T11:32:32Z</time></trkpt>
<trkpt lat="46.114260000" lon="7.012480000"><ele></ele><time>2013-7-31T11:32:35Z</time></trkpt>
<trkpt lat="46.114290000" lon="7.012470000"><ele></ele><time>2013-7-31T11:32:38Z</time></trkpt>
<trkpt lat="46.114320000" lon="7.012470000"><ele></ele><time>2013-7-31T11:32:41Z</time></trkpt>
<trkpt lat="46.114380000" lon="7.012440000"><ele></ele><time>2013-7-31T11:32:44Z</time></trkpt>
<trkpt lat="46.114430000" lon="7.012420000"><ele></ele><time>2013-7-31T11:32:47Z</time></trkpt>
<trkpt lat="46.114480000" lon="7.012400000"><ele></ele><time>2013-7-31T11:32:50Z</time></trkpt>
<trkpt lat="46.114510000" lon="7.012390000"><ele></ele><time>2013-7-31T11:32:53Z</time></trkpt>
<trkpt lat="46.114540000" lon="7.012390000"><ele></ele><time>2013-7-31T11:32:56Z</time></trkpt>
<trkpt lat="46.114560000" lon="7.012370000"><ele></ele><time>2013-7-31T11:32:59Z</time></trkpt>
<trkpt lat="46.114710000" lon="7.012340000"><ele></ele><time>2013-7-31T11:33:2Z</time></trkpt>
<trkpt lat="46.114770000" lon="7.012330000"><ele></ele><time>2013-7-31T11:33:5Z</time></trkpt>
<trkpt lat="46.114800000" lon="7.012340000"><ele></ele><time>2013-7-31T11:33:8Z</time></trkpt>
<trkpt lat="46.114820000" lon="7.012340000"><ele></ele><time>2013-7-31T11:33:11Z</time></trkpt>
<trkpt lat="46.114850000" lon="7.012350000"><ele></ele><time>2013-7-31T11:33:14Z</time></trkpt>
<trkpt lat="46.114880000" lon="7.012360000"><ele></ele><time>2013-7-31T11:33:17Z</time></trkpt>
<trkpt lat="46.114940000" lon="7.012370000"><ele></ele><time>2013-7-31T11:33:20Z</time></trkpt>
<trkpt lat="46.115100000" lon="7.012440000"><ele></ele><time>2013-7-31T11:33:23Z</time></trkpt>
<trkpt lat="46.115130000" lon="7.012460000"><ele></ele><time>2013-7-31T11:33:26Z</time></trkpt>
<trkpt lat="46.115150000" lon="7.012470000"><ele></ele><time>2013-7-31T11:33:29Z</time></trkpt>
<trkpt lat="46.115180000" lon="7.012480000"><ele></ele><time>2013-7-31T11:33:32Z</time></trkpt>
<trkpt lat="46.115210000" lon="7.012490000"><ele></ele><time>2013-7-31T11:33:35Z</time></trkpt>
<trkpt lat="46.115250000" lon="7.012520000"><ele></ele><time>2013-7-31T11:33:38Z</time></trkpt>
<trkpt lat="46.115380000" lon="7.012520000"><ele></ele><time>2013-7-31T11:33:41Z</time></trkpt>
<trkpt lat="46.115400000" lon="7.012500000"><ele></ele><time>2013-7-31T11:33:44Z</time></trkpt>
<trkpt lat="46.115420000" lon="7.012470000"><ele></ele><time>2013-7-31T11:33:47Z</time></trkpt>
<trkpt lat="46.115440000" lon="7.012440000"><ele></ele><time>2013-7-31T11:33:50Z</time></trkpt>
<trkpt lat="46.115470000" lon="7.012420000"><ele></ele><time>2013-7-31T11:33:53Z</time></trkpt>
<trkpt lat="46.115490000" lon="7.012410000"><ele></ele><time>2013-7-31T11:33:56Z</time></trkpt>
<trkpt lat="46.115610000" lon="7.012390000"><ele></ele><time>2013-7-31T11:33:59Z</time></trkpt>
<trkpt lat="46.115650000" lon="7.012400000"><ele></ele><time>2013-7-31T11:34:2Z</time></trkpt>
<trkpt lat="46.115730000" lon="7.012410000"><ele></ele><time>2013-7-31T11:34:5Z</time></trkpt>
<trkpt lat="46.115750000" lon="7.012420000"><ele></ele><time>2013-7-31T11:34:8Z</time></trkpt>
<trkpt lat="46.115780000" lon="7.012420000"><ele></ele><time>2013-7-31T11:34:11Z</time></trkpt>
<trkpt lat="46.115800000" lon="7.012430000"><ele></ele><time>2013-7-31T11:34:14Z</time></trkpt>
<trkpt lat="46.115940000" lon="7.012470000"><ele></ele><time>2013-7-31T11:34:17Z</time></trkpt>
<trkpt lat="46.115970000" lon="7.012470000"><ele></ele><time>2013-7-31T11:34:20Z</time></trkpt>
<trkpt lat="46.115990000" lon="7.012480000"><ele></ele><time>2013-7-31T11:34:23Z</time></trkpt>
<trkpt lat="46.116010000" lon="7.012480000"><ele></ele><time>2013-7-31T11:34:26Z</time></trkpt>
<trkpt lat="46.116030000" lon="7.012480000"><ele></ele><time>2013-7-31T11:34:29Z</time></trkpt>
<trkpt lat="46.116080000" lon="7.012500000"><ele></ele><time>2013-7-31T11:34:32Z</time></trkpt>
<trkpt lat="46.116230000" lon="7.012530000"><ele></ele><time>2013-7-31T11:34:35Z</time></trkpt>
<trkpt lat="46.116470000" lon="7.012610000"><ele></ele><time>2013-7-31T11:34:38Z</time></trkpt>
<trkpt lat="46.116640000" lon="7.012680000"><ele></ele><time>2013-7-31T11:34:41Z</time></trkpt>
<trkpt lat="46.116740000" lon="7.012720000"><ele></ele><time>2013-7-31T11:34:44Z</time></trkpt>
<trkpt lat="46.116880000" lon="7.012770000"><ele></ele><time>2013-7-31T11:34:47Z</time></trkpt>
<trkpt lat="46.116920000" lon="7.012780000"><ele></ele><time>2013-7-31T11:34:50Z</time></trkpt>
<trkpt lat="46.116950000" lon="7.012800000"><ele></ele><time>2013-7-31T11:34:53Z</time></trkpt>
<trkpt lat="46.116990000" lon="7.012800000"><ele></ele><time>2013-7-31T11:34:56Z</time></trkpt>
<trkpt lat="46.117030000" lon="7.012820000"><ele></ele><time>2013-7-31T11:34:59Z</time></trkpt>
<trkpt lat="46.117150000" lon="7.012900000"><ele></ele><time>2013-7-31T11:35:2Z</time></trkpt>
<trkpt lat="46.117180000" lon="7.012930000"><ele></ele><time>2013-7-31T11:35:5Z</time></trkpt>
<trkpt lat="46.117350000" lon="7.013070000"><ele></ele><time>2013-7-31T11:35:8Z</time></trkpt>
<trkpt lat="46.117370000" lon="7.013100000"><ele></ele><time>2013-7-31T11:35:11Z</time></trkpt>
<trkpt lat="46.117400000" lon="7.013120000"><ele></ele><time>2013-7-31T11:35:14Z</time></trkpt>
<trkpt lat="46.117420000" lon="7.013140000"><ele></ele><time>2013-7-31T11:35:17Z</time></trkpt>
<trkpt lat="46.117450000" lon="7.013170000"><ele></ele><time>2013-7-31T11:35:20Z</time></trkpt>
<trkpt lat="46.117490000" lon="7.013210000"><ele></ele><time>2013-7-31T11:35:23Z</time></trkpt>
<trkpt lat="46.117580000" lon="7.013300000"><ele></ele><time>2013-7-31T11:35:26Z</time></trkpt>
<trkpt lat="46.117610000" lon="7.013310000"><ele></ele><time>2013-7-31T11:35:29Z</time></trkpt>
<trkpt lat="46.117630000" lon="7.013330000"><ele></ele><time>2013-7-31T11:35:32Z</time></trkpt>
<trkpt lat="46.117650000" lon="7.013360000"><ele></ele><time>2013-7-31T11:35:35Z</time></trkpt>
<trkpt lat="46.117670000" lon="7.013380000"><ele></ele><time>2013-7-31T11:35:38Z</time></trkpt>
<trkpt lat="46.117710000" lon="7.013440000"><ele></ele><time>2013-7-31T11:35:41Z</time></trkpt>
<trkpt lat="46.117830000" lon="7.013600000"><ele></ele><time>2013-7-31T11:35:44Z</time></trkpt>
<trkpt lat="46.117940000" lon="7.013760000"><ele></ele><time>2013-7-31T11:35:47Z</time></trkpt>
<trkpt lat="46.118020000" lon="7.013920000"><ele></ele><time>2013-7-31T11:35:50Z</time></trkpt>
<trkpt lat="46.118050000" lon="7.013950000"><ele></ele><time>2013-7-31T11:35:53Z</time></trkpt>
<trkpt lat="46.118070000" lon="7.013990000"><ele></ele><time>2013-7-31T11:35:56Z</time></trkpt>
<trkpt lat="46.118100000" lon="7.014030000"><ele></ele><time>2013-7-31T11:35:59Z</time></trkpt>
<trkpt lat="46.118130000" lon="7.014060000"><ele></ele><time>2013-7-31T11:36:2Z</time></trkpt>
<trkpt lat="46.118230000" lon="7.014170000"><ele></ele><time>2013-7-31T11:36:5Z</time></trkpt>
<trkpt lat="46.118390000" lon="7.014300000"><ele></ele><time>2013-7-31T11:36:8Z</time></trkpt>
<trkpt lat="46.118420000" lon="7.014330000"><ele></ele><time>2013-7-31T11:36:11Z</time></trkpt>
<trkpt lat="46.118520000" lon="7.014400000"><ele></ele><time>2013-7-31T11:36:14Z</time></trkpt>
<trkpt lat="46.118660000" lon="7.014500000"><ele></ele><time>2013-7-31T11:36:17Z</time></trkpt>
<trkpt lat="46.118810000" lon="7.014630000"><ele></ele><time>2013-7-31T11:36:20Z</time></trkpt>
<trkpt lat="46.118970000" lon="7.014760000"><ele></ele><time>2013-7-31T11:36:23Z</time></trkpt>
<trkpt lat="46.119110000" lon="7.014820000"><ele></ele><time>2013-7-31T11:36:26Z</time></trkpt>
<trkpt lat="46.119140000" lon="7.014830000"><ele></ele><time>2013-7-31T11:36:29Z</time></trkpt>
<trkpt lat="46.119160000" lon="7.014840000"><ele></ele><time>2013-7-31T11:36:32Z</time></trkpt>
<trkpt lat="46.119190000" lon="7.014850000"><ele></ele><time>2013-7-31T11:36:35Z</time></trkpt>
<trkpt lat="46.119290000" lon="7.014890000"><ele></ele><time>2013-7-31T11:36:38Z</time></trkpt>
<trkpt lat="46.119410000" lon="7.014940000"><ele></ele><time>2013-7-31T11:36:41Z</time></trkpt>
<trkpt lat="46.119440000" lon="7.014970000"><ele></ele><time>2013-7-31T11:36:44Z</time></trkpt>
<trkpt lat="46.119480000" lon="7.014980000"><ele></ele><time>2013-7-31T11:36:47Z</time></trkpt>
<trkpt lat="46.119500000" lon="7.015010000"><ele></ele><time>2013-7-31T11:36:50Z</time></trkpt>
<trkpt lat="46.119530000" lon="7.015030000"><ele></ele><time>2013-7-31T11:36:53Z</time></trkpt>
<trkpt lat="46.119610000" lon="7.015120000"><ele></ele><time>2013-7-31T11:36:56Z</time></trkpt>
<trkpt lat="46.119640000" lon="7.015140000"><ele></ele><time>2013-7-31T11:36:59Z</time></trkpt>
<trkpt lat="46.119670000" lon="7.015140000"><ele></ele><time>2013-7-31T11:37:2Z</time></trkpt>
<trkpt lat="46.119680000" lon="7.015170000"><ele></ele><time>2013-7-31T11:37:5Z</time></trkpt>
<trkpt lat="46.119690000" lon="7.015190000"><ele></ele><time>2013-7-31T11:37:8Z</time></trkpt>
<trkpt lat="46.119710000" lon="7.015230000"><ele></ele><time>2013-7-31T11:37:11Z</time></trkpt>
<trkpt lat="46.119750000" lon="7.015370000"><ele></ele><time>2013-7-31T11:37:14Z</time></trkpt>
<trkpt lat="46.119750000" lon="7.015410000"><ele></ele><time>2013-7-31T11:37:17Z</time></trkpt>
<trkpt lat="46.119760000" lon="7.015450000"><ele></ele><time>2013-7-31T11:37:20Z</time></trkpt>
<trkpt lat="46.119770000" lon="7.015480000"><ele></ele><time>2013-7-31T11:37:23Z</time></trkpt>
<trkpt lat="46.119790000" lon="7.015510000"><ele></ele><time>2013-7-31T11:37:26Z</time></trkpt>
<trkpt lat="46.119880000" lon="7.015690000"><ele></ele><time>2013-7-31T11:37:29Z</time></trkpt>
<trkpt lat="46.119990000" lon="7.015750000"><ele></ele><time>2013-7-31T11:37:32Z</time></trkpt>
<trkpt lat="46.120140000" lon="7.015790000"><ele></ele><time>2013-7-31T11:37:35Z</time></trkpt>
<trkpt lat="46.120180000" lon="7.015800000"><ele></ele><time>2013-7-31T11:37:38Z</time></trkpt>
<trkpt lat="46.120310000" lon="7.015860000"><ele></ele><time>2013-7-31T11:37:41Z</time></trkpt>
<trkpt lat="46.120350000" lon="7.015890000"><ele></ele><time>2013-7-31T11:37:44Z</time></trkpt>
<trkpt lat="46.120440000" lon="7.015960000"><ele></ele><time>2013-7-31T11:37:47Z</time></trkpt>
<trkpt lat="46.120680000" lon="7.016140000"><ele></ele><time>2013-7-31T11:37:50Z</time></trkpt>
<trkpt lat="46.120780000" lon="7.016220000"><ele></ele><time>2013-7-31T11:37:53Z</time></trkpt>
<trkpt lat="46.120870000" lon="7.016280000"><ele></ele><time>2013-7-31T11:37:56Z</time></trkpt>
<trkpt lat="46.121010000" lon="7.016370000"><ele></ele><time>2013-7-31T11:37:59Z</time></trkpt>
<trkpt lat="46.121330000" lon="7.016650000"><ele></ele><time>2013-7-31T11:38:2Z</time></trkpt>
<trkpt lat="46.121420000" lon="7.016750000"><ele></ele><time>2013-7-31T11:38:5Z</time></trkpt>
<trkpt lat="46.121490000" lon="7.016840000"><ele></ele><time>2013-7-31T11:38:8Z</time></trkpt>
<trkpt lat="46.121530000" lon="7.016880000"><ele></ele><time>2013-7-31T11:38:11Z</time></trkpt>
<trkpt lat="46.121620000" lon="7.016960000"><ele></ele><time>2013-7-31T11:38:14Z</time></trkpt>
<trkpt lat="46.121790000" lon="7.017090000"><ele></ele><time>2013-7-31T11:38:17Z</time></trkpt>
<trkpt lat="46.121910000" lon="7.017190000"><ele></ele><time>2013-7-31T11:38:20Z</time></trkpt>
<trkpt lat="46.122040000" lon="7.017290000"><ele></ele><time>2013-7-31T11:38:23Z</time></trkpt>
<trkpt lat="46.122090000" lon="7.017320000"><ele></ele><time>2013-7-31T11:38:26Z</time></trkpt>
<trkpt lat="46.122130000" lon="7.017360000"><ele></ele><time>2013-7-31T11:38:29Z</time></trkpt>
<trkpt lat="46.122170000" lon="7.017390000"><ele></ele><time>2013-7-31T11:38:32Z</time></trkpt>
<trkpt lat="46.122220000" lon="7.017420000"><ele></ele><time>2013-7-31T11:38:35Z</time></trkpt>
<trkpt lat="46.122270000" lon="7.017440000"><ele></ele><time>2013-7-31T11:38:38Z</time></trkpt>
<trkpt lat="46.122550000" lon="7.017600000"><ele></ele><time>2013-7-31T11:38:41Z</time></trkpt>
<trkpt lat="46.122670000" lon="7.017680000"><ele></ele><time>2013-7-31T11:38:44Z</time></trkpt>
<trkpt lat="46.122730000" lon="7.017730000"><ele></ele><time>2013-7-31T11:38:47Z</time></trkpt>
<trkpt lat="46.122830000" lon="7.017780000"><ele></ele><time>2013-7-31T11:38:50Z</time></trkpt>
<trkpt lat="46.122860000" lon="7.017790000"><ele></ele><time>2013-7-31T11:38:53Z</time></trkpt>
<trkpt lat="46.122880000" lon="7.017800000"><ele></ele><time>2013-7-31T11:38:56Z</time></trkpt>
<trkpt lat="46.122910000" lon="7.017810000"><ele></ele><time>2013-7-31T11:38:59Z</time></trkpt>
<trkpt lat="46.122940000" lon="7.017820000"><ele></ele><time>2013-7-31T11:39:2Z</time></trkpt>
<trkpt lat="46.122960000" lon="7.017830000"><ele></ele><time>2013-7-31T11:39:5Z</time></trkpt>
<trkpt lat="46.122990000" lon="7.017840000"><ele></ele><time>2013-7-31T11:39:8Z</time></trkpt>
<trkpt lat="46.123020000" lon="7.017860000"><ele></ele><time>2013-7-31T11:39:11Z</time></trkpt>
<trkpt lat="46.123090000" lon="7.017920000"><ele></ele><time>2013-7-31T11:39:14Z</time></trkpt>
<trkpt lat="46.123100000" lon="7.017940000"><ele></ele><time>2013-7-31T11:39:17Z</time></trkpt>
<trkpt lat="46.123120000" lon="7.017960000"><ele></ele><time>2013-7-31T11:39:20Z</time></trkpt>
<trkpt lat="46.123140000" lon="7.017970000"><ele></ele><time>2013-7-31T11:39:23Z</time></trkpt>
<trkpt lat="46.123160000" lon="7.017990000"><ele></ele><time>2013-7-31T11:39:26Z</time></trkpt>
<trkpt lat="46.123200000" lon="7.018050000"><ele></ele><time>2013-7-31T11:39:29Z</time></trkpt>
<trkpt lat="46.123220000" lon="7.018080000"><ele></ele><time>2013-7-31T11:39:32Z</time></trkpt>
<trkpt lat="46.123230000" lon="7.018100000"><ele></ele><time>2013-7-31T11:39:35Z</time></trkpt>
<trkpt lat="46.123250000" lon="7.018130000"><ele></ele><time>2013-7-31T11:39:38Z</time></trkpt>
<trkpt lat="46.123270000" lon="7.018150000"><ele></ele><time>2013-7-31T11:39:41Z</time></trkpt>
<trkpt lat="46.123330000" lon="7.018210000"><ele></ele><time>2013-7-31T11:39:44Z</time></trkpt>
<trkpt lat="46.123340000" lon="7.018240000"><ele></ele><time>2013-7-31T11:39:47Z</time></trkpt>
<trkpt lat="46.123360000" lon="7.018260000"><ele></ele><time>2013-7-31T11:39:50Z</time></trkpt>
<trkpt lat="46.123370000" lon="7.018280000"><ele></ele><time>2013-7-31T11:39:53Z</time></trkpt>
<trkpt lat="46.123380000" lon="7.018310000"><ele></ele><time>2013-7-31T11:39:56Z</time></trkpt>
<trkpt lat="46.123410000" lon="7.018380000"><ele></ele><time>2013-7-31T11:39:59Z</time></trkpt>
<trkpt lat="46.123470000" lon="7.018490000"><ele></ele><time>2013-7-31T11:40:2Z</time></trkpt>
<trkpt lat="46.123480000" lon="7.018520000"><ele></ele><time>2013-7-31T11:40:5Z</time></trkpt>
<trkpt lat="46.123500000" lon="7.018540000"><ele></ele><time>2013-7-31T11:40:8Z</time></trkpt>
<trkpt lat="46.123510000" lon="7.018560000"><ele></ele><time>2013-7-31T11:40:11Z</time></trkpt>
<trkpt lat="46.123530000" lon="7.018590000"><ele></ele><time>2013-7-31T11:40:14Z</time></trkpt>
<trkpt lat="46.123560000" lon="7.018630000"><ele></ele><time>2013-7-31T11:40:17Z</time></trkpt>
<trkpt lat="46.123640000" lon="7.018690000"><ele></ele><time>2013-7-31T11:40:20Z</time></trkpt>
<trkpt lat="46.123710000" lon="7.018730000"><ele></ele><time>2013-7-31T11:40:23Z</time></trkpt>
<trkpt lat="46.123730000" lon="7.018740000"><ele></ele><time>2013-7-31T11:40:26Z</time></trkpt>
<trkpt lat="46.123750000" lon="7.018750000"><ele></ele><time>2013-7-31T11:40:29Z</time></trkpt>
<trkpt lat="46.123780000" lon="7.018760000"><ele></ele><time>2013-7-31T11:40:32Z</time></trkpt>
<trkpt lat="46.123800000" lon="7.018760000"><ele></ele><time>2013-7-31T11:40:35Z</time></trkpt>
<trkpt lat="46.123830000" lon="7.018760000"><ele></ele><time>2013-7-31T11:40:38Z</time></trkpt>
<trkpt lat="46.123850000" lon="7.018770000"><ele></ele><time>2013-7-31T11:40:41Z</time></trkpt>
<trkpt lat="46.123940000" lon="7.018760000"><ele></ele><time>2013-7-31T11:40:44Z</time></trkpt>
<trkpt lat="46.123950000" lon="7.018760000"><ele></ele><time>2013-7-31T11:40:47Z</time></trkpt>
<trkpt lat="46.123970000" lon="7.018750000"><ele></ele><time>2013-7-31T11:40:50Z</time></trkpt>
<trkpt lat="46.123980000" lon="7.018740000"><ele></ele><time>2013-7-31T11:40:53Z</time></trkpt>
<trkpt lat="46.123990000" lon="7.018750000"><ele></ele><time>2013-7-31T11:40:56Z</time></trkpt>
<trkpt lat="46.124020000" lon="7.018750000"><ele></ele><time>2013-7-31T11:40:59Z</time></trkpt>
<trkpt lat="46.124050000" lon="7.018760000"><ele></ele><time>2013-7-31T11:41:2Z</time></trkpt>
<trkpt lat="46.124120000" lon="7.018790000"><ele></ele><time>2013-7-31T11:41:5Z</time></trkpt>
<trkpt lat="46.124140000" lon="7.018800000"><ele></ele><time>2013-7-31T11:41:8Z</time></trkpt>
<trkpt lat="46.124160000" lon="7.018820000"><ele></ele><time>2013-7-31T11:41:11Z</time></trkpt>
<trkpt lat="46.124180000" lon="7.018830000"><ele></ele><time>2013-7-31T11:41:14Z</time></trkpt>
<trkpt lat="46.124190000" lon="7.018850000"><ele></ele><time>2013-7-31T11:41:17Z</time></trkpt>
<trkpt lat="46.124270000" lon="7.018890000"><ele></ele><time>2013-7-31T11:41:20Z</time></trkpt>
<trkpt lat="46.124290000" lon="7.018910000"><ele></ele><time>2013-7-31T11:41:23Z</time></trkpt>
<trkpt lat="46.124320000" lon="7.018930000"><ele></ele><time>2013-7-31T11:41:26Z</time></trkpt>
<trkpt lat="46.124340000" lon="7.018950000"><ele></ele><time>2013-7-31T11:41:29Z</time></trkpt>
<trkpt lat="46.124360000" lon="7.018980000"><ele></ele><time>2013-7-31T11:41:32Z</time></trkpt>
<trkpt lat="46.124400000" lon="7.019020000"><ele></ele><time>2013-7-31T11:41:35Z</time></trkpt>
<trkpt lat="46.124450000" lon="7.019060000"><ele></ele><time>2013-7-31T11:41:38Z</time></trkpt>
<trkpt lat="46.124460000" lon="7.019070000"><ele></ele><time>2013-7-31T11:41:41Z</time></trkpt>
<trkpt lat="46.124470000" lon="7.019080000"><ele></ele><time>2013-7-31T11:41:44Z</time></trkpt>
<trkpt lat="46.124490000" lon="7.019090000"><ele></ele><time>2013-7-31T11:41:47Z</time></trkpt>
<trkpt lat="46.124510000" lon="7.019100000"><ele></ele><time>2013-7-31T11:41:50Z</time></trkpt>
<trkpt lat="46.124530000" lon="7.019100000"><ele></ele><time>2013-7-31T11:41:53Z</time></trkpt>
<trkpt lat="46.124630000" lon="7.019140000"><ele></ele><time>2013-7-31T11:41:56Z</time></trkpt>
<trkpt lat="46.124650000" lon="7.019140000"><ele></ele><time>2013-7-31T11:41:59Z</time></trkpt>
<trkpt lat="46.124660000" lon="7.019140000"><ele></ele><time>2013-7-31T11:42:2Z</time></trkpt>
<trkpt lat="46.124680000" lon="7.019150000"><ele></ele><time>2013-7-31T11:42:5Z</time></trkpt>
<trkpt lat="46.124700000" lon="7.019150000"><ele></ele><time>2013-7-31T11:42:8Z</time></trkpt>
<trkpt lat="46.124750000" lon="7.019160000"><ele></ele><time>2013-7-31T11:42:11Z</time></trkpt>
<trkpt lat="46.124770000" lon="7.019160000"><ele></ele><time>2013-7-31T11:42:14Z</time></trkpt>
<trkpt lat="46.124790000" lon="7.019150000"><ele></ele><time>2013-7-31T11:42:17Z</time></trkpt>
<trkpt lat="46.124810000" lon="7.019150000"><ele></ele><time>2013-7-31T11:42:20Z</time></trkpt>
<trkpt lat="46.124820000" lon="7.019140000"><ele></ele><time>2013-7-31T11:42:23Z</time></trkpt>
<trkpt lat="46.124850000" lon="7.019120000"><ele></ele><time>2013-7-31T11:42:26Z</time></trkpt>
<trkpt lat="46.124940000" lon="7.019090000"><ele></ele><time>2013-7-31T11:42:29Z</time></trkpt>
<trkpt lat="46.124950000" lon="7.019080000"><ele></ele><time>2013-7-31T11:42:32Z</time></trkpt>
<trkpt lat="46.124970000" lon="7.019070000"><ele></ele><time>2013-7-31T11:42:35Z</time></trkpt>
<trkpt lat="46.124980000" lon="7.019060000"><ele></ele><time>2013-7-31T11:42:38Z</time></trkpt>
<trkpt lat="46.125000000" lon="7.019060000"><ele></ele><time>2013-7-31T11:42:41Z</time></trkpt>
<trkpt lat="46.125020000" lon="7.019040000"><ele></ele><time>2013-7-31T11:42:44Z</time></trkpt>
<trkpt lat="46.125100000" lon="7.019020000"><ele></ele><time>2013-7-31T11:42:47Z</time></trkpt>
<trkpt lat="46.125130000" lon="7.019020000"><ele></ele><time>2013-7-31T11:42:50Z</time></trkpt>
<trkpt lat="46.125160000" lon="7.019020000"><ele></ele><time>2013-7-31T11:42:53Z</time></trkpt>
<trkpt lat="46.125190000" lon="7.019020000"><ele></ele><time>2013-7-31T11:42:56Z</time></trkpt>
<trkpt lat="46.125230000" lon="7.019020000"><ele></ele><time>2013-7-31T11:42:59Z</time></trkpt>
<trkpt lat="46.125300000" lon="7.019020000"><ele></ele><time>2013-7-31T11:43:2Z</time></trkpt>
<trkpt lat="46.125340000" lon="7.019040000"><ele></ele><time>2013-7-31T11:43:5Z</time></trkpt>
<trkpt lat="46.125350000" lon="7.019040000"><ele></ele><time>2013-7-31T11:43:8Z</time></trkpt>
<trkpt lat="46.125380000" lon="7.019050000"><ele></ele><time>2013-7-31T11:43:11Z</time></trkpt>
<trkpt lat="46.125400000" lon="7.019060000"><ele></ele><time>2013-7-31T11:43:14Z</time></trkpt>
<trkpt lat="46.125420000" lon="7.019060000"><ele></ele><time>2013-7-31T11:43:17Z</time></trkpt>
<trkpt lat="46.125520000" lon="7.019080000"><ele></ele><time>2013-7-31T11:43:20Z</time></trkpt>
<trkpt lat="46.125580000" lon="7.019100000"><ele></ele><time>2013-7-31T11:43:23Z</time></trkpt>
<trkpt lat="46.125600000" lon="7.019110000"><ele></ele><time>2013-7-31T11:43:26Z</time></trkpt>
<trkpt lat="46.125630000" lon="7.019120000"><ele></ele><time>2013-7-31T11:43:29Z</time></trkpt>
<trkpt lat="46.125640000" lon="7.019130000"><ele></ele><time>2013-7-31T11:43:32Z</time></trkpt>
<trkpt lat="46.125660000" lon="7.019140000"><ele></ele><time>2013-7-31T11:43:35Z</time></trkpt>
<trkpt lat="46.125740000" lon="7.019170000"><ele></ele><time>2013-7-31T11:43:38Z</time></trkpt>
<trkpt lat="46.125770000" lon="7.019180000"><ele></ele><time>2013-7-31T11:43:41Z</time></trkpt>
<trkpt lat="46.125790000" lon="7.019190000"><ele></ele><time>2013-7-31T11:43:44Z</time></trkpt>
<trkpt lat="46.125800000" lon="7.019200000"><ele></ele><time>2013-7-31T11:43:47Z</time></trkpt>
<trkpt lat="46.125820000" lon="7.019200000"><ele></ele><time>2013-7-31T11:43:50Z</time></trkpt>
<trkpt lat="46.125900000" lon="7.019240000"><ele></ele><time>2013-7-31T11:43:53Z</time></trkpt>
<trkpt lat="46.125920000" lon="7.019250000"><ele></ele><time>2013-7-31T11:43:56Z</time></trkpt>
<trkpt lat="46.125940000" lon="7.019260000"><ele></ele><time>2013-7-31T11:43:59Z</time></trkpt>
<trkpt lat="46.125960000" lon="7.019270000"><ele></ele><time>2013-7-31T11:44:2Z</time></trkpt>
<trkpt lat="46.125980000" lon="7.019280000"><ele></ele><time>2013-7-31T11:44:5Z</time></trkpt>
<trkpt lat="46.126000000" lon="7.019290000"><ele></ele><time>2013-7-31T11:44:8Z</time></trkpt>
<trkpt lat="46.126010000" lon="7.019300000"><ele></ele><time>2013-7-31T11:44:11Z</time></trkpt>
<trkpt lat="46.126080000" lon="7.019330000"><ele></ele><time>2013-7-31T11:44:14Z</time></trkpt>
<trkpt lat="46.126100000" lon="7.019330000"><ele></ele><time>2013-7-31T11:44:17Z</time></trkpt>
<trkpt lat="46.126130000" lon="7.019340000"><ele></ele><time>2013-7-31T11:44:20Z</time></trkpt>
<trkpt lat="46.126140000" lon="7.019350000"><ele></ele><time>2013-7-31T11:44:23Z</time></trkpt>
<trkpt lat="46.126190000" lon="7.019360000"><ele></ele><time>2013-7-31T11:44:26Z</time></trkpt>
<trkpt lat="46.126290000" lon="7.019380000"><ele></ele><time>2013-7-31T11:44:29Z</time></trkpt>
<trkpt lat="46.126310000" lon="7.019380000"><ele></ele><time>2013-7-31T11:44:32Z</time></trkpt>
<trkpt lat="46.126330000" lon="7.019380000"><ele></ele><time>2013-7-31T11:44:35Z</time></trkpt>
<trkpt lat="46.126350000" lon="7.019370000"><ele></ele><time>2013-7-31T11:44:38Z</time></trkpt>
<trkpt lat="46.126370000" lon="7.019370000"><ele></ele><time>2013-7-31T11:44:41Z</time></trkpt>
<trkpt lat="46.126480000" lon="7.019350000"><ele></ele><time>2013-7-31T11:44:44Z</time></trkpt>
<trkpt lat="46.126500000" lon="7.019350000"><ele></ele><time>2013-7-31T11:44:47Z</time></trkpt>
<trkpt lat="46.126520000" lon="7.019350000"><ele></ele><time>2013-7-31T11:44:50Z</time></trkpt>
<trkpt lat="46.126540000" lon="7.019350000"><ele></ele><time>2013-7-31T11:44:53Z</time></trkpt>
<trkpt lat="46.126560000" lon="7.019350000"><ele></ele><time>2013-7-31T11:44:56Z</time></trkpt>
<trkpt lat="46.126620000" lon="7.019340000"><ele></ele><time>2013-7-31T11:44:59Z</time></trkpt>
<trkpt lat="46.126640000" lon="7.019340000"><ele></ele><time>2013-7-31T11:45:2Z</time></trkpt>
<trkpt lat="46.126660000" lon="7.019340000"><ele></ele><time>2013-7-31T11:45:5Z</time></trkpt>
<trkpt lat="46.126690000" lon="7.019330000"><ele></ele><time>2013-7-31T11:45:8Z</time></trkpt>
<trkpt lat="46.126710000" lon="7.019330000"><ele></ele><time>2013-7-31T11:45:11Z</time></trkpt>
<trkpt lat="46.126750000" lon="7.019320000"><ele></ele><time>2013-7-31T11:45:14Z</time></trkpt>
<trkpt lat="46.126800000" lon="7.019320000"><ele></ele><time>2013-7-31T11:45:17Z</time></trkpt>
<trkpt lat="46.126820000" lon="7.019320000"><ele></ele><time>2013-7-31T11:45:20Z</time></trkpt>
<trkpt lat="46.126840000" lon="7.019320000"><ele></ele><time>2013-7-31T11:45:23Z</time></trkpt>
<trkpt lat="46.126860000" lon="7.019320000"><ele></ele><time>2013-7-31T11:45:26Z</time></trkpt>
<trkpt lat="46.126880000" lon="7.019310000"><ele></ele><time>2013-7-31T11:45:29Z</time></trkpt>
<trkpt lat="46.126950000" lon="7.019300000"><ele></ele><time>2013-7-31T11:45:32Z</time></trkpt>
<trkpt lat="46.127020000" lon="7.019300000"><ele></ele><time>2013-7-31T11:45:35Z</time></trkpt>
<trkpt lat="46.127050000" lon="7.019310000"><ele></ele><time>2013-7-31T11:45:38Z</time></trkpt>
<trkpt lat="46.127080000" lon="7.019310000"><ele></ele><time>2013-7-31T11:45:41Z</time></trkpt>
<trkpt lat="46.127100000" lon="7.019300000"><ele></ele><time>2013-7-31T11:45:44Z</time></trkpt>
<trkpt lat="46.127120000" lon="7.019310000"><ele></ele><time>2013-7-31T11:45:47Z</time></trkpt>
<trkpt lat="46.127140000" lon="7.019310000"><ele></ele><time>2013-7-31T11:45:50Z</time></trkpt>
<trkpt lat="46.127210000" lon="7.019300000"><ele></ele><time>2013-7-31T11:45:53Z</time></trkpt>
<trkpt lat="46.127240000" lon="7.019310000"><ele></ele><time>2013-7-31T11:45:56Z</time></trkpt>
<trkpt lat="46.127250000" lon="7.019310000"><ele></ele><time>2013-7-31T11:45:59Z</time></trkpt>
<trkpt lat="46.127280000" lon="7.019310000"><ele></ele><time>2013-7-31T11:46:2Z</time></trkpt>
<trkpt lat="46.127290000" lon="7.019300000"><ele></ele><time>2013-7-31T11:46:5Z</time></trkpt>
<trkpt lat="46.127310000" lon="7.019280000"><ele></ele><time>2013-7-31T11:46:8Z</time></trkpt>
<trkpt lat="46.127330000" lon="7.019270000"><ele></ele><time>2013-7-31T11:46:11Z</time></trkpt>
<trkpt lat="46.127410000" lon="7.019220000"><ele></ele><time>2013-7-31T11:46:14Z</time></trkpt>
<trkpt lat="46.127460000" lon="7.019190000"><ele></ele><time>2013-7-31T11:46:17Z</time></trkpt>
<trkpt lat="46.127480000" lon="7.019180000"><ele></ele><time>2013-7-31T11:46:20Z</time></trkpt>
<trkpt lat="46.127490000" lon="7.019160000"><ele></ele><time>2013-7-31T11:46:23Z</time></trkpt>
<trkpt lat="46.127520000" lon="7.019140000"><ele></ele><time>2013-7-31T11:46:26Z</time></trkpt>
<trkpt lat="46.127540000" lon="7.019120000"><ele></ele><time>2013-7-31T11:46:29Z</time></trkpt>
<trkpt lat="46.127630000" lon="7.019000000"><ele></ele><time>2013-7-31T11:46:32Z</time></trkpt>
<trkpt lat="46.127650000" lon="7.018990000"><ele></ele><time>2013-7-31T11:46:35Z</time></trkpt>
<trkpt lat="46.127670000" lon="7.018970000"><ele></ele><time>2013-7-31T11:46:38Z</time></trkpt>
<trkpt lat="46.127690000" lon="7.018960000"><ele></ele><time>2013-7-31T11:46:41Z</time></trkpt>
<trkpt lat="46.127700000" lon="7.018940000"><ele></ele><time>2013-7-31T11:46:44Z</time></trkpt>
<trkpt lat="46.127810000" lon="7.018910000"><ele></ele><time>2013-7-31T11:46:47Z</time></trkpt>
<trkpt lat="46.127830000" lon="7.018910000"><ele></ele><time>2013-7-31T11:46:50Z</time></trkpt>
<trkpt lat="46.127850000" lon="7.018910000"><ele></ele><time>2013-7-31T11:46:53Z</time></trkpt>
<trkpt lat="46.127880000" lon="7.018900000"><ele></ele><time>2013-7-31T11:46:56Z</time></trkpt>
<trkpt lat="46.127900000" lon="7.018900000"><ele></ele><time>2013-7-31T11:46:59Z</time></trkpt>
<trkpt lat="46.127910000" lon="7.018900000"><ele></ele><time>2013-7-31T11:47:2Z</time></trkpt>
<trkpt lat="46.127930000" lon="7.018900000"><ele></ele><time>2013-7-31T11:47:5Z</time></trkpt>
<trkpt lat="46.128020000" lon="7.018880000"><ele></ele><time>2013-7-31T11:47:8Z</time></trkpt>
<trkpt lat="46.128040000" lon="7.018880000"><ele></ele><time>2013-7-31T11:47:11Z</time></trkpt>
<trkpt lat="46.128070000" lon="7.018870000"><ele></ele><time>2013-7-31T11:47:14Z</time></trkpt>
<trkpt lat="46.128090000" lon="7.018870000"><ele></ele><time>2013-7-31T11:47:17Z</time></trkpt>
<trkpt lat="46.128110000" lon="7.018860000"><ele></ele><time>2013-7-31T11:47:20Z</time></trkpt>
<trkpt lat="46.128200000" lon="7.018830000"><ele></ele><time>2013-7-31T11:47:23Z</time></trkpt>
<trkpt lat="46.128220000" lon="7.018840000"><ele></ele><time>2013-7-31T11:47:26Z</time></trkpt>
<trkpt lat="46.128250000" lon="7.018840000"><ele></ele><time>2013-7-31T11:47:29Z</time></trkpt>
<trkpt lat="46.128270000" lon="7.018830000"><ele></ele><time>2013-7-31T11:47:32Z</time></trkpt>
<trkpt lat="46.128300000" lon="7.018830000"><ele></ele><time>2013-7-31T11:47:35Z</time></trkpt>
<trkpt lat="46.128330000" lon="7.018830000"><ele></ele><time>2013-7-31T11:47:38Z</time></trkpt>
<trkpt lat="46.128350000" lon="7.018830000"><ele></ele><time>2013-7-31T11:47:41Z</time></trkpt>
<trkpt lat="46.128410000" lon="7.018830000"><ele></ele><time>2013-7-31T11:47:44Z</time></trkpt>
<trkpt lat="46.128430000" lon="7.018830000"><ele></ele><time>2013-7-31T11:47:47Z</time></trkpt>
<trkpt lat="46.128450000" lon="7.018840000"><ele></ele><time>2013-7-31T11:47:50Z</time></trkpt>
<trkpt lat="46.128480000" lon="7.018840000"><ele></ele><time>2013-7-31T11:47:53Z</time></trkpt>
<trkpt lat="46.128490000" lon="7.018840000"><ele></ele><time>2013-7-31T11:47:56Z</time></trkpt>
<trkpt lat="46.128560000" lon="7.018830000"><ele></ele><time>2013-7-31T11:47:59Z</time></trkpt>
<trkpt lat="46.128630000" lon="7.018810000"><ele></ele><time>2013-7-31T11:48:2Z</time></trkpt>
<trkpt lat="46.128650000" lon="7.018810000"><ele></ele><time>2013-7-31T11:48:5Z</time></trkpt>
<trkpt lat="46.128670000" lon="7.018800000"><ele></ele><time>2013-7-31T11:48:8Z</time></trkpt>
<trkpt lat="46.128690000" lon="7.018800000"><ele></ele><time>2013-7-31T11:48:11Z</time></trkpt>
<trkpt lat="46.128720000" lon="7.018790000"><ele></ele><time>2013-7-31T11:48:14Z</time></trkpt>
<trkpt lat="46.128840000" lon="7.018740000"><ele></ele><time>2013-7-31T11:48:17Z</time></trkpt>
<trkpt lat="46.128860000" lon="7.018740000"><ele></ele><time>2013-7-31T11:48:20Z</time></trkpt>
<trkpt lat="46.128890000" lon="7.018750000"><ele></ele><time>2013-7-31T11:48:23Z</time></trkpt>
<trkpt lat="46.128910000" lon="7.018740000"><ele></ele><time>2013-7-31T11:48:26Z</time></trkpt>
<trkpt lat="46.128930000" lon="7.018740000"><ele></ele><time>2013-7-31T11:48:29Z</time></trkpt>
<trkpt lat="46.128960000" lon="7.018740000"><ele></ele><time>2013-7-31T11:48:32Z</time></trkpt>
<trkpt lat="46.129080000" lon="7.018700000"><ele></ele><time>2013-7-31T11:48:35Z</time></trkpt>
<trkpt lat="46.129100000" lon="7.018700000"><ele></ele><time>2013-7-31T11:48:38Z</time></trkpt>
<trkpt lat="46.129130000" lon="7.018690000"><ele></ele><time>2013-7-31T11:48:41Z</time></trkpt>
<trkpt lat="46.129150000" lon="7.018690000"><ele></ele><time>2013-7-31T11:48:44Z</time></trkpt>
<trkpt lat="46.129180000" lon="7.018680000"><ele></ele><time>2013-7-31T11:48:47Z</time></trkpt>
<trkpt lat="46.129260000" lon="7.018660000"><ele></ele><time>2013-7-31T11:48:50Z</time></trkpt>
<trkpt lat="46.129290000" lon="7.018660000"><ele></ele><time>2013-7-31T11:48:53Z</time></trkpt>
<trkpt lat="46.129310000" lon="7.018650000"><ele></ele><time>2013-7-31T11:48:56Z</time></trkpt>
<trkpt lat="46.129340000" lon="7.018640000"><ele></ele><time>2013-7-31T11:48:59Z</time></trkpt>
<trkpt lat="46.129380000" lon="7.018630000"><ele></ele><time>2013-7-31T11:49:2Z</time></trkpt>
<trkpt lat="46.129520000" lon="7.018650000"><ele></ele><time>2013-7-31T11:49:5Z</time></trkpt>
<trkpt lat="46.129540000" lon="7.018660000"><ele></ele><time>2013-7-31T11:49:8Z</time></trkpt>
<trkpt lat="46.129560000" lon="7.018660000"><ele></ele><time>2013-7-31T11:49:11Z</time></trkpt>
<trkpt lat="46.129590000" lon="7.018660000"><ele></ele><time>2013-7-31T11:49:14Z</time></trkpt>
<trkpt lat="46.129600000" lon="7.018660000"><ele></ele><time>2013-7-31T11:49:17Z</time></trkpt>
<trkpt lat="46.129620000" lon="7.018680000"><ele></ele><time>2013-7-31T11:49:20Z</time></trkpt>
<trkpt lat="46.129670000" lon="7.018690000"><ele></ele><time>2013-7-31T11:49:23Z</time></trkpt>
<trkpt lat="46.129700000" lon="7.018700000"><ele></ele><time>2013-7-31T11:49:26Z</time></trkpt>
<trkpt lat="46.129750000" lon="7.018700000"><ele></ele><time>2013-7-31T11:49:29Z</time></trkpt>
<trkpt lat="46.129770000" lon="7.018700000"><ele></ele><time>2013-7-31T11:49:32Z</time></trkpt>
<trkpt lat="46.129790000" lon="7.018700000"><ele></ele><time>2013-7-31T11:49:35Z</time></trkpt>
<trkpt lat="46.129810000" lon="7.018710000"><ele></ele><time>2013-7-31T11:49:38Z</time></trkpt>
<trkpt lat="46.129830000" lon="7.018710000"><ele></ele><time>2013-7-31T11:49:41Z</time></trkpt>
<trkpt lat="46.129920000" lon="7.018750000"><ele></ele><time>2013-7-31T11:49:44Z</time></trkpt>
<trkpt lat="46.129940000" lon="7.018760000"><ele></ele><time>2013-7-31T11:49:47Z</time></trkpt>
<trkpt lat="46.129970000" lon="7.018770000"><ele></ele><time>2013-7-31T11:49:50Z</time></trkpt>
<trkpt lat="46.129990000" lon="7.018780000"><ele></ele><time>2013-7-31T11:49:53Z</time></trkpt>
<trkpt lat="46.130010000" lon="7.018790000"><ele></ele><time>2013-7-31T11:49:56Z</time></trkpt>
<trkpt lat="46.130080000" lon="7.018820000"><ele></ele><time>2013-7-31T11:49:59Z</time></trkpt>
<trkpt lat="46.130120000" lon="7.018850000"><ele></ele><time>2013-7-31T11:50:2Z</time></trkpt>
<trkpt lat="46.130140000" lon="7.018850000"><ele></ele><time>2013-7-31T11:50:5Z</time></trkpt>
<trkpt lat="46.130170000" lon="7.018860000"><ele></ele><time>2013-7-31T11:50:8Z</time></trkpt>
<trkpt lat="46.130190000" lon="7.018870000"><ele></ele><time>2013-7-31T11:50:11Z</time></trkpt>
<trkpt lat="46.130210000" lon="7.018890000"><ele></ele><time>2013-7-31T11:50:14Z</time></trkpt>
<trkpt lat="46.130330000" lon="7.018950000"><ele></ele><time>2013-7-31T11:50:17Z</time></trkpt>
<trkpt lat="46.130370000" lon="7.018960000"><ele></ele><time>2013-7-31T11:50:20Z</time></trkpt>
<trkpt lat="46.130400000" lon="7.018980000"><ele></ele><time>2013-7-31T11:50:23Z</time></trkpt>
<trkpt lat="46.130420000" lon="7.018990000"><ele></ele><time>2013-7-31T11:50:26Z</time></trkpt>
<trkpt lat="46.130440000" lon="7.019000000"><ele></ele><time>2013-7-31T11:50:29Z</time></trkpt>
<trkpt lat="46.130540000" lon="7.019040000"><ele></ele><time>2013-7-31T11:50:32Z</time></trkpt>
<trkpt lat="46.130560000" lon="7.019050000"><ele></ele><time>2013-7-31T11:50:35Z</time></trkpt>
<trkpt lat="46.130580000" lon="7.019060000"><ele></ele><time>2013-7-31T11:50:38Z</time></trkpt>
<trkpt lat="46.130600000" lon="7.019070000"><ele></ele><time>2013-7-31T11:50:41Z</time></trkpt>
<trkpt lat="46.130620000" lon="7.019080000"><ele></ele><time>2013-7-31T11:50:44Z</time></trkpt>
<trkpt lat="46.130730000" lon="7.019130000"><ele></ele><time>2013-7-31T11:50:47Z</time></trkpt>
<trkpt lat="46.130760000" lon="7.019140000"><ele></ele><time>2013-7-31T11:50:50Z</time></trkpt>
<trkpt lat="46.130780000" lon="7.019140000"><ele></ele><time>2013-7-31T11:50:53Z</time></trkpt>
<trkpt lat="46.130800000" lon="7.019150000"><ele></ele><time>2013-7-31T11:50:56Z</time></trkpt>
<trkpt lat="46.130820000" lon="7.019160000"><ele></ele><time>2013-7-31T11:50:59Z</time></trkpt>
<trkpt lat="46.130830000" lon="7.019170000"><ele></ele><time>2013-7-31T11:51:2Z</time></trkpt>
<trkpt lat="46.130870000" lon="7.019200000"><ele></ele><time>2013-7-31T11:51:5Z</time></trkpt>
<trkpt lat="46.130940000" lon="7.019220000"><ele></ele><time>2013-7-31T11:51:8Z</time></trkpt>
<trkpt lat="46.130970000" lon="7.019220000"><ele></ele><time>2013-7-31T11:51:11Z</time></trkpt>
<trkpt lat="46.130990000" lon="7.019230000"><ele></ele><time>2013-7-31T11:51:14Z</time></trkpt>
<trkpt lat="46.131010000" lon="7.019240000"><ele></ele><time>2013-7-31T11:51:17Z</time></trkpt>
<trkpt lat="46.131110000" lon="7.019280000"><ele></ele><time>2013-7-31T11:51:20Z</time></trkpt>
<trkpt lat="46.131150000" lon="7.019320000"><ele></ele><time>2013-7-31T11:51:23Z</time></trkpt>
<trkpt lat="46.131170000" lon="7.019340000"><ele></ele><time>2013-7-31T11:51:26Z</time></trkpt>
<trkpt lat="46.131190000" lon="7.019360000"><ele></ele><time>2013-7-31T11:51:29Z</time></trkpt>
<trkpt lat="46.131210000" lon="7.019370000"><ele></ele><time>2013-7-31T11:51:32Z</time></trkpt>
<trkpt lat="46.131230000" lon="7.019380000"><ele></ele><time>2013-7-31T11:51:35Z</time></trkpt>
<trkpt lat="46.131290000" lon="7.019430000"><ele></ele><time>2013-7-31T11:51:38Z</time></trkpt>
<trkpt lat="46.131310000" lon="7.019440000"><ele></ele><time>2013-7-31T11:51:41Z</time></trkpt>
<trkpt lat="46.131330000" lon="7.019460000"><ele></ele><time>2013-7-31T11:51:44Z</time></trkpt>
<trkpt lat="46.131360000" lon="7.019470000"><ele></ele><time>2013-7-31T11:51:47Z</time></trkpt>
<trkpt lat="46.131380000" lon="7.019480000"><ele></ele><time>2013-7-31T11:51:50Z</time></trkpt>
<trkpt lat="46.131470000" lon="7.019510000"><ele></ele><time>2013-7-31T11:51:53Z</time></trkpt>
<trkpt lat="46.131490000" lon="7.019510000"><ele></ele><time>2013-7-31T11:51:56Z</time></trkpt>
<trkpt lat="46.131510000" lon="7.019500000"><ele></ele><time>2013-7-31T11:51:59Z</time></trkpt>
<trkpt lat="46.131530000" lon="7.019500000"><ele></ele><time>2013-7-31T11:52:2Z</time></trkpt>
<trkpt lat="46.131600000" lon="7.019470000"><ele></ele><time>2013-7-31T11:52:5Z</time></trkpt>
<trkpt lat="46.131690000" lon="7.019460000"><ele></ele><time>2013-7-31T11:52:8Z</time></trkpt>
<trkpt lat="46.131710000" lon="7.019460000"><ele></ele><time>2013-7-31T11:52:11Z</time></trkpt>
<trkpt lat="46.131730000" lon="7.019460000"><ele></ele><time>2013-7-31T11:52:14Z</time></trkpt>
<trkpt lat="46.131750000" lon="7.019460000"><ele></ele><time>2013-7-31T11:52:17Z</time></trkpt>
<trkpt lat="46.131770000" lon="7.019450000"><ele></ele><time>2013-7-31T11:52:20Z</time></trkpt>
<trkpt lat="46.131790000" lon="7.019440000"><ele></ele><time>2013-7-31T11:52:23Z</time></trkpt>
<trkpt lat="46.131790000" lon="7.019440000"><ele></ele><time>2013-7-31T11:52:26Z</time></trkpt>
</trkseg></trk></gpx>